[[{"header":{"parameterUnit":"m.s-1","parameterCategory":1,"la1":30.6,"la2":28.766,"lo1":-90.7593,"lo2":-88.6598,"dy":0.0162,"dx":0.0183,"nx":116,"ny":114,"refTime":"2024-06-20T12:00:00:Z","depth":0,"parameterNumber":2,"parameterNumberName":"U-component_of_WINDS"},"data":[0.0,0.0,0.0,0.0,0.0,0.0,0.0,0.0,0.0,0.0,0.0,0.0,0.0,0.0,0.0,0.0,0.0,0.0,0.0,0.0,0.0,0.0,0.0,0.0,0.0,0.0,0.0,0.0,0.0,0.0,0.0,0.0,0.0,0.0,0.0,0.0,0.0,0.0,0.0,0.0,0.0,0.0,0.0,0.0,0.0,0.0,0.0,0.0,0.0,0.0,0.0,0.0,0.0,0.0,0.0,0.0,0.0,0.0,0.0,0.0,0.0,0.0,0.0,0.0,0.0,0.0,0.0,0.0,0.0,0.0,0.0,0.0,0.0,0.0,0.0,0.0,0.0,0.0,0.0,0.0,0.0,0.0,0.0,0.0,0.0,0.0,0.0,0.0,0.0,0.0,0.0,0.0,0.0,0.0,0.0,0.0,0.0,0.0,0.0,0.0,0.0,0.0,0.0,0.0,0.0,0.0,0.0,0.0,0.0,0.0,0.0,0.0,0.0,0.0,0.0,0.0,0.0,0.0,0.0,0.0,0.0,0.0,0.0,0.0,0.0,0.0,0.0,0.0,0.0,0.0,0.0,0.0,0.0,0.0,0.0,0.0,0.0,0.0,0.0,0.0,0.0,0.0,0.0,0.0,0.0,0.0,0.0,0.0,0.0,0.0,0.0,0.0,0.0,0.0,0.0,0.0,0.0,0.0,0.0,0.0,0.0,0.0,0.0,0.0,0.0,0.0,0.0,0.0,0.0,0.0,0.0,0.0,0.0,0.0,0.0,0.0,0.0,0.0,0.0,0.0,0.0,0.0,0.0,0.0,0.0,0.0,0.0,0.0,0.0,0.0,0.0,0.0,0.0,0.0,0.0,0.0,0.0,0.0,0.0,0.0,0.0,0.0,0.0,0.0,0.0,0.0,0.0,0.0,0.0,0.0,0.0,0.0,0.0,0.0,0.0,0.0,0.0,0.0,0.0,0.0,0.0,0.0,0.0,0.0,0.0,0.0,0.0,0.0,0.0,0.0,0.0,0.0,0.0,0.0,0.0,0.0,0.0,0.0,0.0,0.0,0.0,0.0,0.0,0.0,0.0,0.0,0.0,0.0,0.0,0.0,0.0,0.0,0.0,0.0,0.0,0.0,0.0,0.0,0.0,0.0,0.0,0.0,0.0,0.0,0.0,0.0,0.0,0.0,0.0,0.0,0.0,0.0,0.0,0.0,0.0,0.0,0.0,0.0,0.0,0.0,0.0,0.0,0.0,0.0,0.0,0.0,0.0,0.0,0.0,0.0,0.0,0.0,0.0,0.0,0.0,0.0,0.0,0.0,0.0,0.0,0.0,0.0,0.0,0.0,0.0,0.0,0.0,0.0,0.0,0.0,0.0,0.0,0.0,0.0,0.0,0.0,0.0,0.0,0.0,0.0,0.0,0.0,0.0,0.0,0.0,0.0,0.0,0.0,0.0,0.0,0.0,0.0,0.0,0.0,0.0,0.0,0.0,0.0,0.0,0.0,0.0,0.0,0.0,0.0,0.0,0.0,0.0,0.0,0.0,0.0,0.0,0.0,0.0,0.0,0.0,0.0,0.0,0.0,0.0,0.0,0.0,0.0,0.0,0.0,0.0,0.0,0.0,0.0,0.0,0.0,0.0,0.0,0.0,0.0,0.0,0.0,0.0,0.0,0.0,0.0,0.0,0.0,0.0,0.0,0.0,0.0,0.0,0.0,0.0,0.0,0.0,0.0,0.0,0.0,0.0,0.0,0.0,0.0,0.0,0.0,0.0,0.0,0.0,0.0,0.0,0.0,0.0,0.0,0.0,0.0,0.0,0.0,0.0,0.0,0.0,0.0,0.0,0.0,0.0,0.0,0.0,0.0,0.0,0.0,0.0,0.0,0.0,0.0,0.0,0.0,0.0,0.0,0.0,0.0,0.0,0.0,0.0,0.0,0.0,0.0,0.0,0.0,0.0,0.0,0.0,0.0,0.0,0.0,0.0,0.0,0.0,0.0,0.0,0.0,0.0,0.0,0.0,0.0,0.0,0.0,0.0,0.0,0.0,0.0,0.0,0.0,0.0,0.0,0.0,0.0,0.0,0.0,0.0,0.0,0.0,0.0,0.0,0.0,0.0,0.0,0.0,0.0,0.0,0.0,0.0,0.0,0.0,0.0,0.0,0.0,0.0,0.0,0.0,0.0,0.0,0.0,0.0,0.0,0.0,0.0,0.0,0.0,0.0,0.0,0.0,0.0,0.0,0.0,0.0,0.0,0.0,0.0,0.0,0.0,0.0,0.0,0.0,0.0,0.0,0.0,0.0,0.0,0.0,0.0,0.0,0.0,0.0,0.0,0.0,0.0,0.0,0.0,0.0,0.0,0.0,0.0,0.0,0.0,0.0,0.0,0.0,0.0,0.0,0.0,0.0,0.0,0.0,0.0,0.0,0.0,0.0,0.0,0.0,0.0,0.0,0.0,0.0,0.0,0.0,0.0,0.0,0.0,0.0,0.0,0.0,0.0,0.0,0.0,0.0,0.0,0.0,0.0,0.0,0.0,0.0,0.0,0.0,0.0,0.0,0.0,0.0,0.0,0.0,0.0,0.0,0.0,0.0,0.0,0.0,0.0,0.0,0.0,0.0,0.0,0.0,0.0,0.0,0.0,0.0,0.0,0.0,0.0,0.0,0.0,0.0,0.0,0.0,0.0,0.0,0.0,0.0,0.0,0.0,0.0,0.0,0.0,0.0,0.0,0.0,0.0,0.0,0.0,0.0,0.0,0.0,0.0,0.0,0.0,0.0,0.0,0.0,0.0,0.0,0.0,0.0,0.0,0.0,0.0,0.0,0.0,0.0,0.0,0.0,0.0,0.0,0.0,0.0,0.0,0.0,0.0,0.0,0.0,0.0,0.0,0.0,0.0,0.0,0.0,0.0,0.0,0.0,0.0,0.0,0.0,0.0,0.0,0.0,0.0,0.0,0.0,0.0,0.0,0.0,0.0,0.0,0.0,0.0,0.0,0.0,0.0,0.0,0.0,0.0,0.0,0.0,0.0,0.0,0.0,0.0,0.0,0.0,0.0,0.0,0.0,0.0,0.0,0.0,0.0,0.0,0.0,0.0,0.0,0.0,0.0,0.0,0.0,0.0,0.0,0.0,0.0,0.0,0.0,0.0,0.0,0.0,0.0,0.0,0.0,0.0,0.0,0.0,0.0,0.0,0.0,0.0,0.0,0.0,0.0,0.0,0.0,0.0,0.0,0.0,0.0,0.0,0.0,0.0,0.0,0.0,0.0,0.0,0.0,0.0,0.0,0.0,0.0,0.0,0.0,0.0,0.0,0.0,0.0,0.0,0.0,0.0,0.0,0.0,0.0,0.0,0.0,0.0,0.0,0.0,0.0,0.0,0.0,0.0,0.0,0.0,0.0,0.0,0.0,0.0,0.0,0.0,0.0,0.0,0.0,0.0,0.0,0.0,0.0,0.0,0.0,0.0,0.0,0.0,0.0,0.0,0.0,0.0,0.0,0.0,0.0,0.0,0.0,0.0,0.0,0.0,0.0,0.0,0.0,0.0,0.0,0.0,0.0,0.0,0.0,0.0,0.0,0.0,0.0,0.0,0.0,0.0,0.0,0.0,0.0,0.0,0.0,0.0,0.0,0.0,0.0,0.0,0.0,0.0,0.0,0.0,0.0,0.0,0.0,0.0,0.0,0.0,0.0,0.0,0.0,0.0,0.0,0.0,0.0,0.0,0.0,0.0,0.0,0.0,0.0,0.0,0.0,0.0,0.0,0.0,0.0,0.0,0.0,0.0,0.0,0.0,0.0,0.0,0.0,0.0,0.0,0.0,0.0,0.0,0.0,0.0,0.0,0.0,0.0,0.0,0.0,0.0,0.0,0.0,0.0,0.0,0.0,0.0,0.0,0.0,0.0,0.0,0.0,0.0,0.0,0.0,0.0,0.0,0.0,0.0,0.0,0.0,0.0,0.0,0.0,0.0,0.0,0.0,0.0,0.0,0.0,0.0,0.0,0.0,0.0,0.0,0.0,0.0,0.0,0.0,0.0,0.0,0.0,0.0,0.0,0.0,0.0,0.0,0.0,0.0,0.0,0.0,0.0,0.0,0.0,0.0,0.0,0.0,0.0,0.0,0.0,0.0,0.0,0.0,0.0,0.0,0.0,0.0,0.0,0.0,0.0,0.0,0.0,0.0,0.0,0.0,0.0,0.0,0.0,0.0,0.0,0.0,0.0,0.0,0.0,0.0,0.0,0.0,0.0,0.0,0.0,0.0,0.0,0.0,0.0,0.0,0.0,0.0,0.0,0.0,0.0,0.0,0.0,0.0,0.0,0.0,0.0,0.0,0.0,0.0,0.0,0.0,0.0,0.0,0.0,0.0,0.0,0.0,0.0,0.0,0.0,0.0,0.0,0.0,0.0,0.0,0.0,0.0,0.0,0.0,0.0,0.0,0.0,0.0,0.0,0.0,0.0,0.0,0.0,0.0,0.0,0.0,0.0,0.0,0.0,0.0,0.0,0.0,0.0,0.0,0.0,0.0,0.0,0.0,0.0,0.0,0.0,0.0,0.0,0.0,0.0,0.0,0.0,0.0,0.0,0.0,0.0,0.0,0.0,0.0,0.0,0.0,0.0,0.0,0.0,0.0,0.0,0.0,0.0,0.0,0.0,0.0,0.0,0.0,0.0,0.0,0.0,0.0,0.0,0.0,0.0,0.0,0.0,0.0,0.0,0.0,0.0,0.0,0.0,0.0,0.0,0.0,0.0,0.0,0.0,0.0,0.0,0.0,0.0,0.0,0.0,0.0,0.0,0.0,0.0,0.0,0.0,0.0,0.0,0.0,0.0,0.0,0.0,0.0,0.0,0.0,0.0,0.0,0.0,0.0,0.0,0.0,0.0,0.0,0.0,0.0,0.0,0.0,0.0,0.0,0.0,0.0,0.0,0.0,0.0,0.0,0.0,0.0,0.0,0.0,0.0,0.0,0.0,0.0,0.0,0.0,0.0,0.0,0.0,0.0,0.0,0.0,0.0,0.0,0.0,0.0,0.0,0.0,0.0,0.0,0.0,0.0,0.0,0.0,0.0,0.0,0.0,0.0,0.0,0.0,0.0,0.0,0.0,0.0,0.0,0.0,0.0,0.0,0.0,0.0,0.0,0.0,0.0,0.0,0.0,0.0,0.0,0.0,0.0,0.0,0.0,0.0,0.0,0.0,0.0,0.0,0.0,0.0,0.0,0.0,0.0,0.0,0.0,0.0,0.0,0.0,0.0,0.0,0.0,0.0,0.0,0.0,0.0,0.0,0.0,0.0,0.0,0.0,0.0,0.0,0.0,0.0,0.0,0.0,0.0,0.0,0.0,0.0,0.0,0.0,0.0,0.0,0.0,0.0,0.0,0.0,0.0,0.0,0.0,0.0,0.0,0.0,0.0,0.0,0.0,0.0,0.0,0.0,0.0,0.0,0.0,0.0,0.0,0.0,0.0,0.0,0.0,0.0,0.0,0.0,0.0,0.0,0.0,0.0,0.0,0.0,0.0,0.0,0.0,0.0,0.0,0.0,0.0,0.0,0.0,0.0,0.0,0.0,0.0,0.0,0.0,0.0,0.0,0.0,0.0,0.0,0.0,0.0,0.0,0.0,0.0,0.0,0.0,0.0,0.0,0.0,0.0,0.0,0.0,0.0,0.0,0.0,0.0,0.0,0.0,0.0,0.0,0.0,0.0,0.0,0.0,0.0,0.0,0.0,0.0,0.0,0.0,0.0,0.0,0.0,0.0,0.0,0.0,0.0,0.0,0.0,0.0,0.0,0.0,0.0,0.0,0.0,0.0,0.0,0.0,0.0,0.0,0.0,0.0,0.0,0.0,0.0,0.0,0.0,0.0,0.0,0.0,0.0,0.0,0.0,0.0,0.0,0.0,0.0,0.0,0.0,0.0,0.0,0.0,0.0,0.0,0.0,0.0,0.0,0.0,0.0,0.0,0.0,0.0,0.0,0.0,0.0,0.0,0.0,0.0,0.0,0.0,0.0,0.0,0.0,0.0,0.0,0.0,0.0,0.0,0.0,0.0,0.0,0.0,0.0,0.0,0.0,0.0,0.0,0.0,0.0,0.0,-0.0,0.0,0.0,0.0,0.0,0.0,0.0,0.0,0.0,0.0,0.0,0.0,0.0,0.0,0.0,0.0,0.0,0.0,0.0,0.0,0.0,0.0,0.0,0.0,0.0,-0.4587,-0.4354,-0.3931,-0.3911,-0.3786,-0.3527,0.0,0.0,0.0,0.0,0.0,-0.3506,-0.344,-0.3313,-0.3093,-0.296,-0.2801,-0.2623,-0.2444,-0.2332,-0.2246,0.0,0.0,0.0,0.0,0.0,0.0,0.0,0.0,0.0,0.0,0.0,0.0,0.0,0.0,0.0,0.0,0.0,0.0,0.0,0.0,0.0,0.0,0.0,0.0,0.0,0.0,0.0,0.0,0.0,0.0,0.0,0.0,0.0,0.0,0.0,0.0,0.0,0.0,0.0,0.0,0.0,0.0,0.0,0.0,0.0,0.0,0.0,0.0,0.0,0.0,0.0,0.0,0.0,0.0,0.0,0.0,0.0,0.0,0.0,0.0,0.0,0.0,0.0,0.0,0.0,0.0,0.0,0.0,0.0,0.0,0.0,-0.0,0.0,0.0,0.0,0.0,0.0,0.0,0.0,0.0,0.0,0.0,0.0,0.0,0.0,0.0,0.0,0.0,0.0,0.0,0.0,0.0,0.0,-0.4773,-0.4784,-0.4589,-0.4345,-0.4074,-0.406,-0.393,-0.3607,-0.3586,0.0,0.0,0.0,-0.3586,-0.3586,-0.3483,-0.3376,-0.3257,-0.3104,-0.3041,-0.3069,-0.3074,-0.3048,-0.2913,-0.28,0.0,0.0,0.0,0.0,0.0,0.0,0.0,0.0,0.0,0.0,0.0,0.0,0.0,0.0,0.0,0.0,0.0,0.0,0.0,0.0,0.0,0.0,0.0,0.0,0.0,0.0,0.0,0.0,0.0,0.0,0.0,0.0,0.0,0.0,0.0,0.0,0.0,0.0,0.0,0.0,0.0,0.0,0.0,0.0,0.0,0.0,0.0,0.0,0.0,0.0,0.0,0.0,0.0,0.0,0.0,0.0,0.0,0.0,0.0,0.0,0.0,0.0,0.0,-0.0,-0.0,-0.0,-0.0,-0.0,-0.0,-0.0,-0.0,-0.0,-0.0,0.0,0.0,0.0,0.0,0.0,0.0,0.0,0.0,0.0,0.0,0.0,0.0,0.0,0.0,0.0,0.0,0.0,0.0,0.0,-0.5064,-0.5125,-0.5094,-0.4974,-0.4704,-0.4683,-0.4467,-0.3975,-0.3938,0.0,-0.3519,-0.3774,-0.3938,-0.3938,-0.3921,-0.3893,-0.3891,-0.363,-0.3574,-0.3676,-0.3586,-0.3598,-0.3744,-0.3242,-0.2921,-0.2659,0.0,0.0,0.0,0.0,0.0,0.0,0.0,0.0,0.0,0.0,0.0,0.0,0.0,0.0,0.0,0.0,0.0,0.0,0.0,0.0,0.0,0.0,0.0,0.0,0.0,0.0,0.0,0.0,0.0,0.0,0.0,0.0,0.0,0.0,0.0,0.0,0.0,0.0,0.0,0.0,0.0,-0.0,-0.0,0.0,0.0,0.0,0.0,0.0,0.0,0.0,0.0,0.0,0.0,0.0,0.0,0.0,-0.0,-0.0,-0.0,-0.0,-0.0,-0.0,-0.0,-0.0,-0.0,-0.0,-0.0,-0.0,0.0,-0.0,-0.0,0.0,0.0,0.0,0.0,0.0,0.0,0.0,0.0,0.0,0.0,0.0,0.0,0.0,0.0,0.0,0.0,0.0,0.0,0.0,0.0,0.0,-0.5333,-0.5324,-0.5041,-0.5182,-0.5068,-0.4476,-0.4456,-0.4329,-0.4004,-0.4148,-0.4289,-0.4456,-0.4166,-0.3953,-0.3908,-0.3924,-0.3952,-0.405,-0.409,-0.3687,-0.2932,-0.2547,-0.2289,-0.2186,-0.2052,0.0,0.0,0.0,0.0,0.0,0.0,0.0,0.0,0.0,0.0,0.0,0.0,0.0,0.0,0.0,0.0,0.0,0.0,0.0,0.0,0.0,0.0,0.0,0.0,0.0,0.0,0.0,0.0,0.0,0.0,0.0,0.0,0.0,0.0,0.0,0.0,0.0,0.0,0.0,-0.0,-0.0,-0.0,-0.0,-0.0,0.0,0.0,0.0,0.0,0.0,0.0,0.0,0.0,0.0,-0.0,-0.0,-0.0,-0.0,-0.0,-0.0,-0.0,-0.0,-0.0,-0.0,-0.0,-0.0,-0.0,-0.0,-0.0,-0.0,-0.0,-0.0,-0.0,0.0,0.0,0.0,0.0,-0.0,-0.0,0.0,0.0,0.0,0.0,0.0,0.0,0.0,0.0,0.0,0.0,0.0,0.0,-0.5315,-0.5498,-0.5565,-0.5467,-0.5684,-0.5595,-0.5077,-0.496,-0.4794,-0.4529,-0.4516,-0.4566,-0.4699,-0.4282,-0.4004,-0.391,-0.4083,-0.4234,-0.4308,-0.4484,-0.3984,-0.2805,-0.1777,-0.1362,-0.1336,-0.1319,-0.118,-0.103,0.0,0.0,0.0,0.0,0.0,0.0,0.0,0.0,0.0,0.0,0.0,0.0,0.0,0.0,0.0,0.0,0.0,0.0,0.0,0.0,0.0,0.0,0.0,0.0,0.0,0.0,0.0,0.0,0.0,0.0,0.0,0.0,0.0,0.0,0.0,0.0,0.0,-0.0,-0.0,-0.0,-0.0,-0.0,0.0,0.0,0.0,0.0,0.0,0.0,-0.0,-0.0,-0.0,-0.0,-0.0,-0.0,-0.0,-0.0,-0.0,-0.0,-0.0,-0.0,-0.0,-0.0,-0.0,-0.0,-0.0,-0.0,-0.0,-0.0,-0.0,-0.0,-0.0,-0.0,-0.0,-0.0,-0.0,-0.0,0.0,0.0,0.0,0.0,0.0,0.0,0.0,0.0,0.0,0.0,0.0,-0.5308,-0.5636,-0.5702,-0.5816,-0.6111,-0.6179,-0.6021,-0.5685,-0.5411,-0.5124,-0.4794,-0.4787,-0.4676,-0.4434,-0.4262,-0.4176,-0.4174,-0.4187,-0.4338,-0.467,-0.4745,-0.4716,-0.454,-0.1468,-0.0118,-0.0111,-0.0103,-0.01,-0.0049,-0.0126,0.0,0.0,0.0,0.0,0.0,0.0,0.0,0.0,0.0,0.0,0.0,0.0,0.0,0.0,0.0,0.0,0.0,0.0,0.0,0.0,0.0,0.0,0.0,0.0,0.0,0.0,0.0,0.0,0.0,0.0,0.0,0.0,0.0,0.0,0.0,0.0,0.0,0.0,-0.0,-0.0,0.0,0.0,0.0,0.0,-0.0,-0.0,-0.0,-0.0,-0.0,-0.0,-0.0,-0.0,-0.0,-0.0,-0.0,-0.0,-0.0,-0.0,-0.0,-0.0,-0.0,-0.0,-0.0,-0.0,-0.0,-0.0,-0.0,-0.0,-0.0,-0.0,-0.0,-0.0,-0.0,-0.0,-0.0,0.0,0.0,0.0,-0.5108,-0.5108,-0.5108,-0.5108,-0.5108,-0.5108,-0.5108,-0.5316,-0.5508,-0.5688,-0.6037,-0.6314,-0.6438,-0.6607,-0.6587,-0.6299,-0.6041,-0.5914,-0.5959,-0.5785,-0.556,-0.5322,-0.496,-0.463,-0.4385,-0.4484,-0.4585,-0.4694,-0.4796,-0.4937,-0.4938,-0.3816,-0.2065,-0.0,-0.0,-0.0,-0.0,-0.0,-0.0386,0.0,0.0,0.0,0.0,0.0,0.0,0.0,0.0,0.0,0.0,0.0,0.0,0.0,0.0,0.0,0.0,0.0,0.0,0.0,0.0,0.0,0.0,0.0,0.0,0.0,0.0,0.0,0.0,0.0,0.0,0.0,0.0,0.0,0.0,0.0,0.0,0.0,-0.0,-0.0,0.0,-0.0,-0.0,-0.0,-0.0,-0.0,-0.0,-0.0,-0.0,-0.0,-0.0,-0.0,-0.0,-0.0,-0.0,-0.0,-0.0,-0.0,-0.0,-0.0,-0.0,-0.0,-0.0,-0.0,-0.0,-0.0,-0.0,-0.0,-0.0,-0.0,-0.0,-0.0,-0.0,-0.0,-0.0,-0.5473,-0.5291,0.0,-0.5108,-0.5108,-0.5108,-0.5108,-0.5108,-0.5166,-0.5312,-0.55,-0.5724,-0.6,-0.6373,-0.6643,-0.6713,-0.6907,-0.6941,-0.6747,-0.6505,-0.6424,-0.658,-0.6102,-0.5719,-0.5415,-0.5079,-0.4815,-0.4538,-0.4694,-0.4792,-0.4843,-0.4942,-0.5023,-0.521,-0.5213,-0.3974,-0.1741,-0.0538,-0.0,-0.0,-0.0,-0.0,-0.0,0.0,0.0,0.0,0.0,0.0,0.0,0.0,0.0,0.0,0.0,0.0,0.0,0.0,0.0,0.0,0.0,0.0,0.0,0.0,0.0,0.0,0.0,0.0,0.0,0.0,0.0,0.0,0.0,0.0,0.0,0.0,0.0,0.0,0.0,0.0,-0.0,-0.0,-0.0,-0.0,-0.0,-0.0,-0.0,-0.0,-0.0,-0.0,-0.0,-0.0,-0.0,-0.0,-0.0,-0.0,-0.0,-0.0,-0.0,-0.0,-0.0,-0.0,-0.0,-0.0,-0.0,-0.0,-0.0,-0.0,-0.0,-0.0,-0.0,-0.0,-0.0,-0.0,-0.0,-0.0,-0.0,-0.0,-0.5511,-0.5291,-0.5108,-0.5108,-0.5108,-0.5108,-0.5108,-0.5108,-0.5263,-0.5744,-0.5745,-0.5955,-0.6615,-0.6642,-0.6713,-0.6994,-0.6979,-0.6979,-0.6979,-0.6754,-0.66,-0.6574,-0.5651,-0.5015,-0.4717,-0.4584,-0.4545,-0.4697,-0.485,-0.4996,-0.5131,-0.5135,-0.5216,-0.5428,-0.5379,-0.5436,-0.5165,-0.1674,-0.0125,-0.0059,-0.0,-0.0,-0.0,0.0,0.0,0.0,0.0,0.0,0.0,0.0,0.0,0.0,0.0,0.0,0.0,0.0,0.0,0.0,0.0,0.0,0.0,0.0,0.0,0.0,0.0,0.0,0.0,0.0,0.0,0.0,0.0,0.0,0.0,0.0,0.0,0.0,-0.0,-0.0,-0.0,-0.0,-0.0,-0.0,-0.0,-0.0,-0.0,-0.0,-0.0,-0.0,-0.0,-0.0,-0.0,-0.0,-0.0,-0.0,-0.0,-0.0,-0.0,-0.0,-0.0,-0.0,-0.0,-0.0,-0.0,-0.0,-0.0,-0.0,-0.0,-0.0,-0.0,-0.0,-0.0,-0.0,-0.0,-0.0,-0.0,-0.0,-0.5745,-0.5415,-0.5108,-0.5108,-0.5108,-0.5108,-0.5108,-0.5108,-0.5263,-0.5744,-0.5915,-0.6183,-0.6647,-0.6834,-0.6934,-0.7014,-0.6979,-0.6979,-0.6979,-0.6754,-0.657,-0.6451,-0.6272,-0.5991,-0.5487,-0.4918,-0.4704,-0.4857,-0.5003,-0.5091,-0.5131,-0.5247,-0.5321,-0.5432,-0.5481,-0.5583,-0.5552,-0.4376,-0.3145,-0.1868,-0.0553,-0.0,-0.0,0.0,0.0,0.0,0.0,0.0,0.0,0.0,0.0,0.0,0.0,0.0,0.0,0.0,0.0,0.0,0.0,0.0,0.0,0.0,0.0,0.0,0.0,0.0,0.0,0.0,0.0,0.0,0.0,0.0,0.0,0.0,0.0,-0.0,-0.0,-0.0,-0.0,-0.0,-0.0,-0.0,-0.0,-0.0,-0.0,-0.0,-0.0,-0.0,-0.0,-0.0,-0.0,-0.0,-0.0,-0.0,-0.0,-0.0,-0.0,-0.0,-0.0,-0.0,-0.0,-0.0,-0.0,-0.0,-0.0,-0.0,-0.0,-0.0,-0.0,-0.0,-0.0,-0.0,-0.0,-0.0,-0.0,-0.0,-0.5874,-0.5472,-0.5108,-0.5108,-0.5108,-0.5108,-0.5108,-0.5108,-0.5331,-0.5957,-0.6075,-0.634,-0.6935,-0.699,-0.6979,-0.6979,-0.7134,-0.7154,-0.7027,-0.6981,-0.6774,-0.632,-0.6426,-0.6138,-0.537,-0.5047,-0.4918,-0.5006,-0.5155,-0.5226,-0.523,-0.5318,-0.5463,-0.546,-0.5549,-0.5627,-0.5761,-0.5694,-0.5002,-0.387,-0.282,-0.1452,-0.0,-0.0,-0.0,-0.0,-0.0,-0.0,-0.0,-0.0,0.0,0.0,0.0,0.0,0.0,0.0,0.0,0.0,0.0,0.0,0.0,0.0,0.0,0.0,0.0,0.0,0.0,0.0,0.0,0.0,0.0,0.0,0.0,0.0,-0.0,-0.0,-0.0,-0.0,-0.0,-0.0,-0.0,-0.0,-0.0,-0.0,-0.0,-0.0,-0.0,-0.0,-0.0,-0.0,-0.0,-0.0,-0.0,-0.0,-0.0,-0.0,-0.0,-0.0,-0.0,-0.0,-0.0,-0.0,-0.0,-0.0,-0.0,-0.0,-0.0,-0.0,-0.0,0.0,0.0,0.0,0.0,0.0,-0.0,-0.0,-0.5911,-0.5491,-0.5127,-0.5108,-0.5127,-0.5127,-0.5108,-0.5108,-0.5419,-0.6299,-0.6197,-0.6403,-0.7252,-0.7094,-0.6974,-0.6974,-0.7275,-0.7368,-0.7141,-0.7402,-0.7173,-0.6222,-0.6371,-0.5887,-0.4769,-0.4989,-0.5138,-0.5155,-0.5294,-0.5428,-0.5428,-0.5446,-0.546,-0.5593,-0.5627,-0.5708,-0.5827,-0.5985,-0.5916,-0.5768,-0.5775,-0.3635,-0.0311,-0.0062,-0.0,-0.0,-0.0,-0.0,-0.0,-0.0,0.0,0.0,0.0,0.0,0.0,0.0,0.0,0.0,0.0,0.0,0.0,0.0,0.0,0.0,0.0,0.0,0.0,0.0,0.0,0.0,0.0,0.0,0.0,0.0,-0.0,-0.0,-0.0,-0.0,-0.0,-0.0,-0.0,-0.0,-0.0,-0.0,-0.0,-0.0,-0.0,-0.0,-0.0,0.0,0.0,0.0,0.0,-0.0,-0.0,-0.0,-0.0,-0.0,-0.0,-0.0,-0.0,-0.0,-0.0,-0.0,-0.0,-0.0,-0.0,-0.0,-0.0,-0.0,-0.0,-0.0,-0.0,-0.0,-0.0,-0.0,-0.5936,-0.5652,-0.5349,-0.5127,-0.5272,-0.5349,-0.5127,-0.5108,-0.5419,-0.6299,-0.6029,-0.6101,-0.6917,-0.6795,-0.6673,-0.6673,-0.7204,-0.7548,-0.7696,-0.8036,-0.7629,-0.6237,-0.6574,-0.6205,-0.487,-0.5043,-0.5189,-0.5318,-0.5415,-0.5428,-0.5432,-0.5488,-0.5562,-0.5599,-0.5837,-0.5959,-0.5986,-0.5989,-0.5989,-0.5979,-0.5947,-0.441,-0.2042,-0.0527,-0.0,-0.0,-0.0,-0.0,-0.0,-0.0,-0.0,-0.0,-0.0,0.0,0.0,0.0,0.0,0.0,0.0,0.0,0.0,0.0,0.0,0.0,0.0,0.0,0.0,0.0,0.0,0.0,0.0,0.0,0.0,-0.0,-0.0,-0.0,-0.0,-0.0,-0.0,-0.0,-0.0,-0.0,-0.0,-0.0,-0.0,-0.0,-0.0,-0.0,-0.0,-0.0,-0.0,-0.0,-0.0,-0.0,-0.0,-0.0,-0.0,-0.0,0.0,0.0,-0.0,-0.0,-0.0,-0.0,-0.0,-0.0,-0.0,-0.0,-0.0,-0.0,-0.0,-0.0,-0.0,-0.0,-0.0,-0.0,-0.5936,-0.5689,-0.5416,-0.5146,-0.5214,-0.5253,-0.5127,-0.5108,-0.5419,-0.6299,-0.618,-0.6319,-0.7121,-0.7067,-0.6935,-0.6701,-0.7024,-0.7502,-0.811,-0.829,-0.7968,-0.6985,-0.7007,-0.6542,-0.5453,-0.5322,-0.5284,-0.5428,-0.5428,-0.5466,-0.5477,-0.5555,-0.5671,-0.5817,-0.5966,-0.6071,-0.6146,-0.6146,-0.6146,-0.6139,-0.6146,-0.5456,-0.4255,-0.3111,-0.2153,-0.1372,-0.1335,-0.132,-0.119,-0.0304,-0.0,-0.0,-0.0,-0.0,-0.0581,0.0,0.0,0.0,0.0,0.0,0.0,0.0,0.0,0.0,0.0,0.0,0.0,0.0,0.0,-0.0,-0.0,0.0,-0.0,-0.0,-0.0,-0.0,-0.0,-0.0,-0.0,-0.0,-0.0,-0.0,-0.0,-0.0,-0.0,-0.0,-0.0,-0.0,-0.0,-0.0,-0.0,-0.0,-0.0,-0.0,-0.0,-0.0,-0.0,-0.0,-0.0,-0.0,-0.0,-0.0,-0.0,-0.0,-0.0,-0.0,-0.0,-0.0,-0.0,-0.0,-0.0,-0.0,-0.0,-0.0,-0.0,-0.0,-0.5954,-0.5726,-0.5482,-0.5146,-0.5146,-0.5166,-0.5108,-0.5108,-0.539,-0.6182,-0.6244,-0.6497,-0.7231,-0.729,-0.7213,-0.6967,-0.7044,-0.7468,0.0,-0.843,-0.8268,-0.7842,-0.7375,-0.6787,-0.6107,-0.5607,-0.5428,-0.5428,-0.5459,-0.5467,-0.5593,-0.5647,-0.5803,-0.603,-0.6061,-0.6142,-0.6338,-0.6338,-0.6338,-0.6338,-0.6338,-0.6186,-0.6044,-0.562,-0.4568,-0.3259,-0.323,-0.3161,-0.2943,-0.15,-0.0803,-0.049,-0.012,-0.0175,-0.0908,-0.3353,-0.427,0.0,0.0,0.0,0.0,0.0,0.0,0.0,0.0,0.0,-0.0,-0.0,-0.0,-0.0,-0.0,-0.0,-0.0,-0.0,-0.0,-0.0,-0.0,-0.0,-0.0404,-0.1414,-0.0606,-0.0,-0.0,-0.0,-0.0,-0.0,-0.0,-0.0,-0.0,-0.0,-0.0,-0.0,-0.0,-0.0,-0.0,-0.0,-0.0,-0.0,-0.0,-0.0,-0.0,-0.0,-0.0,-0.0,-0.0,-0.0,-0.0115,-0.1248,-0.169,-0.1576,-0.0449,-0.0336,-0.0784,-0.0224,-0.0,-0.0,-0.5973,-0.5874,-0.5697,-0.5185,-0.5291,-0.5368,-0.5127,-0.5108,-0.5283,-0.5813,-0.5856,-0.6038,-0.6565,-0.6833,-0.7091,-0.7473,-0.7487,-0.7735,-0.838,-0.8617,-0.8558,-0.8169,-0.7465,-0.6852,-0.6354,-0.5726,-0.5428,-0.5428,-0.5498,-0.5572,-0.5596,-0.5857,-0.5996,-0.6034,-0.6173,-0.6244,-0.6338,-0.6338,-0.6338,-0.6338,-0.6338,-0.6251,-0.6203,-0.5895,-0.5489,-0.5089,-0.5081,-0.4885,-0.4653,-0.4759,-0.3715,-0.2089,-0.049,-0.0916,-0.2001,-0.2344,0.0,-0.4529,-0.4589,-0.3322,-0.1914,-0.1642,-0.0811,-0.0,0.0,0.0,-0.0,-0.0,-0.0,-0.0,-0.0,-0.0,-0.0,-0.0,-0.0,-0.0,-0.0,-0.0,-0.1716,-0.6586,-0.2929,-0.0,-0.0,-0.0,-0.0,-0.0,-0.0,-0.0,-0.0,-0.0,-0.0,-0.0,-0.0,-0.0,-0.0,-0.0,-0.0,-0.0,-0.0,-0.0,-0.0,-0.0,-0.0,-0.0,-0.0,-0.0,-0.0469,-0.5666,-0.7944,-0.735,-0.2024,-0.1676,-0.3689,-0.1008,-0.0,-0.0,-0.6141,-0.5991,-0.5771,-0.5406,-0.5291,-0.5233,-0.5108,-0.5108,-0.5263,-0.5744,-0.5793,-0.6059,-0.6762,-0.6949,-0.7132,-0.7448,-0.752,-0.7736,-0.8076,-0.855,-0.8698,-0.8546,-0.8098,-0.7519,-0.6829,-0.6382,-0.5881,-0.5428,-0.5515,-0.5633,-0.5718,-0.5928,-0.6078,-0.6166,-0.6234,-0.6338,-0.6338,-0.6338,-0.6338,-0.6338,-0.6338,-0.6338,-0.6227,-0.5918,-0.5715,-0.5493,-0.5325,-0.5138,0.0,-0.506,-0.4612,-0.3931,-0.3135,-0.2576,-0.238,-0.3283,-0.4253,0.0,-0.5535,-0.4501,0.0,0.0,-0.0384,-0.0,-0.0,-0.0,-0.0,-0.0,-0.0,-0.0,-0.0,-0.0,-0.0,0.0,-0.0,-0.0,-0.0,-0.2726,-0.5464,-0.7717,-0.6065,-0.3465,-0.0315,-0.0,-0.0,-0.0,-0.0,-0.0,-0.0,-0.0,-0.0,-0.0,-0.0,-0.0,-0.0,-0.0,-0.0,-0.0,-0.3882,-0.5708,-0.57,-0.57,-0.46,-0.2896,-0.2868,-0.2857,-0.3092,-0.5508,-0.7588,-0.8878,-0.6178,-0.4876,-0.4528,-0.5064,-0.4147,-0.2349,-0.6254,-0.6034,-0.5819,-0.5549,-0.5272,-0.5108,-0.5108,-0.5108,-0.5224,-0.5557,-0.5725,-0.6146,-0.7002,-0.7101,-0.7182,-0.7396,-0.7463,-0.7624,-0.7948,-0.8407,-0.8758,-0.8918,-0.8588,-0.8151,-0.7566,-0.6999,-0.6396,-0.5752,-0.5648,-0.5661,-0.5803,-0.5959,-0.6112,-0.6338,-0.6338,-0.6338,-0.6338,-0.6338,-0.6338,-0.6338,-0.6338,-0.6237,-0.6162,-0.5861,-0.5654,-0.5491,-0.5226,-0.5077,-0.5003,-0.4887,-0.4904,-0.4984,-0.4925,-0.3994,-0.3141,-0.4329,-0.5012,-0.5488,-0.5773,0.0,0.0,-0.17,-0.059,-0.0,-0.0,-0.0,-0.0,-0.0,-0.0,-0.0,-0.0,-0.0,0.0,-0.0,-0.0,-0.0505,-0.2019,-0.5564,-0.8022,-0.8012,-0.7999,-0.6436,-0.2628,-0.0847,-0.0,-0.0,-0.0,-0.0,-0.0,-0.1739,-0.2694,-0.2726,-0.1804,-0.1333,-0.1333,-0.1348,-0.1356,-0.1356,-0.6188,-0.8436,-0.8421,-0.9426,-0.8538,-0.6274,-0.6205,-0.6295,-0.6288,-0.6184,-0.7455,-0.9369,-0.9215,-0.7718,-0.6055,-0.8179,-0.7553,-0.5371,-0.6254,-0.6034,-0.5819,-0.5549,-0.5272,-0.5108,-0.5108,-0.5108,-0.5117,-0.5127,-0.5518,-0.6146,-0.7002,-0.7101,-0.719,-0.7457,-0.7318,-0.7452,-0.807,-0.829,-0.8637,-0.915,-0.8685,-0.8533,-0.8717,-0.7383,-0.6719,-0.6654,-0.5916,-0.5661,-0.5803,-0.5959,-0.6112,-0.6338,-0.6338,-0.6338,-0.6338,-0.6338,-0.6338,-0.6338,-0.6338,-0.6169,-0.6006,-0.5708,-0.5501,-0.5348,-0.5186,-0.4948,-0.4724,-0.487,-0.4819,-0.4724,-0.4756,-0.4742,0.0,-0.5024,-0.5338,0.0,0.0,0.0,-0.3331,-0.4182,-0.2205,-0.0,-0.0,-0.0,-0.0,-0.0,-0.0,-0.0,-0.0,-0.0,-0.0,-0.0,-0.0,-0.1817,-0.6997,-0.7922,-0.8012,-0.7979,-0.7982,-0.7948,0.0,-0.3049,-0.0,-0.0,-0.0,-0.0,-0.0,-0.6053,-0.946,-0.9463,-0.6357,-0.479,-0.479,-0.4794,-0.4794,-0.4794,-0.4918,-0.5042,-0.5165,-0.8401,-0.9781,-0.9658,-0.9652,-0.9652,-0.9635,-0.9463,-0.9394,-0.9499,-0.9473,-0.9306,-0.9041,-0.9174,-0.8994,-0.8778,-0.6483,-0.6266,-0.6034,-0.58,-0.5539,-0.531,-0.5127,-0.5108,-0.5108,-0.5108,-0.5752,0.0,0.0,0.0,0.0,0.0,-0.7881,-0.8016,-0.7794,-0.8482,-0.8854,-0.8657,-0.8844,-0.8726,-0.8224,-0.8149,-0.754,-0.634,-0.6455,-0.6226,-0.5664,-0.581,-0.5905,-0.5956,-0.5956,-0.6013,-0.6108,-0.6108,-0.6166,-0.6251,-0.6149,-0.6074,-0.5996,-0.5701,-0.543,-0.5189,0.0,-0.486,-0.4684,-0.4633,-0.4582,-0.4548,-0.4602,0.0,0.0,-0.5159,-0.5299,-0.5268,0.0,0.0,-0.4136,-0.199,-0.0751,-0.0,-0.0,-0.0,-0.0,-0.0,-0.0,-0.0,-0.0,-0.0,-0.0,-0.0,-0.3004,-0.5972,-0.7717,-0.8086,-0.8194,-0.7985,-0.8153,0.0,0.0,0.0,0.0,-0.5845,-0.4254,-0.3302,-0.3256,-0.5355,-0.7517,-0.9717,-0.8754,-0.815,-0.815,-0.815,-0.815,-0.815,-0.8127,-0.8119,-0.8244,-0.9355,-0.9849,-0.9849,-0.9849,-0.9849,-0.9846,-0.9785,-0.964,-0.9744,-0.9602,-0.9507,-0.9445,-0.9351,-0.9225,-0.9093,-0.6582,-0.6371,-0.6165,-0.6034,-0.5726,0.0,0.0,0.0,0.0,0.0,0.0,0.0,0.0,0.0,0.0,0.0,0.0,-0.8084,-0.7764,-0.8282,-0.8594,-0.8442,-0.8723,-0.8702,-0.8233,-0.8281,-0.7833,-0.6778,-0.68,-0.6481,-0.5825,-0.592,-0.5894,-0.5725,-0.5725,-0.5806,-0.5949,-0.5949,-0.6006,-0.6084,-0.5932,-0.584,-0.5759,-0.5464,-0.5192,0.0,-0.4809,-0.4694,-0.4596,-0.4553,-0.4519,-0.4525,0.0,0.0,-0.4942,-0.52,-0.5387,-0.5448,0.0,-0.5499,-0.4518,-0.0951,-0.0,-0.0,-0.0,-0.0,-0.0,-0.0,-0.0,-0.0478,-0.1967,-0.1038,-0.0,-0.0,-0.452,-0.8024,-0.8177,-0.8204,-0.8211,-0.8218,-0.8255,-0.7811,0.0,0.0,0.0,-0.8746,-0.7337,-0.6558,-0.6691,-0.671,-0.7677,-0.9761,-0.9757,-0.9754,-0.9754,-0.9754,-0.9754,-0.9754,-0.9852,-0.9842,-0.9842,-0.9829,-0.9822,-0.9822,-0.9822,-0.9822,-0.9822,-0.9822,-0.9822,-0.9812,-0.972,-0.9652,-0.9598,-0.95,-0.9334,-0.9144,-0.6517,-0.6354,-0.6171,0.0,0.0,0.0,0.0,0.0,0.0,0.0,0.0,0.0,0.0,0.0,0.0,0.0,0.0,0.0,-0.793,-0.7741,0.0,-0.8397,-0.8358,-0.8464,-0.8758,-0.7966,-0.766,-0.7896,-0.7084,-0.6552,-0.6237,-0.6237,-0.6043,-0.5693,-0.5624,-0.5703,-0.5837,-0.5766,-0.5772,-0.5766,-0.5623,-0.5477,-0.5318,-0.503,-0.4823,-0.467,-0.458,-0.4525,0.0,0.0,0.0,0.0,0.0,0.0,0.0,0.0,0.0,-0.5852,-0.537,-0.524,-0.4315,-0.0876,-0.0,-0.0,-0.0,-0.0,-0.0097,-0.0191,-0.028,-0.1463,0.0,0.0,-0.0364,-0.0189,-0.4583,-0.815,-0.8473,-0.8194,-0.8191,0.0,0.0,0.0,0.0,0.0,0.0,-0.8546,0.0,-0.9562,-0.9821,-0.9834,-0.9852,-0.9852,-0.9832,-0.9822,-0.9822,-0.9822,-0.9822,-0.9822,-0.9822,-0.9822,-0.9822,-0.9822,-0.9822,-0.9822,-0.9822,-0.9822,-0.9822,-0.9822,-0.9822,-0.9822,-0.9822,-0.9737,-0.9618,-0.9618,-0.9432,-0.9174,0.0,0.0,0.0,0.0,0.0,0.0,0.0,0.0,0.0,0.0,0.0,0.0,0.0,0.0,0.0,0.0,0.0,0.0,-0.7223,-0.7637,0.0,0.0,-0.7625,-0.7842,-0.8143,-0.8371,-0.818,-0.7589,-0.7847,-0.7559,-0.6899,-0.6899,-0.6838,-0.6692,-0.6141,-0.5982,-0.6074,-0.5494,-0.5369,-0.546,-0.5308,-0.5223,-0.5169,-0.4989,-0.4823,-0.4684,-0.4646,0.0,0.0,0.0,0.0,0.0,0.0,0.0,-0.5538,0.0,0.0,-0.5295,-0.403,-0.2558,-0.1167,-0.0199,-0.0,-0.0,-0.0,-0.0,-0.0758,-0.3427,-0.4037,-0.3927,-0.3685,0.0,0.0,-0.3267,-0.5841,0.0,-0.8269,-0.8343,0.0,0.0,0.0,-0.8662,-0.8706,-0.8832,0.0,0.0,-0.9249,-0.933,-0.9679,-0.9734,-0.9829,-0.9829,-0.9825,-0.9822,-0.9822,-0.9822,-0.9822,-0.9822,-0.9822,-0.9822,-0.9822,-0.9822,-0.9822,-0.9822,-0.9822,-0.9822,-0.9822,-0.9822,-0.9822,-0.9822,-0.9822,-0.9798,-0.9768,-0.9768,-0.9649,-0.9476,0.0,0.0,0.0,0.0,0.0,0.0,0.0,0.0,0.0,0.0,0.0,0.0,0.0,0.0,0.0,0.0,0.0,0.0,0.0,-0.715,-0.7288,-0.7335,-0.7196,-0.7288,-0.7715,-0.8049,-0.8013,-0.7499,0.0,0.0,-0.6981,-0.6981,-0.6925,-0.6778,-0.6377,-0.6302,-0.6564,-0.5833,-0.5583,0.0,0.0,-0.4938,-0.4921,-0.4775,-0.4667,0.0,0.0,0.0,0.0,0.0,0.0,-0.5369,-0.5586,-0.5835,-0.5811,-0.5074,0.0,-0.5501,-0.2572,-0.088,-0.0,-0.0,-0.0,-0.0396,-0.2022,-0.234,-0.2695,-0.3752,-0.4718,0.0,-0.3934,0.0,0.0,0.0,0.0,0.0,-0.833,-0.8387,-0.8462,0.0,-0.8757,0.0,-0.9018,-0.9093,-0.9232,0.0,-0.9401,-0.9429,-0.9602,-0.9744,-0.9822,-0.9822,-0.9822,-0.9822,-0.9822,-0.9822,-0.9822,-0.9822,-0.9822,-0.9822,-0.9822,-0.9822,-0.9822,-0.9822,0.0,-0.9822,-0.9822,-0.9822,-0.9822,-0.9822,-0.9822,-0.9822,-0.9822,-0.9822,-0.973,-0.9588,0.0,0.0,0.0,0.0,0.0,0.0,0.0,0.0,0.0,0.0,0.0,0.0,0.0,0.0,0.0,0.0,0.0,0.0,0.0,0.0,-0.6619,-0.7478,-0.6895,-0.6828,-0.7379,-0.7473,-0.7513,0.0,0.0,0.0,0.0,0.0,0.0,0.0,-0.6488,-0.6704,-0.7007,-0.6195,-0.5864,-0.5813,-0.497,-0.4643,-0.4646,0.0,0.0,0.0,0.0,0.0,0.0,0.0,-0.5501,-0.5732,-0.6027,-0.6417,-0.6307,-0.4003,-0.4637,-0.5379,-0.1959,-0.0499,-0.0,-0.0,-0.0,-0.0968,-0.4566,-0.5351,-0.4787,-0.2973,0.0,-0.5243,-0.5145,0.0,-0.6523,-0.7191,0.0,-0.7868,-0.8515,-0.8391,-0.8459,-0.8889,-0.8954,-0.9025,-0.9167,-0.932,-0.9473,-0.9625,-0.9639,-0.9639,-0.9639,-0.9754,-0.9822,-0.9822,-0.9822,-0.9822,-0.9822,-0.9822,-0.9822,-0.9822,-0.9822,-0.9822,-0.9822,-0.9822,-0.9822,-0.9822,-0.9822,0.0,-0.9822,-0.9822,-0.9822,-0.9822,-0.9822,-0.9822,-0.9822,-0.9822,-0.973,-0.9588,0.0,0.0,0.0,0.0,0.0,0.0,0.0,0.0,0.0,0.0,0.0,0.0,0.0,0.0,0.0,0.0,0.0,0.0,0.0,0.0,0.0,-0.6055,-0.6208,-0.6431,-0.6734,0.0,0.0,0.0,0.0,0.0,0.0,0.0,0.0,0.0,0.0,-0.6761,-0.6795,-0.5594,-0.5176,-0.5198,-0.4542,-0.4395,-0.4556,0.0,0.0,0.0,0.0,0.0,0.0,0.0,-0.5782,-0.6196,-0.6491,-0.6905,-0.7156,-0.67,-0.4009,-0.2052,-0.5608,-0.3426,-0.0,-0.0,-0.0,-0.0948,-0.4561,-0.5024,0.0,0.0,0.0,-0.4957,-0.5061,-0.5597,0.0,-0.6723,0.0,0.0,0.0,0.0,-0.8567,0.0,0.0,0.0,0.0,0.0,0.0,0.0,0.0,-0.9785,-0.9785,-0.9805,-0.9822,-0.9822,-0.9822,-0.9822,-0.9822,-0.9822,-0.9822,-0.9822,-0.9822,-0.9822,-0.9822,-0.9822,-0.9822,-0.9822,-0.9822,0.0,-0.9822,-0.9822,-0.9822,-0.9822,-0.9822,-0.9822,-0.9822,-0.9822,-0.973,-0.9588,0.0,0.0,0.0,0.0,0.0,0.0,0.0,-0.5645,-0.5893,-0.6153,-0.647,-0.6602,-0.6493,-0.6843,-0.6978,0.0,0.0,0.0,0.0,0.0,0.0,0.0,0.0,0.0,0.0,0.0,0.0,0.0,0.0,0.0,0.0,0.0,0.0,0.0,0.0,0.0,0.0,0.0,0.0,0.0,0.0,0.0,0.0,0.0,0.0,0.0,0.0,0.0,0.0,0.0,-0.5589,-0.6115,-0.6651,-0.6976,-0.7327,-0.7621,-0.5045,-0.2356,-0.3507,-0.1917,-0.0,-0.0,-0.0,-0.046,-0.2218,0.0,0.0,0.0,0.0,-0.4856,-0.4813,0.0,0.0,0.0,0.0,0.0,0.0,0.0,0.0,0.0,0.0,0.0,0.0,0.0,0.0,0.0,0.0,-0.9822,-0.9822,-0.9822,-0.9822,-0.9822,-0.9822,-0.9822,-0.9822,-0.9822,-0.9822,-0.9822,-0.9822,-0.9822,-0.9822,-0.9822,-0.9822,-0.9822,-0.9822,0.0,-0.9822,-0.9822,-0.9822,-0.9822,-0.9822,-0.9822,-0.9822,-0.9822,-0.973,-0.9588,0.0,0.0,0.0,0.0,0.0,0.0,-0.5734,-0.5805,-0.6074,-0.6877,-0.6797,-0.65,-0.5957,-0.6299,-0.6447,0.0,0.0,0.0,0.0,0.0,0.0,0.0,0.0,0.0,0.0,0.0,0.0,0.0,0.0,0.0,0.0,0.0,0.0,0.0,0.0,0.0,0.0,0.0,0.0,0.0,0.0,0.0,0.0,0.0,0.0,0.0,0.0,0.0,0.0,0.0,-0.5318,-0.5732,-0.6424,-0.6827,-0.7126,-0.7633,-0.6362,-0.4098,-0.0895,-0.0,-0.0,-0.0,-0.0,-0.0,-0.0,-0.2019,0.0,0.0,-0.4834,-0.4765,-0.4555,0.0,0.0,0.0,0.0,0.0,0.0,0.0,0.0,0.0,0.0,0.0,0.0,0.0,0.0,0.0,0.0,0.0,-0.9822,-0.9822,-0.9822,-0.9822,-0.9822,-0.9822,-0.9822,-0.9822,-0.9822,-0.9822,-0.9822,-0.9822,-0.9822,-0.9822,-0.9822,-0.9822,-0.9822,0.0,0.0,-0.9822,-0.9822,-0.9822,-0.9822,-0.9822,-0.9819,-0.9788,-0.9683,-0.954,0.0,0.0,0.0,0.0,0.0,0.0,-0.5734,-0.5792,-0.5981,-0.6484,-0.6236,-0.596,-0.5906,-0.6474,-0.6738,0.0,0.0,0.0,0.0,0.0,0.0,0.0,0.0,0.0,0.0,0.0,0.0,0.0,0.0,0.0,0.0,0.0,0.0,0.0,0.0,0.0,0.0,0.0,0.0,0.0,0.0,0.0,0.0,0.0,0.0,0.0,0.0,0.0,0.0,0.0,0.0,-0.5084,-0.5562,-0.6186,-0.678,-0.7063,0.0,0.0,-0.1366,-0.0,-0.0,-0.0,-0.0,-0.0,-0.0,0.0,0.0,0.0,-0.4683,-0.4512,-0.4503,-0.4553,-0.4825,0.0,0.0,0.0,0.0,0.0,0.0,0.0,0.0,0.0,0.0,0.0,0.0,0.0,0.0,0.0,-0.9822,-0.9822,-0.9822,-0.9822,-0.9822,-0.9822,-0.9822,-0.9822,-0.9822,-0.9822,-0.9822,-0.9822,-0.9822,-0.9822,-0.9822,-0.9822,-0.9822,0.0,0.0,-0.9822,-0.9822,-0.9822,-0.9822,-0.9822,-0.9805,-0.9676,-0.9534,-0.9381,0.0,0.0,0.0,0.0,0.0,0.0,-0.5486,-0.541,-0.5546,-0.6178,-0.6059,-0.5913,-0.5913,-0.5939,-0.5904,-0.5773,0.0,0.0,0.0,0.0,0.0,0.0,0.0,0.0,0.0,0.0,0.0,0.0,0.0,0.0,0.0,0.0,0.0,0.0,0.0,0.0,0.0,0.0,0.0,0.0,0.0,0.0,0.0,0.0,0.0,0.0,0.0,0.0,0.0,0.0,0.0,0.0,-0.4992,-0.5376,0.0,0.0,-0.71,-0.7105,-0.5334,-0.2439,-0.0,-0.0,-0.0,-0.0,-0.0,0.0,0.0,-0.1687,-0.2595,-0.3088,-0.3128,-0.3394,-0.395,-0.5014,-0.5527,-0.6084,0.0,0.0,0.0,0.0,0.0,0.0,0.0,0.0,0.0,0.0,0.0,0.0,-0.9822,-0.9822,-0.9822,-0.9822,-0.9822,-0.9822,-0.9822,-0.9822,-0.9822,-0.9822,-0.9822,-0.9822,-0.9822,-0.9822,-0.9822,-0.9822,-0.9822,0.0,0.0,-0.9822,-0.9822,-0.9812,-0.9727,-0.9693,-0.9676,-0.9527,-0.9374,-0.9235,0.0,0.0,0.0,0.0,0.0,-0.482,-0.5223,-0.5015,-0.5101,-0.5845,-0.5649,-0.5517,-0.5725,-0.5336,-0.5057,-0.5137,-0.5058,0.0,0.0,0.0,0.0,0.0,0.0,0.0,0.0,0.0,0.0,0.0,-0.5234,0.0,0.0,0.0,0.0,0.0,0.0,0.0,0.0,0.0,0.0,0.0,0.0,0.0,0.0,0.0,0.0,0.0,0.0,0.0,0.0,0.0,0.0,0.0,0.0,0.0,0.0,0.0,-0.6548,-0.7027,-0.7605,-0.511,-0.2014,-0.0377,-0.0809,-0.159,0.0,0.0,-0.0,-0.0,-0.0837,-0.1563,-0.1563,-0.1876,-0.2718,-0.4517,-0.5176,-0.5691,-0.6434,0.0,0.0,0.0,0.0,0.0,0.0,0.0,0.0,0.0,0.0,0.0,-0.9822,-0.9822,-0.9822,-0.9822,-0.9822,-0.9822,-0.9822,-0.9822,-0.9822,-0.9822,-0.9822,-0.9822,-0.9822,-0.9822,-0.9822,-0.9822,-0.9822,0.0,0.0,-0.9822,-0.9795,-0.9747,-0.9649,-0.9581,-0.9523,-0.9371,-0.9245,-0.9147,0.0,0.0,0.0,0.0,0.0,0.0,-0.4978,-0.4657,-0.4704,-0.549,-0.4918,-0.4678,-0.5331,-0.4822,-0.4502,-0.4787,-0.4428,0.0,0.0,0.0,0.0,0.0,0.0,0.0,0.0,0.0,-0.478,-0.509,-0.5234,0.0,0.0,0.0,0.0,0.0,0.0,0.0,0.0,0.0,0.0,0.0,0.0,0.0,-0.4214,0.0,0.0,0.0,0.0,0.0,0.0,0.0,0.0,0.0,0.0,-0.4572,0.0,0.0,-0.5925,-0.6386,-0.6949,-0.7499,-0.6676,-0.1355,-0.2699,-0.5173,0.0,-0.2151,-0.0,-0.0,-0.0,-0.0,-0.0,-0.0,-0.1096,-0.4382,-0.5205,-0.5712,-0.6593,0.0,0.0,0.0,0.0,0.0,0.0,0.0,0.0,0.0,0.0,0.0,-0.9822,-0.9822,-0.9822,-0.9822,-0.9822,-0.9822,-0.9822,-0.9822,-0.9822,-0.9822,-0.9822,-0.9822,-0.9822,-0.9822,-0.9822,0.0,0.0,0.0,0.0,-0.9822,-0.9737,-0.9612,-0.9608,-0.9517,-0.9364,-0.9211,-0.9154,-0.9133,0.0,0.0,0.0,0.0,0.0,0.0,-0.4258,-0.3981,-0.397,-0.4441,-0.4273,-0.4266,-0.4664,-0.4166,-0.3981,-0.4489,-0.4324,0.0,0.0,0.0,0.0,0.0,0.0,0.0,0.0,0.0,-0.3953,-0.3735,-0.3995,-0.4144,0.0,0.0,0.0,0.0,0.0,0.0,0.0,0.0,0.0,0.0,0.0,-0.3955,-0.4046,0.0,0.0,0.0,0.0,0.0,0.0,0.0,0.0,0.0,0.0,0.0,0.0,-0.4887,-0.5372,0.0,-0.4885,-0.4954,-0.4608,-0.2091,-0.2393,-0.3509,-0.454,-0.3874,-0.2511,-0.0452,-0.0,-0.0,-0.0,-0.0,-0.0351,-0.14,-0.3939,0.0,0.0,0.0,0.0,0.0,0.0,0.0,0.0,0.0,0.0,0.0,0.0,0.0,-0.9815,-0.973,-0.972,-0.9819,-0.9822,-0.9822,-0.9822,-0.9822,-0.9822,-0.9822,-0.9822,-0.9822,-0.9822,-0.9822,-0.9822,0.0,0.0,0.0,0.0,-0.9676,-0.9588,-0.9442,-0.934,-0.9266,-0.9208,-0.9059,-0.9008,-0.8998,0.0,0.0,0.0,0.0,0.0,0.0,-0.3786,-0.352,-0.3415,-0.3638,-0.3566,-0.3625,-0.3892,-0.3483,-0.3382,-0.3873,-0.3728,0.0,0.0,0.0,0.0,0.0,0.0,0.0,-0.3068,-0.3313,-0.3364,-0.3165,-0.3459,-0.3609,-0.3659,-0.3721,-0.3687,0.0,0.0,0.0,0.0,0.0,0.0,0.0,-0.3748,-0.3816,-0.3866,0.0,0.0,0.0,0.0,0.0,0.0,0.0,0.0,0.0,0.0,0.0,0.0,0.0,-0.483,-0.5039,0.0,-0.4147,-0.3964,-0.3242,-0.313,-0.3466,-0.451,-0.4722,-0.4097,-0.2085,-0.0784,-0.0,-0.0,-0.0,-0.0,-0.0,-0.3535,0.0,0.0,0.0,0.0,0.0,0.0,0.0,0.0,0.0,0.0,0.0,0.0,0.0,-0.9649,-0.9571,-0.9564,-0.9652,-0.9656,-0.9656,-0.9656,-0.971,-0.9741,-0.9741,-0.9795,-0.9822,-0.9822,-0.9822,-0.9822,0.0,0.0,0.0,0.0,-0.9547,-0.9435,-0.9286,-0.9191,-0.912,-0.9062,-0.8971,-0.894,-0.894,0.0,0.0,0.0,0.0,0.0,0.0,0.0,-0.3266,-0.3089,-0.3089,-0.2875,-0.2802,-0.3033,-0.282,-0.2784,-0.3038,-0.2824,0.0,0.0,0.0,0.0,0.0,0.0,0.0,-0.2712,-0.2842,-0.3021,-0.3293,-0.351,-0.3663,-0.3795,-0.3948,-0.387,-0.3602,-0.3734,0.0,0.0,0.0,0.0,0.0,-0.3666,-0.3697,0.0,0.0,0.0,0.0,0.0,0.0,0.0,0.0,0.0,0.0,0.0,0.0,0.0,0.0,0.0,0.0,0.0,-0.4751,-0.4511,-0.4502,-0.4613,-0.4724,-0.4538,-0.469,0.0,-0.4541,-0.2076,-0.0,-0.0,-0.0,-0.0,-0.0,-0.3486,0.0,0.0,0.0,0.0,0.0,0.0,0.0,0.0,0.0,0.0,0.0,0.0,0.0,-0.9381,-0.9371,-0.9364,-0.9364,-0.9354,-0.9361,-0.9381,-0.952,-0.9595,-0.9595,-0.9727,-0.9788,-0.9788,-0.9788,-0.9788,0.0,0.0,0.0,0.0,-0.9422,-0.9276,-0.9137,-0.9137,-0.9055,-0.894,-0.894,-0.894,-0.894,0.0,0.0,0.0,0.0,0.0,0.0,0.0,0.0,0.0,0.0,-0.2875,-0.2718,-0.2791,-0.2509,-0.2456,0.0,0.0,0.0,0.0,0.0,0.0,0.0,0.0,0.0,-0.2712,-0.2937,-0.3065,-0.3135,-0.3554,-0.3758,-0.3795,-0.3948,-0.3921,-0.3744,-0.3778,-0.3714,0.0,0.0,0.0,0.0,-0.3337,-0.3392,0.0,0.0,0.0,0.0,-0.3697,-0.3675,0.0,0.0,0.0,0.0,0.0,0.0,0.0,0.0,-0.4133,-0.4277,-0.4366,0.0,-0.4636,-0.4526,-0.4536,-0.4558,0.0,-0.4575,-0.4555,0.0,0.0,-0.0,-0.0,-0.0,-0.0,-0.0,0.0,0.0,0.0,0.0,0.0,0.0,0.0,0.0,0.0,0.0,0.0,0.0,0.0,-0.9259,-0.9374,-0.9269,-0.9208,-0.9208,-0.91,-0.915,-0.9381,-0.9415,-0.9435,-0.9435,-0.9469,-0.9486,-0.9486,-0.9486,-0.9486,0.0,0.0,0.0,-0.9259,-0.9222,-0.912,-0.8988,-0.8988,-0.8967,-0.894,-0.894,-0.894,-0.894,0.0,0.0,0.0,0.0,0.0,0.0,0.0,0.0,0.0,0.0,-0.2546,-0.2285,-0.2285,-0.2128,-0.2088,0.0,0.0,0.0,0.0,0.0,0.0,0.0,0.0,-0.2712,-0.2712,-0.2907,-0.3051,-0.3185,-0.3541,-0.3765,-0.3897,-0.3982,-0.3938,-0.3788,-0.3724,-0.3653,0.0,0.0,0.0,-0.341,-0.2755,0.0,0.0,0.0,0.0,0.0,-0.2776,-0.277,0.0,-0.2785,-0.3374,-0.3989,0.0,0.0,0.0,0.0,-0.3834,-0.3972,-0.4157,-0.4463,-0.467,-0.4585,-0.4572,-0.4405,-0.3602,0.0,0.0,0.0,0.0,0.0,-0.0,0.0,0.0,0.0,0.0,0.0,0.0,0.0,0.0,0.0,0.0,0.0,0.0,0.0,0.0,0.0,0.0,-0.9093,-0.9174,-0.91,-0.9055,-0.9055,-0.8981,-0.9015,-0.9174,-0.9242,-0.9276,-0.9276,-0.9347,-0.9381,-0.9381,-0.9381,-0.9381,0.0,0.0,0.0,-0.9147,-0.9083,-0.9008,-0.894,-0.894,-0.894,-0.894,-0.894,-0.894,-0.894,0.0,0.0,0.0,0.0,0.0,0.0,0.0,0.0,0.0,0.0,0.0,0.0,0.0,0.0,0.0,0.0,0.0,0.0,0.0,0.0,0.0,0.0,-0.2702,-0.2726,-0.2717,-0.2842,-0.3015,-0.3306,-0.3527,-0.3751,-0.4022,-0.4066,-0.3999,-0.3826,-0.3656,-0.3585,0.0,0.0,0.0,-0.2726,-0.185,0.0,0.0,0.0,0.0,0.0,0.0,0.0,0.0,-0.1534,-0.2217,-0.2962,-0.2526,0.0,0.0,0.0,0.0,0.0,-0.4013,-0.4356,-0.4691,-0.4663,-0.4677,-0.4281,-0.2857,0.0,0.0,0.0,0.0,0.0,0.0,0.0,0.0,0.0,0.0,0.0,0.0,0.0,0.0,0.0,0.0,0.0,0.0,0.0,0.0,0.0,0.0,-0.894,-0.894,-0.894,-0.894,-0.894,-0.894,-0.894,-0.894,-0.9059,-0.912,-0.9123,-0.9252,-0.9313,-0.9313,-0.9313,-0.9313,-0.9306,0.0,0.0,-0.911,-0.8988,-0.894,-0.894,-0.894,-0.894,-0.894,-0.894,-0.894,-0.894,0.0,0.0,0.0,0.0,0.0,0.0,0.0,0.0,0.0,0.0,0.0,0.0,0.0,0.0,0.0,0.0,0.0,0.0,0.0,0.0,0.0,-0.251,-0.2644,-0.2744,-0.2869,-0.2896,-0.3015,-0.3306,-0.3626,-0.3849,-0.4026,-0.4287,-0.4267,-0.3953,-0.3721,-0.3602,-0.3609,-0.3609,-0.2417,-0.0489,0.0,0.0,0.0,0.0,0.0,0.0,0.0,0.0,0.0,-0.027,-0.0409,-0.0868,-0.2776,0.0,0.0,0.0,0.0,0.0,-0.3663,-0.4095,-0.451,-0.4545,-0.4505,-0.4461,-0.4226,0.0,0.0,0.0,0.0,0.0,0.0,0.0,0.0,0.0,0.0,0.0,0.0,0.0,0.0,0.0,0.0,0.0,0.0,0.0,0.0,0.0,0.0,-0.894,-0.894,-0.894,-0.894,-0.894,-0.894,-0.894,-0.894,-0.896,-0.8971,-0.8974,-0.8994,-0.9005,-0.9005,-0.9005,-0.9005,-0.9005,0.0,-0.8971,-0.8967,-0.8947,-0.894,-0.894,-0.894,-0.894,-0.894,-0.894,-0.894,-0.894,0.0,0.0,0.0,0.0,0.0,0.0,0.0,0.0,0.0,0.0,0.0,0.0,0.0,0.0,0.0,0.0,0.0,0.0,0.0,0.0,-0.2303,-0.2506,-0.2643,-0.2765,-0.2907,-0.2985,-0.3096,-0.3307,-0.3556,-0.3775,-0.4004,-0.3472,-0.3124,-0.2794,-0.2685,-0.2638,-0.2686,-0.3311,-0.2959,-0.1842,0.0,0.0,0.0,0.0,0.0,0.0,0.0,0.0,0.0,0.0,-0.0,-0.0185,-0.1311,0.0,0.0,0.0,0.0,0.0,-0.2789,-0.3284,-0.4113,-0.4425,-0.3999,-0.3799,-0.4761,0.0,0.0,0.0,0.0,0.0,0.0,0.0,0.0,0.0,0.0,0.0,0.0,0.0,0.0,0.0,0.0,0.0,0.0,0.0,0.0,0.0,0.0,0.0,-0.894,-0.894,-0.894,-0.894,-0.894,-0.894,-0.894,-0.894,-0.894,-0.894,-0.894,-0.894,-0.894,-0.894,-0.894,-0.894,0.0,-0.894,-0.894,-0.894,-0.894,-0.894,-0.894,-0.894,-0.894,-0.894,-0.894,-0.894,0.0,0.0,0.0,0.0,0.0,0.0,0.0,0.0,0.0,0.0,0.0,0.0,0.0,0.0,0.0,0.0,0.0,0.0,0.0,-0.2043,-0.2261,-0.2431,-0.2663,-0.2871,-0.2978,-0.3046,-0.3207,-0.3372,-0.3187,-0.3406,-0.4072,-0.3171,-0.2244,-0.1358,-0.1371,-0.1359,-0.1442,-0.2347,-0.2756,-0.2576,0.0,0.0,0.0,0.0,0.0,0.0,0.0,0.0,0.0,0.0,0.0,0.0,0.0,0.0,0.0,-0.0,-0.13,-0.2616,-0.1997,-0.2665,-0.377,-0.4358,-0.3252,-0.2427,-0.3825,0.0,0.0,0.0,0.0,0.0,0.0,0.0,0.0,0.0,0.0,0.0,0.0,0.0,0.0,0.0,0.0,0.0,0.0,0.0,0.0,0.0,0.0,0.0,-0.8937,-0.894,-0.894,-0.894,-0.894,-0.894,-0.894,-0.894,-0.894,-0.894,-0.894,-0.894,-0.894,-0.894,-0.894,-0.894,-0.894,-0.894,-0.894,-0.894,-0.894,-0.894,-0.894,-0.894,-0.894,-0.894,-0.894,-0.894,0.0,0.0,0.0,0.0,0.0,0.0,0.0,0.0,0.0,0.0,0.0,0.0,0.0,0.0,0.0,0.0,0.0,0.0,0.0,-0.1995,-0.2134,-0.2213,-0.276,-0.3131,-0.3286,-0.3143,-0.3243,-0.3567,-0.218,-0.2481,-0.4448,-0.4369,-0.285,-0.0134,-0.0123,-0.0118,-0.0119,-0.0207,-0.0253,-0.0255,-0.0088,0.0,0.0,0.0,0.0,0.0,0.0,0.0,0.0,0.0,0.0,0.0,0.0,0.0,-0.0,-0.0,-0.0135,-0.0508,-0.1497,-0.2666,-0.3739,-0.4366,-0.2305,0.0,-0.0331,-0.033,0.0,0.0,0.0,0.0,0.0,0.0,0.0,0.0,0.0,0.0,0.0,0.0,0.0,0.0,0.0,0.0,0.0,0.0,0.0,0.0,0.0,0.0,-0.893,-0.894,-0.894,-0.894,-0.894,-0.894,-0.894,-0.894,-0.894,-0.894,-0.894,-0.894,-0.894,-0.894,-0.894,-0.894,-0.894,-0.894,-0.894,-0.894,-0.894,-0.894,-0.894,-0.894,-0.894,-0.894,-0.894,-0.894,0.0,0.0,0.0,0.0,0.0,0.0,0.0,0.0,0.0,0.0,0.0,0.0,0.0,0.0,0.0,0.0,0.0,0.0,0.0,-0.1513,-0.1361,-0.1389,-0.2315,-0.3046,-0.3479,-0.2491,-0.2505,-0.3592,-0.1511,-0.0884,-0.1709,-0.1706,-0.1075,-0.0,-0.0,-0.0,-0.0,-0.0,-0.0,-0.0,-0.0,-0.0,0.0,0.0,0.0,0.0,0.0,0.0,0.0,0.0,-0.0,-0.0,-0.0,-0.0,-0.0,-0.0,-0.0,-0.0092,-0.0554,-0.1013,-0.1403,-0.1638,0.0,0.0,0.0,0.0,0.0,0.0,0.0,0.0,0.0,0.0,0.0,0.0,0.0,0.0,0.0,0.0,0.0,0.0,0.0,0.0,0.0,0.0,0.0,0.0,0.0,0.0,-0.8652,-0.8655,-0.8655,-0.8655,-0.8655,-0.8699,-0.8798,-0.8798,-0.8845,-0.894,-0.894,-0.894,-0.894,-0.894,-0.894,-0.894,-0.894,-0.894,-0.894,-0.894,-0.894,-0.894,-0.894,-0.894,-0.894,-0.894,-0.894,-0.894,0.0,0.0,0.0,0.0,0.0,0.0,0.0,0.0,0.0,0.0,0.0,0.0,0.0,0.0,0.0,0.0,0.0,0.0,-0.121,-0.1208,-0.1104,-0.0922,-0.2055,-0.2631,-0.2477,-0.1415,-0.1395,-0.2441,-0.0827,-0.0,-0.0,-0.0,-0.0,-0.0,-0.0,-0.0,-0.0,-0.0,-0.0,-0.0,-0.0,-0.0,0.0,0.0,0.0,0.0,0.0,0.0,0.0,0.0,-0.0,-0.0,-0.0,-0.0,-0.0,-0.0,-0.0,-0.0,-0.0,-0.0,-0.0,0.0,0.0,0.0,0.0,0.0,0.0,0.0,0.0,0.0,0.0,0.0,0.0,0.0,0.0,0.0,0.0,0.0,0.0,0.0,0.0,0.0,0.0,0.0,0.0,0.0,0.0,0.0,0.0,-0.8482,-0.8482,-0.8482,-0.8482,-0.8533,-0.8635,-0.8638,-0.8693,-0.8794,-0.8794,-0.8845,-0.894,-0.894,-0.894,-0.894,-0.894,-0.894,-0.894,-0.894,-0.894,-0.894,-0.894,-0.894,-0.894,-0.894,-0.894,-0.894,0.0,0.0,0.0,0.0,0.0,0.0,0.0,0.0,0.0,0.0,0.0,0.0,0.0,0.0,0.0,0.0,0.0,0.0,-0.0,-0.1113,-0.1517,-0.0913,-0.2035,-0.182,-0.0034,-0.0,-0.0,-0.0,-0.0,-0.0,-0.0,-0.0,-0.0,-0.0,-0.0,-0.0,-0.0,-0.0,-0.0,-0.0,-0.0,-0.0,-0.0,0.0,0.0,0.0,0.0,0.0,0.0,0.0,-0.0,-0.0,-0.0,-0.0,-0.0,-0.0,-0.0,-0.0,-0.0,-0.0,0.0,0.0,0.0,0.0,0.0,0.0,0.0,0.0,0.0,0.0,0.0,0.0,0.0,0.0,0.0,0.0,0.0,0.0,0.0,0.0,0.0,0.0,0.0,0.0,0.0,0.0,0.0,0.0,0.0,-0.8479,-0.8479,-0.8479,-0.8479,-0.8479,-0.8479,-0.8479,-0.8479,-0.8482,-0.8482,-0.8638,-0.8933,-0.8937,-0.8937,-0.8937,-0.894,-0.894,-0.894,-0.894,-0.894,-0.894,-0.894,-0.894,-0.894,-0.894,-0.894,-0.894,0.0,0.0,0.0,0.0,0.0,0.0,0.0,0.0,0.0,0.0,0.0,0.0,0.0,0.0,0.0,0.0,0.0,0.0,-0.0,-0.0344,-0.0454,-0.0278,-0.062,-0.0547,-0.0,-0.0,-0.0,-0.0,-0.0,-0.0,-0.0,-0.0,-0.0,-0.0,-0.0,-0.0,-0.0,-0.0,-0.0,-0.0,-0.0,-0.0,-0.0,0.0,0.0,0.0,0.0,0.0,0.0,0.0,0.0,0.0,-0.0,-0.0,-0.0,-0.0,-0.0,-0.0,-0.0,-0.0,0.0,0.0,0.0,0.0,0.0,0.0,0.0,0.0,0.0,0.0,0.0,0.0,0.0,0.0,0.0,0.0,0.0,0.0,0.0,0.0,0.0,0.0,0.0,0.0,0.0,0.0,0.0,0.0,0.0,-0.817,-0.817,-0.817,-0.817,-0.8225,-0.8333,-0.8333,-0.8384,-0.8482,-0.8482,-0.853,-0.8621,-0.873,-0.8777,-0.8784,-0.8893,-0.894,-0.894,-0.894,-0.894,-0.894,-0.894,-0.894,-0.894,-0.894,-0.894,-0.894,0.0,0.0,0.0,0.0,0.0,0.0,0.0,0.0,0.0,0.0,0.0,-0.1708,0.0,0.0,0.0,0.0,0.0,0.0,0.0,-0.0,-0.0,-0.0,-0.0,-0.0,-0.0,-0.0,-0.0,-0.0,-0.0,-0.0,-0.0,-0.0,-0.0,-0.0,-0.0,-0.0,-0.0,-0.0,-0.0,-0.0,-0.0,-0.0,-0.0,0.0,0.0,0.0,0.0,0.0,0.0,0.0,0.0,0.0,-0.0,-0.0,-0.0,-0.0,-0.0,-0.0,-0.0,0.0,0.0,0.0,0.0,0.0,0.0,0.0,0.0,0.0,0.0,0.0,0.0,0.0,0.0,0.0,0.0,0.0,0.0,0.0,0.0,0.0,0.0,0.0,0.0,0.0,0.0,0.0,0.0,0.0,0.0,-0.8038,-0.8038,-0.8038,-0.8038,-0.8082,-0.8177,-0.8177,-0.8221,-0.8306,-0.8306,-0.8306,-0.8313,-0.8523,-0.8618,-0.8625,-0.8716,-0.8757,-0.876,-0.8821,-0.8849,-0.8855,-0.8913,-0.894,-0.894,-0.894,-0.894,-0.894,0.0,0.0,-0.2437,-0.1891,0.0,0.0,0.0,0.0,0.0,0.0,-0.1791,-0.1775,0.0,0.0,0.0,-0.0269,-0.0067,-0.0,0.0,-0.0,-0.0,-0.0,-0.0,-0.0,-0.0,-0.0,-0.0,-0.0,-0.0,-0.0,-0.0,-0.0,-0.0,-0.0,-0.0,-0.0,-0.0,-0.0,-0.0,-0.0,-0.0,-0.0,-0.0,-0.0,0.0,0.0,0.0,0.0,0.0,0.0,0.0,0.0,-0.0,-0.0,-0.0,-0.0,-0.0,-0.0,-0.0,0.0,0.0,0.0,0.0,0.0,0.0,0.0,0.0,0.0,0.0,0.0,0.0,0.0,0.0,0.0,0.0,0.0,0.0,0.0,0.0,0.0,0.0,0.0,0.0,0.0,0.0,0.0,0.0,0.0,0.0,-0.8038,-0.8038,-0.8038,-0.8038,-0.8038,-0.8038,-0.8038,-0.8038,-0.8038,-0.8038,-0.8038,-0.8048,-0.8333,-0.8469,-0.8482,-0.8482,-0.8482,-0.8492,-0.8632,-0.8689,-0.8703,-0.8842,-0.8896,-0.8896,-0.8896,-0.8906,-0.8916,0.0,0.0,-0.1957,-0.1825,0.0,0.0,0.0,0.0,-0.1806,-0.1794,-0.1798,-0.1616,-0.1141,-0.1524,0.0,-0.1435,-0.0539,-0.0,-0.0,-0.0,-0.0,-0.0,-0.0,-0.0,-0.0,-0.0,-0.0,-0.0,-0.0,-0.0,-0.0,-0.0,-0.0,-0.0,-0.0,-0.0,-0.0,-0.0,-0.0,-0.0,-0.0,-0.0,-0.0,-0.0,-0.0,0.0,0.0,0.0,0.0,0.0,0.0,0.0,-0.0,-0.0,-0.0,-0.0,-0.0,-0.0,0.0,0.0,0.0,0.0,0.0,0.0,0.0,0.0,0.0,0.0,0.0,0.0,0.0,0.0,0.0,0.0,0.0,0.0,0.0,0.0,0.0,0.0,0.0,0.0,0.0,0.0,0.0,0.0,0.0,0.0,-0.8038,-0.8038,-0.8038,-0.8038,-0.8038,-0.8038,-0.8038,-0.8038,-0.8038,0.0,-0.8038,-0.8038,-0.8045,-0.8231,-0.8377,-0.8482,-0.8482,-0.8482,-0.8482,-0.8516,-0.853,-0.8533,-0.8567,-0.8581,-0.8581,-0.8581,-0.8655,-0.876,0.0,0.0,0.0,0.0,0.0,0.0,0.0,0.0,-0.1806,-0.1791,-0.1544,-0.1252,-0.0936,-0.0918,0.0,0.0,-0.0359,-0.0,-0.0,-0.0,-0.0,-0.0,-0.0,-0.0,-0.0,-0.0,-0.0,-0.0,-0.0,-0.0,-0.0,-0.0,-0.0,-0.0,-0.0,-0.0,-0.0,-0.0,-0.0,-0.0,-0.0,-0.0,-0.0,-0.0,-0.0,-0.0,-0.0,0.0,0.0,0.0,0.0,0.0,0.0,0.0,-0.0,-0.0,-0.0,-0.0,0.0,0.0,0.0,0.0,0.0,0.0,0.0,0.0,0.0,0.0,0.0,0.0,0.0,0.0,0.0,0.0,0.0,0.0,0.0,0.0,0.0,0.0,0.0,0.0,0.0,0.0,0.0,0.0,0.0,-0.8038,-0.8038,-0.8038,-0.8038,-0.8038,-0.8038,-0.8038,-0.8038,-0.8038,-0.8038,-0.8038,-0.8038,-0.8038,-0.8041,-0.8123,-0.8201,-0.8269,-0.8269,-0.8269,-0.8275,-0.835,-0.8381,-0.8387,-0.8455,-0.8482,-0.8482,-0.8482,-0.8533,-0.8601,0.0,0.0,0.0,0.0,0.0,0.0,0.0,0.0,0.0,-0.1806,-0.1361,-0.0983,-0.0758,-0.0291,-0.0,0.0,0.0,0.0,-0.0,-0.0,-0.0,-0.0,-0.0,-0.0,-0.0,-0.0,-0.0,-0.0,-0.0,-0.0,-0.0,-0.0,-0.0,-0.0,-0.0,-0.0,-0.0,-0.0,-0.0,-0.0,-0.0,-0.0,-0.0,-0.0,-0.0,-0.0,-0.0,-0.0,-0.0,-0.0,0.0,0.0,0.0,0.0,-0.0076,-0.0511,-0.0619,-0.0644,0.0,0.0,0.0,0.0,0.0,0.0,0.0,0.0,0.0,0.0,0.0,0.0,0.0,0.0,0.0,0.0,0.0,0.0,0.0,0.0,0.0,0.0,0.0,0.0,0.0,0.0,0.0,0.0,0.0,-0.8038,-0.8038,-0.8038,-0.8038,-0.8038,-0.8038,-0.8038,-0.8038,-0.8038,-0.8038,-0.8038,-0.8038,-0.8038,-0.8038,-0.8038,-0.8038,-0.8038,-0.8038,-0.8038,-0.8052,-0.8177,-0.8231,-0.8241,-0.836,-0.8404,-0.8404,-0.8404,-0.8421,-0.8445,0.0,0.0,0.0,0.0,0.0,0.0,0.0,0.0,0.0,0.0,-0.1728,-0.1274,-0.0245,-0.0045,-0.0,-0.0,-0.0,-0.0,-0.0,0.0,0.0,-0.0,-0.0,-0.0,-0.0,-0.0,-0.0,-0.0,-0.0,-0.0,0.0,0.0,-0.0,-0.0,-0.0,-0.0,-0.0,-0.0,-0.0,-0.0,-0.0,-0.0,-0.0,-0.0,-0.0,-0.0,-0.0,-0.0,-0.0,-0.0,-0.0,0.0,0.0,0.0,0.0,-0.2523,-0.3112,0.0,0.0,0.0,0.0,0.0,0.0,0.0,0.0,0.0,0.0,0.0,0.0,0.0,0.0,0.0,0.0,0.0,0.0,0.0,0.0,0.0,0.0,0.0,0.0,0.0,0.0,0.0,0.0,0.0,-0.8038,-0.8038,-0.8038,-0.8038,-0.8038,-0.8038,-0.8038,-0.8038,-0.8038,-0.8038,-0.8038,-0.8038,-0.8038,-0.8038,-0.8038,-0.8038,-0.8038,-0.8038,-0.8038,-0.8038,-0.8041,-0.8062,-0.8069,-0.8072,-0.8092,-0.8099,-0.8099,-0.8099,-0.8184,-0.8299,0.0,0.0,0.0,0.0,0.0,0.0,0.0,0.0,0.0,0.0,0.0,-0.148,-0.0601,-0.0201,-0.0,-0.0,-0.0,-0.0,-0.0,-0.0,0.0,-0.0,-0.0,-0.0,-0.0,-0.0,-0.0,-0.0,-0.0,0.0,0.0,-0.0,-0.0,0.0,-0.0,-0.0,-0.0,-0.0,-0.0,-0.0,-0.0,-0.0,-0.0,-0.0,-0.0,-0.0,-0.0,-0.0,-0.0,-0.0,-0.0,-0.0,-0.0,0.0,0.0,0.0,0.0,0.0,0.0,0.0,0.0,0.0,0.0,0.0,0.0,0.0,0.0,0.0,0.0,0.0,0.0,0.0,0.0,0.0,0.0,0.0,0.0,0.0,0.0,0.0,0.0,0.0,0.0,0.0,0.0,0.0,-0.8038,-0.8038,-0.8038,-0.8038,-0.8038,-0.8038,-0.8038,-0.8038,-0.8038,-0.8038,-0.8038,-0.8038,-0.8038,-0.8038,-0.8038,-0.8038,-0.8038,-0.8038,-0.8038,-0.8038,-0.8038,-0.8038,-0.8038,-0.8038,-0.8038,-0.8038,-0.8038,-0.8038,-0.8082,-0.814,0.0,0.0,0.0,0.0,0.0,0.0,0.0,0.0,0.0,0.0,0.0,-0.1569,-0.0961,0.0,0.0,0.0,-0.0,-0.0,-0.0,0.0,0.0,0.0,-0.0,-0.0,-0.0,-0.0,-0.0,-0.0,0.0,0.0,-0.0,-0.0,-0.0,0.0,-0.0,-0.0,0.0,0.0,-0.0,-0.0,-0.0,-0.0,-0.0,-0.0,-0.0,-0.0,-0.0,-0.0,0.0,0.0,0.0,0.0,0.0,0.0,0.0,0.0,0.0,0.0,0.0,0.0,0.0,0.0,0.0,0.0,0.0,0.0,0.0,0.0,0.0,0.0,0.0,0.0,0.0,0.0,0.0,0.0,0.0,0.0,0.0,0.0,0.0,0.0,0.0,0.0,0.0,0.0,-0.8038,-0.8038,-0.8038,-0.8038,-0.8038,-0.8038,-0.8038,-0.8038,-0.8038,-0.8038,-0.8038,-0.8038,-0.8038,-0.8038,-0.8038,-0.8038,-0.8038,-0.8038,-0.8038,-0.8038,-0.8038,-0.8038,-0.8038,-0.8038,-0.8038,-0.8038,-0.8038,-0.8038,-0.8038,-0.8038,0.0,0.0,0.0,0.0,0.0,0.0,0.0,0.0,0.0,0.0,0.0,-0.1569,-0.0961,-0.0356,-0.0,-0.0,-0.0,-0.0,-0.0,0.0,0.0,0.0,0.0,0.0,-0.0,-0.0,-0.0,-0.0,0.0,0.0,-0.0,-0.0,-0.0,-0.0,-0.0,-0.0,-0.0,0.0,0.0,-0.0,-0.0,-0.0,-0.0,-0.0,-0.0,-0.0,-0.0,0.0,0.0,0.0,0.0,0.0,0.0,0.0,0.0,0.0,0.0,0.0,0.0,0.0,0.0,0.0,0.0,0.0,0.0,0.0,0.0,0.0,0.0,0.0,0.0,0.0,0.0,0.0,0.0,0.0,0.0,0.0,0.0,0.0,0.0,0.0,0.0,0.0,0.0,0.0,-0.8038,-0.8038,-0.8038,-0.8038,-0.8038,-0.8038,-0.8038,-0.8038,-0.8038,-0.8038,-0.8038,-0.8038,-0.8038,-0.8038,-0.8038,-0.8038,-0.8038,-0.8038,-0.8038,-0.8038,-0.8038,-0.8038,-0.8038,-0.8038,-0.8038,-0.8038,-0.8038,-0.8038,-0.8038,-0.8038,0.0,0.0,0.0,0.0,0.0,0.0,0.0,0.0,0.0,0.0,0.0,0.0,0.0,-0.0601,-0.0,-0.0,-0.0,0.0,0.0,0.0,0.0,0.0,0.0,0.0,0.0,-0.0,-0.0,0.0,0.0,-0.0,-0.0,-0.0,-0.0,-0.0,-0.0,-0.0,-0.0,-0.0,0.0,-0.0,-0.0,-0.0,-0.0,-0.0,-0.0,-0.0241,0.0,0.0,0.0,0.0,0.0,0.0,-0.2487,-0.2703,-0.2709,-0.2841,0.0,0.0,0.0,0.0,0.0,0.0,0.0,0.0,0.0,0.0,0.0,0.0,0.0,0.0,0.0,0.0,0.0,0.0,0.0,0.0,0.0,0.0,0.0,0.0,0.0,0.0,0.0,0.0,0.0,0.0,0.0,-0.8038,-0.8038,-0.8038,-0.8038,-0.8038,-0.8038,-0.8038,-0.8038,-0.8038,-0.8038,-0.8038,-0.8038,-0.8038,-0.8038,-0.8038,-0.8038,-0.8038,-0.8038,-0.8038,-0.8038,-0.8038,-0.8038,-0.8038,-0.8038,-0.8038,-0.8038,-0.8038,-0.8038,-0.8038,0.0,0.0,0.0,-0.1803,0.0,-0.1803,-0.1803,-0.1803,-0.1803,-0.1803,0.0,0.0,0.0,0.0,-0.0446,-0.0044,-0.0,-0.0,-0.0,-0.0382,0.0,0.0,0.0,0.0,0.0,-0.0,-0.0,-0.0,-0.0,0.0,0.0,-0.0,-0.0,-0.0,-0.0,-0.0,0.0,0.0,0.0,-0.0,0.0,-0.0,-0.0,0.0,-0.0,0.0,0.0,0.0,0.0,0.0,0.0,0.0,0.0,-0.2567,-0.281,-0.2879,-0.3008,0.0,0.0,0.0,0.0,0.0,0.0,0.0,0.0,0.0,0.0,0.0,0.0,0.0,0.0,0.0,0.0,0.0,0.0,0.0,0.0,0.0,0.0,0.0,0.0,0.0,0.0,0.0,0.0,0.0,0.0,0.0,-0.7963,-0.8011,-0.8038,-0.8038,-0.8038,-0.8038,-0.8038,-0.8038,-0.8038,-0.8038,-0.8038,-0.8038,-0.8038,-0.8038,-0.8038,-0.8038,-0.8038,-0.8038,-0.8038,-0.8038,-0.8038,-0.8038,-0.8038,-0.8038,-0.8038,-0.8038,-0.8038,-0.8038,-0.1869,-0.1803,-0.1803,-0.1803,-0.1803,-0.1803,-0.1803,-0.1803,-0.1806,-0.1809,0.0,0.0,0.0,0.0,0.0,-0.0156,-0.0045,-0.0022,-0.0022,-0.1121,0.0,0.0,0.0,0.0,-0.0,-0.0,-0.0,-0.0,-0.0,-0.0,-0.0,-0.0,-0.0,-0.0,-0.0042,-0.0086,-0.009,0.0,-0.0,-0.0,0.0,-0.005,-0.0154,0.0,0.0,0.0,-0.3439,-0.4488,0.0,-0.2771,0.0,0.0,0.0,-0.2371,-0.2965,-0.2774,-0.2903,0.0,0.0,0.0,0.0,0.0,0.0,0.0,0.0,0.0,0.0,0.0,0.0,0.0,0.0,0.0,0.0,0.0,0.0,0.0,0.0,0.0,0.0,0.0,0.0,0.0,0.0,0.0,0.0,0.0,-0.7726,-0.7804,-0.7804,-0.795,-0.8031,-0.8031,-0.8038,-0.8038,-0.8038,-0.8038,-0.8038,-0.8038,-0.8038,-0.8038,-0.8038,-0.8038,-0.8038,-0.8038,-0.8038,-0.8038,-0.8038,-0.8038,-0.8038,-0.8038,-0.8038,-0.8038,-0.8038,-0.8038,-0.8038,-0.8038,-0.2106,-0.1935,-0.1803,-0.1803,-0.1803,-0.1803,-0.1803,-0.1803,-0.1844,0.0,0.0,0.0,-0.195,-0.1978,-0.1829,-0.1344,-0.0901,-0.0642,-0.0651,-0.0961,-0.1343,-0.1775,-0.148,-0.0892,-0.0022,-0.0,-0.0,-0.0,-0.0,-0.0,-0.0,-0.0,-0.0,-0.0068,-0.1375,-0.1942,-0.1876,-0.0538,0.0,0.0,-0.0,-0.1579,0.0,0.0,0.0,0.0,0.0,-0.4858,-0.4745,0.0,-0.3981,-0.3795,0.0,0.0,-0.3198,-0.3042,-0.3215,-0.3429,-0.3276,0.0,0.0,0.0,0.0,0.0,0.0,0.0,0.0,0.0,0.0,0.0,0.0,0.0,0.0,0.0,0.0,0.0,0.0,0.0,0.0,0.0,0.0,0.0,0.0,0.0,0.0,0.0,-0.8374,-0.8491,-0.7658,-0.7794,-0.7875,-0.7875,-0.798,-0.8038,-0.8038,-0.8038,-0.8038,-0.8038,-0.8038,-0.8038,-0.8038,-0.8038,-0.8038,-0.8038,-0.8038,-0.8038,-0.8038,-0.8038,-0.8038,-0.8038,-0.8038,-0.8038,-0.8038,-0.8038,-0.8038,-0.8038,-0.21,-0.1999,-0.1954,-0.1889,-0.193,-0.197,-0.197,-0.197,-0.2004,0.0,0.0,0.0,-0.208,-0.2187,-0.2201,-0.2067,-0.1563,-0.1282,-0.1274,-0.1276,-0.1433,-0.1775,-0.179,-0.1532,-0.094,-0.08,-0.0637,-0.0377,-0.0365,-0.0367,-0.0385,-0.0364,-0.0384,-0.0429,-0.1472,-0.2234,-0.2628,-0.1569,0.0,0.0,-0.1081,0.0,0.0,-0.5086,-0.4745,0.0,0.0,0.0,-0.4992,-0.4889,-0.4714,0.0,0.0,-0.371,-0.346,-0.3354,-0.348,0.0,0.0,0.0,0.0,0.0,0.0,0.0,0.0,0.0,0.0,0.0,0.0,0.0,0.0,0.0,0.0,0.0,0.0,0.0,0.0,0.0,0.0,0.0,0.0,0.0,0.0,-0.8762,-0.8852,-0.8223,-0.8826,-0.8717,-0.7688,-0.7678,-0.7723,-0.7723,-0.7868,-0.7943,-0.7943,-0.8007,-0.8038,-0.8038,-0.8038,-0.8038,-0.8038,-0.8038,-0.8038,-0.8038,-0.8038,-0.8038,-0.8038,-0.8038,-0.8038,-0.8038,-0.8038,-0.8038,-0.8038,-0.8038,-0.8038,-0.8038,0.0,-0.2052,-0.2167,-0.2033,-0.2134,-0.2234,-0.2234,-0.2234,-0.2244,0.0,-0.2298,-0.2321,-0.2355,-0.2455,-0.252,-0.2496,-0.211,-0.1874,-0.1842,-0.1835,-0.1814,-0.1798,-0.1772,-0.1865,-0.2079,-0.1956,-0.1598,-0.0994,-0.1004,-0.099,-0.1007,-0.101,-0.0994,-0.0998,-0.1054,-0.1673,-0.2678,-0.2751,0.0,-0.239,-0.2789,-0.2962,0.0,0.0,-0.542,-0.5399,-0.5195,-0.5154,-0.5105,-0.4955,-0.4762,0.0,0.0,-0.4097,-0.3856,-0.368,-0.3741,0.0,-0.3826,-0.3941,0.0,0.0,0.0,0.0,-0.4728,-0.4646,0.0,0.0,0.0,0.0,0.0,0.0,0.0,0.0,0.0,0.0,0.0,0.0,0.0,0.0,0.0,0.0,-0.8773,-0.8965,-0.9061,-0.9061,-0.9123,-0.8663,-0.7633,-0.7563,-0.7577,-0.7577,-0.7712,-0.7787,-0.7787,-0.7936,-0.8014,-0.8014,-0.8031,-0.8038,-0.8038,-0.8038,-0.8038,-0.8038,-0.8038,-0.8038,-0.8038,-0.8038,-0.8038,-0.8038,-0.8038,-0.8038,-0.8038,-0.8038,-0.8038,-0.8038,-0.2562,-0.2353,-0.2201,-0.2174,-0.2313,-0.2441,-0.2441,-0.2441,-0.253,-0.2744,-0.284,-0.3042,-0.329,-0.3022,-0.2856,-0.294,-0.2591,-0.2288,-0.2123,-0.2027,-0.1913,-0.1813,-0.1637,-0.1514,-0.1402,-0.213,-0.224,-0.163,-0.1619,-0.1628,-0.1616,-0.1618,-0.163,-0.1642,-0.1962,-0.2244,-0.2495,-0.3149,0.0,-0.3372,-0.4149,0.0,-0.4665,-0.5217,-0.5406,-0.5418,-0.5377,-0.5367,-0.5325,-0.5131,-0.505,-0.4931,0.0,0.0,-0.444,-0.405,-0.4124,-0.4333,-0.4039,-0.4172,-0.4334,-0.4151,0.0,0.0,-0.4324,-0.4423,0.0,0.0,0.0,0.0,0.0,0.0,0.0,0.0,0.0,0.0,0.0,0.0,0.0,0.0,0.0,0.0,-0.8662,-0.9651,-1.0269,-1.0269,-0.9441,-0.8432,-0.7227,-0.7346,-0.7414,-0.7414,-0.7563,-0.7641,-0.7641,-0.7784,-0.7855,-0.7858,-0.798,-0.8038,-0.8038,-0.8038,-0.8038,-0.8038,-0.8038,-0.8038,-0.8038,-0.8038,-0.8038,-0.8038,-0.8038,-0.8038,-0.8038,-0.8038,-0.8038,-0.8038,-0.2872,-0.2781,-0.2694,-0.2489,-0.2581,-0.2737,-0.2774,-0.2788,-0.2866,-0.3062,-0.332,-0.3487,-0.3571,-0.3378,-0.3242,-0.3196,-0.2825,-0.2568,-0.2462,-0.2093,-0.1876,-0.1802,-0.1699,-0.1687,-0.1787,-0.2191,-0.2278,-0.1993,-0.1943,-0.1865,-0.1791,-0.1791,-0.1933,-0.2153,-0.2179,-0.2391,-0.277,-0.3042,-0.3344,-0.3773,-0.4562,0.0,-0.5016,-0.5304,-0.5367,-0.5428,-0.5428,-0.5428,-0.5338,-0.5182,-0.5131,0.0,0.0,-0.4745,-0.4745,0.0,-0.446,-0.4528,-0.43,-0.4348,-0.4498,-0.4372,0.0,0.0,0.0,0.0,0.0,0.0,0.0,0.0,0.0,0.0,0.0,0.0,0.0,0.0,0.0,0.0,0.0,0.0,0.0,0.0,-0.9123,-0.9461,-0.9564,-0.9672,-0.8578,-0.7672,-0.7136,-0.7214,-0.7255,-0.7255,-0.7407,-0.7485,-0.7485,-0.7631,-0.7706,-0.7706,-0.7855,-0.7926,-0.7929,-0.8004,-0.8038,-0.8038,-0.8038,-0.8038,-0.8038,-0.8038,-0.8038,-0.8038,-0.8038,-0.8038,-0.8038,-0.8038,-0.8038,-0.8038,-0.3256,-0.3278,-0.3294,-0.2874,-0.2968,-0.3065,-0.3103,-0.3144,-0.3229,-0.337,-0.3693,-0.3846,-0.3761,-0.3697,-0.3639,-0.3527,-0.3127,-0.2888,-0.2888,-0.2341,-0.2006,-0.1978,-0.1956,-0.208,-0.2424,-0.2251,-0.2165,-0.2167,-0.2043,-0.193,-0.1803,-0.1833,-0.206,-0.2434,-0.2252,-0.253,0.0,0.0,0.0,-0.3938,0.0,-0.4874,-0.4908,-0.5203,-0.5318,-0.5321,-0.5418,-0.5428,-0.5342,-0.5216,-0.5176,-0.5148,-0.5006,-0.4982,0.0,0.0,0.0,0.0,0.0,0.0,0.0,0.0,0.0,-0.4497,0.0,0.0,0.0,0.0,0.0,0.0,0.0,0.0,0.0,0.0,0.0,0.0,0.0,0.0,0.0,0.0,0.0,0.0,0.0,-0.9252,-0.8873,-0.895,-0.7911,-0.7303,-0.7348,-0.7186,-0.7112,-0.7139,-0.7261,-0.7326,-0.7326,-0.7478,-0.7556,-0.7556,-0.7702,-0.777,-0.7777,-0.7926,-0.7994,-0.7997,-0.8028,-0.8038,-0.8038,-0.8038,-0.8038,-0.8038,-0.8038,-0.8038,-0.8038,-0.8038,-0.8038,-0.8038,-0.3955,-0.3894,-0.3788,-0.3327,-0.348,-0.3567,-0.3159,-0.3239,-0.3468,-0.3704,-0.4009,-0.4239,-0.4402,0.0,0.0,0.0,0.0,-0.3476,-0.3476,-0.3056,-0.2713,-0.2608,-0.2476,-0.2441,-0.2488,-0.2458,-0.2299,-0.201,-0.2018,-0.193,-0.1806,-0.192,-0.2057,-0.2251,-0.2645,0.0,0.0,0.0,-0.387,0.0,-0.4575,-0.4718,0.0,-0.5043,-0.5155,-0.5176,-0.5311,-0.5428,-0.5425,0.0,-0.5335,-0.5308,0.0,-0.5199,-0.5257,-0.4975,0.0,0.0,0.0,0.0,0.0,0.0,-0.4965,0.0,0.0,0.0,0.0,0.0,0.0,0.0,0.0,0.0,0.0,0.0,0.0,0.0,0.0,0.0,0.0,0.0,0.0,0.0,0.0,-1.0041,-1.0297,-0.9786,-0.9228,-0.8643,-0.8276,-0.7375,-0.701,-0.7136,-0.7156,-0.7166,-0.7166,-0.7319,-0.7397,-0.74,-0.755,-0.7624,-0.7628,-0.7773,-0.7838,-0.7845,-0.798,-0.8038,-0.8038,-0.8038,-0.8038,-0.8038,-0.8038,-0.8038,-0.8038,-0.8038,-0.8038,-0.8038,-0.4123,-0.3793,-0.3497,-0.3136,-0.3165,-0.3286,-0.3269,-0.3531,-0.3816,-0.4029,-0.4239,-0.4429,0.0,0.0,0.0,0.0,0.0,-0.3799,0.0,0.0,-0.3002,-0.294,-0.2743,-0.2616,-0.2616,-0.2616,-0.251,-0.2294,-0.2184,-0.204,-0.1916,-0.1981,-0.2232,-0.2603,-0.2825,0.0,-0.3649,0.0,-0.3917,0.0,0.0,0.0,0.0,-0.5084,-0.5264,-0.5274,-0.5338,-0.5428,-0.5415,0.0,-0.5287,0.0,0.0,0.0,0.0,0.0,0.0,0.0,0.0,0.0,0.0,0.0,0.0,0.0,-0.4674,0.0,-0.4565,0.0,0.0,0.0,0.0,0.0,0.0,0.0,0.0,0.0,0.0,0.0,0.0,0.0,0.0,0.0,0.0,0.0,0.0,0.0,-0.8147,-0.7731,-0.7289,-0.7084,-0.6956,-0.7014,-0.7099,-0.7139,-0.7139,-0.7204,-0.7238,-0.7241,-0.7394,-0.7468,-0.7472,-0.7621,-0.7733,-0.7814,-0.7879,-0.7957,-0.8038,-0.8038,-0.8038,-0.8038,-0.8038,-0.8038,-0.8038,-0.8038,-0.8038,-0.8038,-0.44,0.0,-0.3733,-0.3409,-0.3341,-0.3346,-0.3503,-0.3785,-0.4023,-0.4177,-0.4372,0.0,-0.4674,-0.4592,0.0,0.0,-0.4412,-0.4251,0.0,0.0,-0.3577,-0.3942,-0.3308,-0.3035,-0.3248,-0.2909,-0.2702,-0.2548,-0.233,-0.2154,-0.2047,-0.2113,-0.2388,-0.2852,-0.3018,-0.3439,-0.4019,0.0,0.0,-0.4338,-0.4518,-0.4636,-0.481,-0.5148,-0.5325,-0.5428,-0.5428,-0.5428,-0.5352,-0.5281,-0.5332,0.0,-0.5338,0.0,0.0,0.0,0.0,0.0,-0.5091,0.0,0.0,0.0,0.0,0.0,0.0,0.0,0.0,0.0,0.0,0.0,0.0,0.0,0.0,0.0,0.0,0.0,0.0,0.0,0.0,0.0,0.0,0.0,0.0,0.0,0.0,0.0,0.0,-0.7057,-0.6856,-0.6788,-0.6803,-0.6926,-0.7031,-0.7186,-0.7577,-0.7228,-0.7228,-0.758,-0.7434,-0.7309,-0.7312,-0.7468,-0.7778,-0.816,-0.787,-0.8067,-0.8371,-0.812,-0.8038,-0.8038,-0.8038,-0.8233,-0.8528,-0.8137,-0.8038,-0.8038,-0.4991,-0.5142,0.0,0.0,-0.4418,-0.4222,-0.3848,-0.3917,-0.4023,-0.4177,0.0,0.0,0.0,0.0,0.0,0.0,0.0,-0.5117,-0.5694,0.0,-0.4747,-0.6031,-0.4472,-0.3898,0.0,-0.3506,-0.2825,-0.2706,-0.2351,-0.2207,-0.2207,-0.2403,-0.2558,-0.2747,-0.3297,-0.3731,-0.4036,-0.4321,-0.4694,-0.5084,-0.4955,-0.5077,-0.5384,0.0,-0.5233,-0.5428,-0.5428,0.0,0.0,-0.5528,-0.5579,0.0,0.0,0.0,0.0,0.0,0.0,0.0,0.0,0.0,0.0,-0.5064,0.0,0.0,0.0,0.0,-0.4863,0.0,0.0,0.0,0.0,0.0,-0.8683,-0.9112,0.0,0.0,0.0,0.0,0.0,0.0,0.0,0.0,0.0,0.0,0.0,0.0,0.0,0.0,-0.774,-0.6813,-0.6481,-0.6915,-0.6932,-0.7516,-0.8803,-0.7665,-0.7665,-0.8803,-0.7669,-0.7146,-0.7153,-0.7309,-0.8007,-0.9009,-0.8153,-0.8386,-0.936,-0.8368,-0.8038,-0.8038,-0.8038,-0.8825,-0.9805,-0.8432,-0.8038,-0.8038,0.0,0.0,0.0,0.0,0.0,-0.4394,-0.4389,-0.464,-0.4984,0.0,0.0,0.0,0.0,-0.5835,-0.5883,0.0,0.0,-0.6815,-0.691,-0.5887,0.0,0.0,0.0,-0.4149,0.0,0.0,-0.328,-0.3162,-0.2727,-0.2584,-0.2646,-0.2555,-0.2671,-0.2991,0.0,-0.3744,0.0,0.0,0.0,0.0,0.0,-0.5098,-0.5422,0.0,-0.5315,-0.5428,-0.5428,-0.5426,0.0,-0.5572,-0.565,-0.5739,-0.5786,-0.58,-0.5793,-0.5742,-0.5766,-0.5779,0.0,0.0,-0.5833,-0.5335,0.0,0.0,0.0,0.0,0.0,0.0,0.0,0.0,0.0,-0.8428,-0.9292,-0.923,-0.9183,-0.9084,0.0,0.0,0.0,0.0,0.0,0.0,0.0,0.0,0.0,0.0,-0.7458,0.0,0.0,-0.6321,-0.6763,-0.7752,-0.7987,-0.87,-1.0005,-0.9657,-0.9226,-0.889,-0.8452,-0.8281,-0.8281,-0.834,-0.9046,-1.0244,-1.0158,-0.9883,-0.9448,-0.9339,-0.9312,-0.9312,-0.9312,-1.0096,-1.1072,-0.9805,-0.9899,-1.0485,-0.635,0.0,0.0,0.0,0.0,0.0,-0.5283,0.0,0.0,0.0,-0.6219,0.0,-0.7127,0.0,-0.7164,0.0,-0.7604,-0.7819,-0.7439,-0.6813,0.0,-0.7258,-0.5967,0.0,0.0,0.0,-0.4406,-0.3852,-0.3502,-0.3191,-0.2981,-0.2784,-0.2846,-0.3137,0.0,-0.3792,-0.4053,0.0,-0.5031,0.0,0.0,-0.5192,0.0,0.0,-0.5443,-0.5443,0.0,-0.5538,-0.5674,-0.5728,-0.5806,-0.5891,-0.5949,-0.5962,-0.5952,-0.5898,-0.5922,-0.6012,-0.6255,-0.6415,0.0,-0.6551,-0.6568,0.0,-0.5468,0.0,-0.5585,0.0,0.0,0.0,0.0,0.0,-0.9773,-0.9586,-0.9316,-0.9084,0.0,-0.8804,0.0,0.0,0.0,0.0,0.0,0.0,-0.8552,-0.7714,0.0,0.0,0.0,0.0,-0.687,-0.8489,-0.8556,-0.9344,-1.1086,-1.0742,-1.0269,-0.9492,-0.9492,-0.9323,-0.889,-0.9323,-1.0173,-1.1367,-1.1156,-1.1012,-1.0759,-1.0583,-1.0613,-1.0681,-1.0681,-1.1458,-1.2425,-1.1165,-1.117,-1.175,0.0,0.0,0.0,0.0,-0.6309,0.0,0.0,0.0,-0.7406,0.0,-0.808,-0.8461,-0.8633,-0.8654,-0.8654,-0.8508,-0.8508,-0.8229,-0.75,-0.7644,0.0,0.0,-0.7783,-0.7621,-0.7919,0.0,0.0,0.0,-0.4493,-0.3927,-0.3115,-0.3092,-0.3092,-0.3164,-0.3598,0.0,-0.4157,-0.5563,-0.5789,-0.5216,-0.5367,-0.5428,-0.5446,-0.56,-0.5662,-0.5669,-0.5599,-0.5691,-0.5833,-0.5979,-0.6034,-0.6139,-0.629,-0.6412,-0.6384,-0.6231,-0.6294,-0.6572,-0.7194,-0.7513,-0.7784,-0.8442,-0.8596,0.0,0.0,0.0,-0.6963,0.0,0.0,0.0,0.0,0.0,-1.0127,-1.008,-0.9593,-0.9064,0.0,0.0,0.0,0.0,0.0,0.0,0.0,0.0,-0.8248,-0.7917,-0.7125,0.0,0.0,0.0,-0.6937,-0.9105,-0.8745,-0.963,-1.1946,-1.1165,-1.0773,-1.0697,-1.0697,-1.0096,-0.9061,-1.0183,-1.1295,-1.2345,-1.1377,-1.1785,-1.2927,-1.1973,-1.1728,-1.2027,-1.2037,-1.2818,-1.3878,-1.2522,-1.2042,-1.2042,-0.7285,-0.7368,-0.7542,0.0,-0.7649,-0.737,0.0,0.0,0.0,0.0,-0.8581,-0.884,-0.9628,-0.9725,-0.9725,-0.9651,-1.0274,0.0,0.0,0.0,0.0,-0.9603,-0.8255,-0.7779,-0.8408,-0.6858,0.0,-0.5531,0.0,-0.3727,-0.3612,-0.3276,-0.3242,-0.3473,0.0,0.0,-0.4894,-0.5787,-0.6228,-0.6266,-0.5668,-0.5815,-0.6288,0.0,-0.6073,-0.6663,-0.5958,-0.5844,-0.5976,-0.6017,-0.6625,-0.7343,-0.7387,-0.7936,-0.8528,-0.8477,-0.85,-0.859,-0.8707,-0.8791,-0.8842,-0.8934,-0.8871,-0.8653,0.0,0.0,0.0,0.0,0.0,0.0,0.0,0.0,0.0,-0.9573,-0.9158,-0.8891,0.0,0.0,0.0,0.0,0.0,0.0,0.0,-0.8611,-0.8376,-0.7632,-0.7594,-0.7586,-0.7563,0.0,0.0,-1.0132,-1.0401,-1.134,-1.313,-1.2953,-1.2493,-1.1895,-1.1895,-1.1724,-1.1466,-1.1724,-1.2504,-1.3659,-1.3591,-1.3215,-1.2678,-1.2836,-1.2958,-1.3036,-1.3318,-1.4172,-1.5242,-1.4949,-1.4172,-1.3392,-0.7695,0.0,0.0,-0.8537,0.0,0.0,-0.8388,-0.8789,0.0,-0.9624,-0.9759,0.0,-1.0642,-1.0872,-1.1037,-1.0924,-1.1338,0.0,-1.0546,0.0,0.0,-0.988,-0.9327,-0.9076,-0.9266,-0.8092,0.0,-0.6258,0.0,-0.4423,-0.3785,-0.347,-0.3415,-0.3588,0.0,-0.4177,0.0,-0.573,-0.6573,-0.7113,-0.6694,-0.6907,0.0,-0.7061,-0.7324,-0.7924,-0.7505,-0.7088,-0.6878,-0.7322,-0.7916,-0.8466,-0.8466,-0.8841,-0.9296,-0.9296,-0.9296,-0.9372,-0.982,-0.9965,-1.0013,-1.0392,-1.0394,-1.0184,-0.9553,-0.9438,-0.9494,0.0,-0.9811,-1.0251,0.0,0.0,0.0,0.0,0.0,0.0,0.0,0.0,0.0,0.0,0.0,0.0,-0.8404,-0.8524,-0.8352,-0.7701,-0.7717,-0.7829,0.0,0.0,0.0,-1.0704,-1.0911,-1.1821,-1.3447,-1.3581,-1.3188,-1.2328,-1.2851,-1.2851,-1.2328,-1.2851,-1.347,-1.4095,-1.4262,-1.3957,-1.3479,-1.3901,-1.4142,-1.4279,-1.4646,-1.5146,-1.5832,-1.5832,-1.5343,-1.4752,0.0,0.0,0.0,0.0,0.0,0.0,0.0,-0.9886,0.0,-1.0672,0.0,-1.1536,-1.1536,-1.1997,-1.2204,-1.1951,0.0,-1.1473,-1.0251,-1.0996,-1.096,-0.9774,-1.0581,-1.0788,-1.0247,-0.9788,-0.8751,0.0,-0.6449,-0.5424,-0.4019,-0.3868,-0.3796,0.0,0.0,0.0,0.0,-0.5887,-0.7011,-0.7934,-0.804,-0.8251,-0.8586,-0.8643,-0.8934,-0.928,-0.9435,-0.8841,-0.8161,-0.8993,-0.9372,-0.9523,-0.9523,-0.9599,-0.9674,-0.9674,-0.9674,-0.9895,-1.0789,-1.1013,-1.1236,-1.2077,-1.2305,-1.2018,-1.0872,-1.0627,-1.0627,-1.0627,-1.0436,-1.0604,-1.1913,0.0,0.0,0.0,0.0,0.0,0.0,0.0,0.0,0.0,0.0,0.0,0.0,-0.841,-0.831,-0.8009,-0.7807,-0.8014,0.0,0.0,0.0,-1.0969,-1.0951,-1.1702,-1.32,-1.346,-1.3239,-1.2589,-1.3561,-1.3555,-1.2589,-1.3646,-1.4088,-1.4088,-1.4088,-1.4229,-1.4489,-1.4823,-1.5157,-1.5478,-1.5732,-1.5832,-1.5832,-1.5832,-1.5832,-1.5832,0.0,0.0,0.0,0.0,0.0,-1.0261,-1.0695,-1.0969,-1.1156,-1.1263,-1.1784,-1.2151,-1.2151,-1.2238,-1.2278,-1.2231,-1.2225,0.0,0.0,0.0,0.0,-1.108,-1.1255,-1.1189,-1.0848,-0.9743,-0.8735,-0.7985,-0.6641,-0.5763,-0.5176,-0.5061,-0.4744,-0.428,0.0,0.0,-0.6962,-0.7698,0.0,-0.8965,-0.8541,-0.8797,-0.9428,-0.9101,-0.9502,-1.022,-1.0473,-0.9895,-0.9069,-0.9226,-0.982,-1.0565,-1.0565,-1.1093,-1.1774,-1.1774,-1.1774,-1.1774,-1.2003,-1.207,-1.2077,-1.2224,-1.2305,-1.2278,-1.2025,-1.1999,-1.1999,-1.1999,-1.1886,-1.182,-1.1567,0.0,0.0,0.0,0.0,0.0,0.0,0.0,0.0,0.0,0.0,0.0,0.0,-0.8591,-0.8611,-0.8317,0.0,0.0,0.0,0.0,0.0,0.0,-1.1589,0.0,0.0,0.0,-1.3473,-1.3822,-1.3997,-1.3997,-1.3822,-1.3997,-1.4088,-1.4088,-1.4088,-1.4115,-1.4202,-1.4743,-1.5277,-1.5758,-1.5805,-1.5832,-1.5832,-1.5832,-1.5832,-1.5832,0.0,0.0,0.0,0.0,0.0,0.0,0.0,-1.1697,-1.177,-1.1463,-1.167,-1.185,-1.185,-1.2118,-1.2305,-1.2305,-1.2305,-1.2245,-1.2104,-1.2091,-1.1964,-1.167,-1.1657,-1.1516,-1.1223,-1.0315,-0.9444,-0.8622,-0.7378,-0.6428,-0.5761,-0.5465,-0.5232,-0.5086,0.0,-0.6299,0.0,0.0,0.0,-0.9426,-0.9819,-1.0337,-1.0849,-1.061,-1.093,-1.1363,-1.1495,-1.1248,-1.0875,-1.0875,-1.1174,-1.162,-1.162,-1.1922,-1.2305,-1.2305,-1.2305,-1.2305,-1.2305,-1.2305,-1.2305,-1.2305,-1.2305,-1.2305,-1.2305,-1.2305,-1.2305,-1.2305,-1.2305,-1.2124,-1.1536,-1.0949,0.0,0.0,0.0,0.0,0.0,0.0,0.0,0.0,0.0,0.0,0.0,0.0,0.0,0.0,0.0,0.0,0.0,0.0,-1.0294,0.0,0.0,0.0,-1.32,0.0,-1.3507,-1.4088,-1.4088,-1.4088,-1.4088,-1.4088,-1.4088,-1.4088,-1.4088,-1.4088,-1.4135,-1.4723,-1.5304,-1.5832,-1.5832,-1.5832,-1.5832,-1.5832,-1.5832,-1.5832,0.0,-1.1077,0.0,0.0,-1.1283,0.0,-1.1984,-1.2305,-1.2305,-1.1777,-1.165,-1.161,-1.161,-1.2024,-1.2305,-1.2305,-1.2305,-1.2305,-1.2305,-1.2305,-1.2204,-1.1971,-1.1964,-1.1824,-1.1523,-1.0949,-1.0216,0.0,-0.8281,-0.7333,-0.6482,-0.6048,-0.5954,-0.615,-0.6521,0.0,0.0,0.0,-0.958,-0.999,-1.1099,-1.1657,-1.1877,-1.1937,-1.2104,-1.2305,-1.2305,-1.2305,-1.2305,-1.2305,-1.2305,-1.2305,-1.2305,-1.2305,-1.2305,-1.2305,-1.2305,-1.2305,-1.2305,-1.2305,-1.2305,-1.2305,-1.2305,-1.2305,-1.2305,-1.2305,-1.2305,-1.2305,-1.2305,-1.2124,-1.1536,-1.1156,0.0,0.0,0.0,0.0,0.0,0.0,0.0,0.0,0.0,0.0,0.0,0.0,0.0,0.0,0.0,0.0,-0.8985,-0.9372,-0.9993,0.0,0.0,-1.1844,-1.2919,0.0,-1.3474,-1.3995,-1.4055,-1.4088,-1.4088,-1.4088,-1.4088,-1.4088,-1.4088,-1.4122,-1.4222,-1.475,-1.5271,-1.5745,-1.5805,-1.5832,-1.5832,-1.5832,-1.5832,-1.5832,0.0,0.0,0.0,0.0,0.0,0.0,-1.2728,-1.2926,-1.3006,-1.2741,-1.2385,-1.2225,-1.2225,-1.2271,-1.2305,-1.2305,-1.2305,-1.2305,-1.2305,-1.2305,-1.2291,-1.2265,-1.2265,-1.2124,-1.1837,-1.1256,-1.0681,0.0,0.0,-0.8507,-0.8174,-0.7804,-0.7591,-0.7512,-0.7706,-0.8342,0.0,-1.011,-1.077,-1.1233,-1.1697,-1.1844,-1.1897,-1.2164,-1.2278,-1.2305,-1.2305,-1.2305,-1.2305,-1.2305,-1.2305,-1.2305,-1.2305,-1.2305,-1.2305,-1.2305,-1.2305,-1.2305,-1.2305,-1.2305,-1.2305,-1.2305,-1.2305,-1.2305,-1.2305,-1.2305,-1.2305,-1.2305,-1.2305,-1.2124,-1.1536,-1.1817,-1.1697,0.0,0.0,0.0,0.0,0.0,0.0,0.0,0.0,0.0,0.0,0.0,0.0,0.0,0.0,0.0,-0.9573,-0.9399,-0.9686,-1.0638,-1.0882,-1.1343,-1.1991,-1.2806,-1.3367,-1.3687,-1.3955,-1.4088,-1.4088,-1.4088,-1.4088,-1.4088,-1.4088,-1.4235,-1.4502,-1.483,-1.515,-1.5464,-1.5732,-1.5832,-1.5832,-1.5832,-1.5832,-1.5832,0.0,0.0,0.0,0.0,0.0,0.0,0.0,-1.3701,-1.3227,-1.328,-1.3026,-1.2779,-1.2592,-1.2565,-1.2498,-1.2318,-1.2305,-1.2305,-1.2305,-1.2305,-1.2305,-1.2305,-1.2305,-1.2245,-1.2131,-1.173,-1.1229,0.0,0.0,0.0,-0.8624,-0.8337,-0.8442,-0.8939,-0.9099,-0.9672,-1.0432,-1.087,-1.1316,-1.1717,-1.2011,-1.2131,-1.2144,-1.2258,-1.2305,-1.2305,-1.2305,-1.2305,-1.2305,-1.2305,-1.2305,-1.2305,-1.2305,-1.2305,-1.2305,-1.2305,-1.2305,-1.2305,-1.2305,-1.2305,-1.2305,-1.2305,-1.2305,-1.2305,-1.2305,-1.2305,-1.2305,-1.2305,-1.2305,-1.2231,-1.1997,-1.171,-1.1383,-1.0969,0.0,0.0,0.0,0.0,0.0,0.0,0.0,0.0,0.0,0.0,0.0,0.0,0.0,-0.8724,-0.9138,-0.9379,-0.9746,-1.0274,0.0,-1.145,-1.1864,-1.2759,-1.3353,-1.3566,-1.3948,-1.4088,-1.4088,-1.4088,-1.4088,-1.4088,-1.4088,-1.4255,-1.4543,-1.4843,-1.5137,-1.5424,-1.5718,-1.5832,-1.5832,-1.5832,-1.5832,-1.5832,-1.6978,0.0,-1.5535,0.0,-1.5073,-1.4245,-1.5648,-1.5013,-1.4321,-1.422,-1.4061,-1.3705,-1.3003,-1.2879,-1.2799,-1.2585,-1.2572,-1.2572,-1.2572,-1.2572,-1.2525,-1.2438,-1.2432,0.0,-1.2305,-1.2017,-1.1663,-1.1249,-1.0461,0.0,-0.9446,-0.9152,-0.9392,-1.0074,-1.0281,-1.0701,-1.1263,-1.147,-1.173,-1.2011,-1.2218,-1.2305,-1.2305,-1.2305,-1.2305,-1.2305,-1.2305,-1.2305,-1.2305,-1.2305,-1.2305,-1.2305,-1.2305,-1.2305,-1.2305,-1.2305,-1.2305,-1.2305,-1.2305,-1.2305,-1.2305,-1.2305,-1.2305,-1.2305,-1.2305,-1.2305,-1.2305,-1.2305,-1.2305,-1.2278,-1.2191,-1.167,-1.1236,-1.1182,0.0,0.0,0.0,-1.0,0.0,0.0,-0.9092,-0.8711,-0.8798,0.0,0.0,0.0,0.0,-0.8671,-0.9045,-0.9379,0.0,0.0,0.0,0.0,-1.1864,-1.2759,-1.3353,-1.3566,-1.3948,-1.4088,-1.4088,-1.4088,-1.4088,-1.4088,-1.4088,-1.4202,-1.4416,-1.471,-1.5003,-1.5297,-1.5585,-1.5752,-1.5832,-1.5832,-1.5832,-1.5832,-1.8434,-1.8267,-1.8073,-1.7421,-1.7236,-1.7236,-1.7245,-1.7245,-1.6838,-1.5771,-1.5688,-1.5042,-1.3346,-1.3206,-1.32,-1.32,-1.32,-1.32,-1.32,-1.32,-1.3066,0.0,0.0,-1.2681,-1.2311,-1.2017,-1.1864,-1.1857,0.0,0.0,-1.0962,-1.0668,-1.0695,-1.0975,-1.0982,-1.1309,-1.1857,-1.1864,-1.2031,-1.2298,-1.2305,-1.2305,-1.2305,-1.2305,-1.2305,-1.2305,-1.2305,-1.2305,-1.2305,-1.2305,-1.2305,-1.2305,-1.2305,-1.2305,-1.2305,-1.2305,-1.2305,-1.2305,-1.2305,-1.2305,-1.2305,-1.2305,-1.2305,-1.2305,-1.2305,-1.2305,-1.2305,-1.2305,-1.2305,-1.2218,-1.1924,-1.1864,-1.1646,-1.0779,0.0,0.0,0.0,0.0,0.0,-0.9686,-0.8911,-0.849,-0.8778,0.0,0.0,0.0,0.0,-0.9058,-0.9646,-0.9406,0.0,-1.0591,-1.0842,0.0,-1.1864,-1.2759,-1.3353,-1.3566,-1.3948,-1.4088,-1.4088,-1.4088,-1.4088,-1.4088,-1.4088,-1.4088,-1.4115,-1.4402,-1.4703,-1.4997,-1.5291,-1.5578,-1.5832,-1.5832,-1.5832,-1.5832,-1.9927,-1.9247,-1.8961,-1.9492,-1.8301,-1.7585,-1.831,-1.7827,-1.7172,-1.6846,-1.6764,-1.6277,-1.5012,-1.4014,-1.3427,0.0,-1.3213,-1.3213,0.0,-1.3213,-1.3166,-1.3066,-1.3066,-1.3019,-1.2926,-1.2625,-1.2371,-1.2164,0.0,0.0,-1.0989,-1.0902,-1.1116,-1.159,-1.159,-1.1804,-1.2164,-1.2164,-1.2218,-1.2305,-1.2305,-1.2305,-1.2305,-1.2305,-1.2305,-1.2305,-1.2305,-1.2305,-1.2305,-1.2305,-1.2305,-1.2338,-1.2545,-1.2465,-1.2305,-1.2305,-1.2305,-1.2305,-1.2305,-1.2305,-1.2305,-1.2305,-1.2305,-1.2305,-1.2305,-1.2305,-1.2305,-1.2305,-1.2305,-1.2211,-1.1924,-1.1703,-1.141,-1.0935,-1.0768,0.0,-1.0174,0.0,-0.9613,-0.9406,-0.8958,-0.8704,0.0,-0.8818,0.0,0.0,0.0,0.0,0.0,0.0,0.0,0.0,-1.1122,0.0,-1.187,-1.2759,-1.3353,-1.3566,-1.3948,-1.4088,-1.4088,-1.4088,-1.4088,-1.4088,-1.4088,-1.4088,-1.4108,-1.4402,-1.4696,-1.499,-1.5284,-1.5571,-1.5832,-1.5832,-1.5832,-1.5832,-2.0566,-2.0079,-1.9835,-2.0479,-1.9432,-1.8789,-1.952,-1.9027,-1.8381,-1.798,-1.7908,-1.7496,-1.6437,-1.5204,0.0,-1.3554,-1.354,-1.354,-1.354,-1.354,-1.3494,-1.338,-1.3373,-1.332,-1.3213,-1.3019,0.0,-1.2645,-1.2158,-1.177,-1.1483,-1.1483,-1.1683,-1.2031,-1.2031,-1.2131,-1.2305,-1.2305,-1.2365,-1.2472,-1.2472,-1.2538,-1.2645,-1.2645,-1.2645,-1.2645,-1.2645,-1.2645,-1.2645,-1.2645,-1.2645,-1.2679,-1.2859,-1.2792,-1.2645,-1.2645,-1.2645,-1.2619,-1.2498,-1.2472,-1.2445,-1.2331,-1.2305,-1.2305,-1.2305,-1.2305,-1.2305,-1.2305,-1.2305,-1.2178,-1.1777,-1.155,-1.1296,-1.0895,-1.0681,-1.0454,-1.016,0.0,-0.9613,0.0,0.0,0.0,0.0,-0.9299,-0.9379,0.0,0.0,0.0,0.0,0.0,-1.0461,-1.0601,-1.143,-1.2031,-1.2371,-1.2933,-1.3414,-1.3814,-1.4001,-1.4088,-1.4088,-1.4088,-1.4088,-1.4088,-1.4088,-1.4088,-1.4102,-1.4282,-1.4529,-1.4823,-1.5124,-1.5411,-1.5678,-1.5792,-1.5832,-1.5832,-2.0566,-2.0566,-2.0566,-2.0566,-2.0566,-2.0566,-2.0566,-2.0566,-2.0245,-1.9283,-1.9116,-1.8718,-1.7504,-1.6519,-1.5462,-1.4328,0.0,0.0,-1.4088,-1.4088,-1.3968,-1.3687,-1.3592,-1.3547,-1.328,-1.3253,-1.3233,-1.3213,-1.2919,-1.2639,-1.2365,-1.2365,-1.2365,-1.2365,-1.2365,-1.2365,-1.2365,-1.2365,-1.2525,-1.2856,-1.2856,-1.2953,-1.3213,-1.3213,-1.3213,-1.3213,-1.3213,-1.3213,-1.3213,-1.3213,-1.3213,-1.3213,-1.3233,-1.324,-1.3233,-1.322,-1.3213,-1.3146,-1.2936,-1.2842,-1.2755,-1.2405,-1.2318,-1.2305,-1.2305,-1.2305,-1.2305,-1.2305,-1.2305,-1.2131,-1.1563,-1.1443,-1.1243,-1.0681,-1.0638,-1.0448,-1.0134,-0.9873,-0.9699,0.0,0.0,0.0,-0.9659,-0.9699,-0.9826,0.0,0.0,0.0,0.0,0.0,-1.0588,-1.143,-1.1764,-1.2338,-1.32,-1.3233,-1.3527,-1.4088,-1.4088,-1.4088,-1.4088,-1.4088,-1.4088,-1.4088,-1.4088,-1.4088,-1.4088,-1.4088,-1.4269,-1.4583,-1.4856,-1.5157,-1.5458,-1.5732,-1.5832,-1.5832,0.0,0.0,-2.0566,-2.0566,-2.0566,-2.0566,-2.0566,-2.0566,-2.0489,-2.0245,-2.0245,-1.9835,-1.8718,-1.839,-1.7415,-1.5462,-1.4573,-1.4088,-1.4088,-1.4088,-1.4055,-1.3981,-1.3981,-1.3948,-1.3881,-1.3661,-1.3434,-1.3213,-1.3133,-1.306,-1.2999,-1.2999,-1.2999,-1.2999,-1.2999,-1.2999,-1.2999,-1.2999,-1.3039,-1.31,-1.31,-1.3146,-1.3213,-1.3213,-1.3213,-1.3213,-1.3213,-1.3213,-1.3213,-1.3213,-1.3213,-1.3253,-1.3467,-1.354,-1.35,-1.3273,-1.3213,-1.3193,-1.312,-1.2926,-1.2802,-1.2735,-1.2472,-1.2305,-1.2305,-1.2305,-1.2305,-1.2305,-1.2305,-1.2191,-1.183,-1.1577,-1.1309,-1.0949,-1.0701,-1.0436,-0.986,-0.992,-0.9846,0.0,-0.9486,-0.9606,-0.9679,-0.9886,-1.004,0.0,0.0,-1.0752,-1.0982,-1.1069,-1.1316,-1.175,-1.2338,-1.2752,-1.3206,-1.3427,-1.3728,-1.4088,-1.4088,-1.4088,-1.4088,-1.4088,-1.4088,-1.4088,-1.4088,-1.4088,-1.4088,-1.4088,-1.4396,-1.4863,-1.4937,-1.5277,-1.5732,-1.5805,-1.5832,-1.5832,-2.0566,-2.0566,-2.0566,-2.0566,-2.0566,-2.0566,-2.0566,-2.0566,-2.0566,-2.0566,-2.0566,-2.0401,-1.9756,-1.9274,-1.855,-1.7326,-1.5786,-1.4657,-1.4166,-1.4088,-1.4088,-1.4088,-1.4088,-1.4088,-1.4088,-1.3928,-1.3701,-1.3407,-1.3407,-1.334,-1.3213,-1.3213,-1.3213,-1.3213,-1.3213,-1.3213,-1.3213,-1.3213,-1.3287,-1.3407,-1.3407,-1.3487,-1.3614,-1.3614,-1.3614,-1.3614,-1.3614,-1.3614,-1.3614,-1.3614,-1.3614,-1.3641,-1.3794,-1.3848,-1.3814,-1.3661,-1.3614,-1.3581,-1.3447,-1.3287,-1.3093,-1.2889,-1.2625,-1.2472,-1.2331,-1.2305,-1.2305,-1.2305,-1.2305,-1.2211,-1.1924,-1.1623,-1.1329,-1.1042,-1.0748,-1.0401,-0.9947,-1.0013,-1.0,-0.9679,-0.9907,-1.0134,-1.0267,-1.0541,-1.0715,-1.0715,-1.0989,0.0,-1.1383,-1.167,-1.1837,-1.187,-1.2513,-1.2899,-1.3206,-1.3634,-1.3928,-1.4088,-1.4088,-1.4088,-1.4088,-1.4088,-1.4088,-1.4088,-1.4088,-1.4088,-1.4088,-1.4088,-1.4355,-1.4776,-1.491,-1.5237,-1.5651,-1.5778,-1.5832,-1.5832,-2.0566,-2.0566,-2.0566,-2.0566,-2.0566,-2.0566,-2.0566,-2.0566,-2.0566,-2.0566,-2.0566,-2.0566,-2.0566,-1.9766,-1.9195,-1.9036,-1.7245,-1.5703,-1.4412,-1.4173,-1.4088,-1.4088,-1.4088,-1.4088,-1.4088,-1.4088,-1.3968,-1.3707,-1.3707,-1.3581,-1.334,-1.334,-1.334,-1.334,-1.334,-1.334,-1.334,-1.334,-1.3487,-1.3707,-1.3707,-1.3861,-1.4088,-1.4088,-1.4088,-1.4088,-1.4088,-1.4088,-1.4088,-1.4088,-1.4088,-1.4088,-1.4088,-1.4088,-1.4088,-1.4088,-1.4088,-1.4035,-1.3781,-1.3674,-1.35,-1.2899,-1.2822,-1.2741,-1.2371,-1.2305,-1.2305,-1.2305,-1.2305,-1.2225,-1.1984,-1.1657,-1.1349,-1.1096,-1.0775,-1.0454,-1.016,0.0,-1.018,-1.018,-1.0448,-1.0742,-1.1029,-1.1283,-1.1443,-1.149,-1.1724,-1.1891,-1.1931,-1.2171,-1.2191,-1.1944,-1.258,-1.2986,-1.334,-1.3841,-1.4088,-1.4088,-1.4088,-1.4088,-1.4088,-1.4088,-1.4088,-1.4088,-1.4088,-1.4088,-1.4088,-1.4088,-1.4289,-1.4609,-1.4863,-1.517,-1.5491,-1.5738,-1.5832,-1.5832,-2.0566,-2.0566,-2.0566,-2.0566,-2.0566,-2.0566,-2.0566,-2.0566,-2.0566,-2.0566,-2.0566,-2.0566,-2.0566,-2.0479,-2.0001,-1.9116,-1.8709,-1.7658,-1.5621,-1.4573,-1.4088,-1.4088,-1.4088,-1.4088,-1.4088,-1.4088,-1.4062,-1.4015,-1.4015,-1.3995,-1.3955,-1.3955,-1.3955,-1.3955,-1.3955,-1.3955,-1.3955,-1.3955,-1.3975,-1.4015,-1.4015,-1.4048,-1.4088,-1.4088,-1.4088,-1.4088,-1.4088,-1.4088,-1.4088,-1.4088,-1.4088,-1.4088,-1.4088,-1.4088,-1.4088,-1.4088,-1.4088,-1.4075,-1.4035,-1.3834,-1.35,-1.2899,-1.2822,-1.2741,-1.2371,-1.2305,-1.2305,-1.2305,-1.2305,-1.2285,-1.2245,-1.179,-1.141,-1.1363,-1.0909,-1.0454,-1.016,0.0,-1.0488,-1.0488,-1.0748,-1.1042,-1.1329,-1.1403,-1.153,-1.1784,-1.1844,-1.1977,-1.2225,-1.2278,-1.2278,-1.2238,-1.2819,-1.34,-1.3941,-1.4041,-1.4088,-1.4088,-1.4088,-1.4088,-1.4088,-1.4088,-1.4088,-1.4088,-1.4088,-1.4088,-1.4088,-1.4088,-1.4402,-1.4903,-1.4943,-1.5291,-1.5765,-1.5812,-1.5832,-1.5832,-2.0566,-2.0566,-2.0566,-2.0566,-2.0566,-2.0566,-2.0566,-2.0566,-2.0566,-2.0566,-2.0566,-2.0566,-2.0566,-2.0566,-2.0401,-1.9923,-1.9353,-1.855,-1.7568,-1.5869,-1.4977,-1.4977,-1.4412,-1.4088,-1.4088,-1.4088,-1.4088,-1.4088,-1.4088,-1.4088,-1.4088,-1.4088,-1.4088,-1.4088,-1.4088,-1.4088,-1.4088,-1.4088,-1.4088,-1.4088,-1.4088,-1.4088,-1.4088,-1.4088,-1.4088,-1.4088,-1.4088,-1.4088,-1.4088,-1.4088,-1.4088,-1.4088,-1.4088,-1.4088,-1.4088,-1.4088,-1.4088,-1.4088,-1.4088,-1.3988,-1.3741,-1.3146,-1.2999,-1.2872,-1.2405,-1.2305,-1.2305,-1.2305,-1.2305,-1.2305,-1.2305,-1.1951,-1.1663,-1.1663,-1.1176,-1.0748,-1.0608,-1.0708,-1.0795,-1.0795,-1.1189,-1.1516,-1.165,-1.1804,-1.1957,-1.2091,-1.2104,-1.2164,-1.2291,-1.2305,-1.2305,-1.2305,-1.2893,-1.3494,-1.4082,-1.4088,-1.4088,-1.4088,-1.4088,-1.4088,-1.4088,-1.4088,-1.4088,-1.4088,-1.4088,-1.4088,-1.4088,-1.4088,-1.4335,-1.4743,-1.4903,-1.5224,-1.5618,-1.5772,-1.5832,-1.5832,-2.0566,-2.0566,-2.0566,-2.0566,-2.0566,-2.0566,-2.0566,-2.0566,-2.0566,-2.0566,-2.0566,-2.0566,-2.0566,-2.0566,-2.0566,-2.0566,-1.9844,-1.9362,-1.9362,-1.7568,-1.6355,-1.6108,-1.5061,-1.4489,-1.4489,-1.425,-1.4088,-1.4088,-1.4088,-1.4088,-1.4088,-1.4088,-1.4088,-1.4088,-1.4088,-1.4088,-1.4088,-1.4088,-1.4088,-1.4088,-1.4088,-1.4088,-1.4088,-1.4088,-1.4088,-1.4088,-1.4088,-1.4088,-1.4088,-1.4088,-1.4088,-1.4088,-1.4088,-1.4088,-1.4088,-1.4088,-1.4088,-1.4088,-1.4088,-1.4088,-1.3961,-1.344,-1.326,-1.3066,-1.2532,-1.2351,-1.2305,-1.2305,-1.2305,-1.2305,-1.2305,-1.2064,-1.187,-1.187,0.0,-1.1096,-1.1096,-1.1096,-1.1122,-1.1189,-1.1597,-1.1897,-1.1964,-1.2171,-1.2305,-1.2305,-1.2305,-1.2305,-1.2305,-1.2305,-1.2365,-1.2512,-1.2966,-1.3494,-1.4082,-1.4088,-1.4088,-1.4088,-1.4088,-1.4088,-1.4088,-1.4088,-1.4088,-1.4088,-1.4088,-1.4088,-1.4088,-1.4088,-1.4255,-1.4549,-1.485,-1.5137,-1.5431,-1.5718,-1.5832,-1.5832,-2.0566,-2.0566,-2.0566,-2.0566,-2.0566,-2.0566,-2.0566,-2.0566,-2.0566,-2.0566,-2.0566,-2.0566,-2.0566,-2.0566,-2.0566,-2.0566,-2.0566,-2.0479,-2.0479,-1.9432,-1.831,-1.7253,-1.6108,-1.5621,-1.5621,-1.4573,-1.4088,-1.4088,-1.4088,-1.4088,-1.4088,-1.4088,-1.4088,-1.4088,-1.4088,-1.4088,-1.4088,-1.4088,-1.4088,-1.4088,-1.4088,-1.4088,-1.4088,-1.4088,-1.4088,-1.4088,-1.4088,-1.4088,-1.4088,-1.4088,-1.4088,-1.4088,-1.4088,-1.4088,-1.4088,-1.4088,-1.4088,-1.4088,-1.4088,-1.4088,-1.4008,-1.3694,-1.3407,-1.3126,-1.2862,-1.2498,-1.2305,-1.2305,-1.2305,-1.2305,-1.2305,-1.2064,-1.187,-1.187,0.0,0.0,-1.1396,-1.1396,-1.1496,-1.177,-1.1844,-1.1977,-1.2245,-1.2291,-1.2305,-1.2305,-1.2305,-1.2305,-1.2305,-1.2305,-1.2559,-1.3126,-1.3186,-1.3494,-1.4082,-1.4088,-1.4088,-1.4088,-1.4088,-1.4088,-1.4088,-1.4088,-1.4088,-1.4088,-1.4088,-1.4088,-1.4088,-1.4088,-1.4255,-1.4549,-1.485,-1.5137,-1.5431,-1.5718,-1.5832,-1.5832,-2.0566,-2.0566,-2.0566,-2.0566,-2.0566,-2.0566,-2.0566,-2.0566,-2.0566,-2.0566,-2.0566,-2.0566,-2.0566,-2.0566,-2.0566,-2.0566,-2.0566,-2.0566,-2.0566,-2.0245,-1.8868,-1.6437,-1.5304,-1.4734,-1.4734,-1.4334,-1.4088,-1.4088,-1.4088,-1.4088,-1.4088,-1.4088,-1.4088,-1.4088,-1.4088,-1.4088,-1.4088,-1.4088,-1.4088,-1.4088,-1.4088,-1.4088,-1.4088,-1.4088,-1.4088,-1.4088,-1.4088,-1.4088,-1.4088,-1.4088,-1.4088,-1.4088,-1.4088,-1.4088,-1.4088,-1.4088,-1.4088,-1.4088,-1.4088,-1.4088,-1.4015,-1.3714,-1.3427,-1.3126,-1.2896,-1.2518,-1.2305,-1.2305,-1.2305,-1.2305,-1.2305,-1.2211,-1.2138,-1.2138,0.0,-1.1697,-1.1697,-1.1697,-1.1744,-1.1857,-1.2031,-1.2178,-1.2291,-1.2305,-1.2305,-1.2305,-1.2305,-1.2305,-1.2305,-1.2305,-1.2585,-1.3193,-1.3213,-1.3494,-1.4082,-1.4088,-1.4088,-1.4088,-1.4088,-1.4088,-1.4088,-1.4088,-1.4088,-1.4088,-1.4088,-1.4088,-1.4088,-1.4088,-1.4155,-1.4282,-1.4576,-1.487,-1.5164,-1.5451,-1.5671,-1.5832,-2.0566,-2.0566,-2.0566,-2.0566,-2.0566,-2.0566,-2.0566,-2.0566,-2.0566,-2.0566,-2.0566,-2.0625,-2.0762,-2.0781,-2.083,-2.0967,-2.0977,-2.0977,-2.0977,-2.0639,-1.9522,-1.7326,-1.5869,-1.5068,-1.5068,-1.4412,-1.4088,-1.4088,-1.4088,-1.4088,-1.4088,-1.4088,-1.4088,-1.4088,-1.4088,-1.4088,-1.4088,-1.4088,-1.4088,-1.4088,-1.4088,-1.4088,-1.4088,-1.4088,-1.4088,-1.4088,-1.4088,-1.4088,-1.4088,-1.4088,-1.4088,-1.4088,-1.4088,-1.4088,-1.4088,-1.4088,-1.4088,-1.4088,-1.4088,-1.4088,-1.4041,-1.3834,-1.3561,-1.3267,-1.2959,-1.2659,-1.2418,-1.2318,-1.2305,-1.2305,-1.2305,-1.2305,-1.2305,-1.2305,-1.2138,-1.2004,-1.2004,-1.2004,-1.2004,-1.2004,-1.2178,-1.2305,-1.2305,-1.2305,-1.2305,-1.2305,-1.2305,-1.2305,-1.2305,-1.2305,-1.2585,-1.3193,-1.3213,-1.3494,-1.4082,-1.4088,-1.4088,-1.4088,-1.4088,-1.4088,-1.4088,-1.4088,-1.4088,-1.4088,-1.4088,-1.4088,-1.4088,-1.4088,-1.4088,-1.4115,-1.4409,-1.4703,-1.4997,-1.5291,-1.5578,-1.5832,-2.0566,-2.0566,-2.0566,-2.0566,-2.0566,-2.0566,-2.0566,-2.0566,-2.0566,-2.0566,-2.0566,-2.0742,-2.1182,-2.124,-2.1416,-2.1846,-2.1885,-2.1885,-2.1885,-2.082,-2.0355,-2.0615,-1.847,-1.7342,-1.7342,-1.5228,-1.4088,-1.4088,-1.4088,-1.4088,-1.4088,-1.4088,-1.4088,-1.4088,-1.4088,-1.4088,-1.4088,-1.4088,-1.4088,-1.4088,-1.4088,-1.4088,-1.4088,-1.4088,-1.4088,-1.4088,-1.4088,-1.4088,-1.4088,-1.4088,-1.4088,-1.4088,-1.4088,-1.4088,-1.4088,-1.4088,-1.4088,-1.4088,-1.4088,-1.4088,-1.4088,-1.4088,-1.3868,-1.3567,-1.328,-1.2973,-1.2735,-1.2365,-1.2305,-1.2305,-1.2305,-1.2305,-1.2305,-1.2305,-1.2305,-1.2305,-1.2305,-1.2305,-1.2305,-1.2305,-1.2305,-1.2305,-1.2305,-1.2305,-1.2305,-1.2305,-1.2305,-1.2305,-1.2305,-1.2305,-1.2585,-1.3193,-1.3213,-1.3494,-1.4082,-1.4088,-1.4088,-1.4088,-1.4088,-1.4088,-1.4088,-1.4088,-1.4088,-1.4088,-1.4088,-1.4088,-1.4088,-1.4088,-1.4088,-1.4115,-1.4402,-1.4696,-1.4997,-1.5284,-1.5578,-1.5825,-2.0566,-2.0566,-2.0566,-2.0566,-2.0566,-2.0566,-2.0566,-2.0566,-2.0566,-2.0566,-2.084,-2.1084,-2.1221,-2.1504,-2.1748,-2.1875,-2.1885,-2.1885,-2.1885,-2.1617,-2.1418,-2.1504,-1.9106,-1.7805,-1.7805,-1.6073,-1.522,-1.522,-1.4496,-1.4088,-1.4088,-1.4088,-1.4088,-1.4088,-1.4088,-1.4088,-1.4088,-1.4088,-1.4088,-1.4088,-1.4088,-1.4088,-1.4088,-1.4088,-1.4088,-1.4088,-1.4088,-1.4088,-1.4088,-1.4088,-1.4088,-1.4088,-1.4088,-1.4088,-1.4088,-1.4088,-1.4088,-1.4088,-1.4088,-1.4088,-1.4088,-1.4088,-1.3868,-1.3539,-1.3534,-1.3113,-1.2795,-1.2708,-1.2445,-1.2305,-1.2305,-1.2305,-1.2305,-1.2305,-1.2305,-1.2305,-1.2305,-1.2305,-1.2305,-1.2305,-1.2305,-1.2305,-1.2305,-1.2305,-1.2305,-1.2305,-1.2305,-1.2305,-1.2305,-1.2498,-1.2799,-1.32,-1.3407,-1.3701,-1.4082,-1.4088,-1.4088,-1.4088,-1.4088,-1.4088,-1.4088,-1.4088,-1.4088,-1.4088,-1.4088,-1.4088,-1.4088,-1.4088,-1.4088,-1.4095,-1.4182,-1.4396,-1.4689,-1.4983,-1.5277,-1.5558,-2.0566,-2.0566,-2.0566,-2.0566,-2.0566,-2.0566,-2.0566,-2.0566,-2.0625,-2.081,-2.1064,-2.1367,-2.1709,-2.1973,-2.2197,-2.2363,-2.2383,-2.2383,-2.2383,-2.2383,-2.2383,-2.2383,-2.067,-1.945,-1.8637,-1.7325,-1.6495,-1.6355,-1.5711,-1.5394,-1.5394,-1.4901,-1.4734,-1.4734,-1.425,-1.4088,-1.4088,-1.4088,-1.4088,-1.4088,-1.4088,-1.4088,-1.4088,-1.4088,-1.4088,-1.4088,-1.4088,-1.4088,-1.4088,-1.4088,-1.4088,-1.4088,-1.4088,-1.4088,-1.4088,-1.4088,-1.4088,-1.4088,-1.4088,-1.4088,-1.4088,-1.4088,-1.3948,-1.3788,-1.3667,-1.336,-1.3033,-1.2876,-1.2681,-1.2445,-1.2325,-1.2305,-1.2305,-1.2305,-1.2305,-1.2305,-1.2305,-1.2305,-1.2305,-1.2305,-1.2305,-1.2305,-1.2305,-1.2305,-1.2305,-1.2305,-1.2305,-1.2351,-1.2472,-1.2728,-1.2946,-1.3367,-1.3554,-1.3788,-1.4082,-1.4088,-1.4088,-1.4088,-1.4088,-1.4088,-1.4088,-1.4088,-1.4088,-1.4088,-1.4088,-1.4088,-1.4088,-1.4088,-1.4088,-1.4088,-1.4088,-1.4262,-1.4543,-1.4723,-1.505,-1.5424,-2.0566,-2.0566,-2.0566,-2.0566,-2.0566,-2.0576,-2.0625,-2.0625,-2.0781,-2.123,-2.1328,-2.165,-2.2422,-2.2549,-2.2725,-2.3105,-2.3135,-2.3135,-2.3135,-2.3135,-2.3135,-2.3135,-2.2773,-2.1719,-1.9861,-1.8728,-1.7953,-1.7423,-1.7342,-1.7342,-1.7261,-1.6273,-1.5861,-1.5779,-1.4734,-1.425,-1.425,-1.4173,-1.4088,-1.4088,-1.4088,-1.4088,-1.4088,-1.4088,-1.4088,-1.4088,-1.4088,-1.4088,-1.4088,-1.4088,-1.4088,-1.4088,-1.4088,-1.4088,-1.4088,-1.4088,-1.4088,-1.4088,-1.4088,-1.4088,-1.4088,-1.4088,-1.4088,-1.4015,-1.3741,-1.3579,-1.348,-1.2906,-1.2842,-1.2728,-1.2358,-1.2305,-1.2305,-1.2305,-1.2305,-1.2305,-1.2305,-1.2305,-1.2305,-1.2305,-1.2305,-1.2305,-1.2305,-1.2305,-1.2305,-1.2305,-1.2305,-1.2432,-1.2808,-1.2849,-1.3053,-1.3546,-1.3667,-1.3814,-1.4082,-1.4088,-1.4088,-1.4088,-1.4088,-1.4088,-1.4088,-1.4088,-1.4088,-1.4088,-1.4088,-1.4088,-1.4088,-1.4088,-1.4088,-1.4088,-1.4088,-1.4249,-1.4482,-1.4509,-1.4856,-1.5324,-2.0566,-2.0566,-2.0566,-2.0566,-2.0566,-2.0684,-2.1035,-2.1094,-2.125,-2.1689,-2.2031,-2.2305,-2.249,-2.2812,-2.3047,-2.3135,-2.3135,-2.3135,-2.3135,-2.3135,-2.3135,-2.3135,-2.3057,-2.2522,-2.1409,-1.9962,-1.902,-1.863,-1.7738,-1.7342,-1.7253,-1.709,-1.6927,-1.6927,-1.5869,-1.5379,-1.5296,-1.4496,-1.4088,-1.4088,-1.4088,-1.4088,-1.4088,-1.4088,-1.4088,-1.4088,-1.4088,-1.4088,-1.4088,-1.4088,-1.4088,-1.4088,-1.4088,-1.4088,-1.4088,-1.4088,-1.4088,-1.4088,-1.4088,-1.4088,-1.4088,-1.4088,-1.4088,-1.4068,-1.4008,-1.3808,-1.354,-1.318,-1.2919,-1.2728,-1.2358,-1.2305,-1.2305,-1.2305,-1.2305,-1.2305,-1.2305,-1.2305,-1.2305,-1.2305,-1.2305,-1.2305,-1.2305,-1.2305,-1.2305,-1.2305,-1.2305,-1.2432,-1.2808,-1.2979,-1.3273,-1.3552,-1.3868,-1.4021,-1.4088,-1.4088,-1.4088,-1.4088,-1.4088,-1.4088,-1.4088,-1.4088,-1.4088,-1.4088,-1.4088,-1.4088,-1.4088,-1.4088,-1.4088,-1.4088,-1.4088,-1.4128,-1.4208,-1.4436,-1.4603,-1.4743,-2.0566,-2.0566,-2.0566,-2.0566,-2.0742,-2.0967,-2.1201,-2.1416,-2.1699,-2.2129,-2.2373,-2.2588,-2.2793,-2.3008,-2.3135,-2.3135,-2.3135,-2.3135,-2.3135,-2.3135,-2.3135,-2.3135,-2.3135,-2.2832,-2.2197,-2.1234,-2.0376,-1.9766,-1.9195,-1.8868,-1.8868,-1.839,-1.8149,-1.8069,-1.6927,-1.6437,-1.6437,-1.5876,-1.5636,-1.5636,-1.5636,-1.5636,-1.5636,-1.5636,-1.5304,-1.4894,-1.4894,-1.4489,-1.4088,-1.4088,-1.4088,-1.4088,-1.4088,-1.4088,-1.4088,-1.4088,-1.4088,-1.4088,-1.4088,-1.4088,-1.4088,-1.4088,-1.4088,-1.4088,-1.4088,-1.3968,-1.3768,-1.348,-1.3287,-1.3039,-1.2599,-1.2512,-1.2472,-1.2325,-1.2305,-1.2305,-1.2305,-1.2305,-1.2305,-1.2305,-1.2305,-1.2305,-1.2305,-1.2305,-1.2305,-1.2305,-1.2438,-1.2645,-1.2953,-1.3253,-1.3554,-1.3848,-1.4008,-1.4088,-1.4088,-1.4088,-1.4088,-1.4088,-1.4088,-1.4088,-1.4088,-1.4088,-1.4088,-1.4088,-1.4088,-1.4088,-1.4088,-1.4088,-1.4088,-1.4088,-1.4088,-1.4088,-1.4108,-1.4255,-1.4402,-1.4563,-2.0566,-2.0566,-2.0566,-2.0566,-2.0937,-2.126,-2.1338,-2.1709,-2.2139,-2.2568,-2.2617,-2.2754,-2.3096,-2.3135,-2.3135,-2.3135,-2.3135,-2.3135,-2.3135,-2.3135,-2.3135,-2.3135,-2.3135,-2.2939,-2.2519,-2.21,-2.1494,-2.0684,-2.0605,-2.0566,-2.0566,-1.9687,-1.9274,-1.9204,-1.806,-1.7577,-1.7585,-1.7415,-1.7342,-1.7342,-1.7408,-1.7392,-1.7342,-1.7408,-1.673,-1.5696,-1.5696,-1.497,-1.4088,-1.4088,-1.4088,-1.4088,-1.4088,-1.4088,-1.4088,-1.4088,-1.4088,-1.4088,-1.4088,-1.4088,-1.4088,-1.4088,-1.4088,-1.4088,-1.4088,-1.4088,-1.4001,-1.3707,-1.3559,-1.3474,-1.2926,-1.2903,-1.2726,-1.2425,-1.2378,-1.2365,-1.2311,-1.2305,-1.2305,-1.2305,-1.2305,-1.2305,-1.2305,-1.2305,-1.2325,-1.2371,-1.2605,-1.2906,-1.3267,-1.3514,-1.3781,-1.4075,-1.4088,-1.4088,-1.4088,-1.4088,-1.4088,-1.4088,-1.4088,-1.4088,-1.4088,-1.4088,-1.4088,-1.4088,-1.4088,-1.4088,-1.4088,-1.4088,-1.4088,-1.4088,-1.4088,-1.4088,-1.4088,-1.4088,-1.4242,-1.4482,-2.0566,-2.0566,-2.0566,-2.0566,-2.0937,-2.1367,-2.1738,-2.2158,-2.2578,-2.2998,-2.3057,-2.3076,-2.3135,-2.3135,-2.3135,-2.3135,-2.3135,-2.3135,-2.3135,-2.3135,-2.3135,-2.3135,-2.3135,-2.2939,-2.2519,-2.21,-2.1641,-2.1143,-2.0752,-2.0566,-2.0566,-2.0479,-2.0401,-2.0323,-1.9274,-1.8798,-1.8718,-1.7738,-1.7342,-1.7367,-1.7763,-1.7623,-1.7375,-1.7772,-1.6953,-1.5696,-1.5696,-1.497,-1.4088,-1.4088,-1.4088,-1.4088,-1.4088,-1.4088,-1.4088,-1.4088,-1.4088,-1.4088,-1.4088,-1.4088,-1.4088,-1.4088,-1.4088,-1.4088,-1.4088,-1.4088,-1.4001,-1.3707,-1.3559,-1.354,-1.3206,-1.3146,-1.3046,-1.2815,-1.2761,-1.2592,-1.2338,-1.2305,-1.2305,-1.2305,-1.2305,-1.2305,-1.2305,-1.2305,-1.2412,-1.2741,-1.2802,-1.2993,-1.3554,-1.3539,-1.3781,-1.4075,-1.4088,-1.4088,-1.4088,-1.4088,-1.4088,-1.4088,-1.4088,-1.4088,-1.4088,-1.4088,-1.4088,-1.4088,-1.4088,-1.4088,-1.4088,-1.4088,-1.4088,-1.4088,-1.4088,-1.4088,-1.4088,-1.4088,-1.4115,-1.4155,-2.0566,-2.0566,-2.0566,-2.0566,-2.1143,-2.166,-2.1855,-2.2441,-2.293,-2.3115,-2.3135,-2.3135,-2.3135,-2.3135,-2.3135,-2.3135,-2.3135,-2.3135,-2.3135,-2.3135,-2.3135,-2.3135,-2.3135,-2.2939,-2.2519,-2.21,-2.167,-2.123,-2.0781,-2.0566,-2.0566,-2.082,-2.0937,-2.0937,-2.0451,-2.0203,-2.0203,-1.9712,-1.9325,-1.917,-1.9889,-1.9898,-1.9479,-1.9743,-1.9018,-1.768,-1.6252,-1.497,-1.4088,-1.4088,-1.4088,-1.4088,-1.4088,-1.4088,-1.4088,-1.4088,-1.4088,-1.4088,-1.4088,-1.4088,-1.4088,-1.4088,-1.4088,-1.4088,-1.4088,-1.4088,-1.4048,-1.3915,-1.3895,-1.3801,-1.3507,-1.3454,-1.3353,-1.3053,-1.2936,-1.2775,-1.2565,-1.2405,-1.2305,-1.2305,-1.2305,-1.2305,-1.2305,-1.2452,-1.2605,-1.2808,-1.306,-1.336,-1.3627,-1.3801,-1.3948,-1.4082,-1.4088,-1.4088,-1.4088,-1.4088,-1.4088,-1.4088,-1.4088,-1.4088,-1.4088,-1.4088,-1.4088,-1.4088,-1.4088,-1.4088,-1.4088,-1.4088,-1.4088,-1.4088,-1.4088,-1.4088,-1.3997,-1.3379,-1.3112,-1.3027]},{"header":{"parameterUnit":"m.s-1","parameterCategory":1,"la1":30.6,"la2":28.766,"lo1":-90.7593,"lo2":-88.6598,"dy":0.0162,"dx":0.0183,"nx":116,"ny":114,"refTime":"2024-06-20T12:00:00:Z","depth":0,"parameterNumber":3,"parameterNumberName":"V-component_of_WINDS"},"data":[0.0,0.0,0.0,0.0,0.0,0.0,0.0,0.0,0.0,0.0,0.0,0.0,0.0,0.0,0.0,0.0,0.0,0.0,0.0,0.0,0.0,0.0,0.0,0.0,0.0,0.0,0.0,0.0,0.0,0.0,0.0,0.0,0.0,0.0,0.0,0.0,0.0,0.0,0.0,0.0,0.0,0.0,0.0,0.0,0.0,0.0,0.0,0.0,0.0,0.0,0.0,0.0,0.0,0.0,0.0,0.0,0.0,0.0,0.0,0.0,0.0,0.0,0.0,0.0,0.0,0.0,0.0,0.0,0.0,0.0,0.0,0.0,0.0,0.0,0.0,0.0,0.0,0.0,0.0,0.0,0.0,0.0,0.0,0.0,0.0,0.0,0.0,0.0,0.0,0.0,0.0,0.0,0.0,0.0,0.0,0.0,0.0,0.0,0.0,0.0,0.0,0.0,0.0,0.0,0.0,0.0,0.0,0.0,0.0,0.0,0.0,0.0,0.0,0.0,0.0,0.0,0.0,0.0,0.0,0.0,0.0,0.0,0.0,0.0,0.0,0.0,0.0,0.0,0.0,0.0,0.0,0.0,0.0,0.0,0.0,0.0,0.0,0.0,0.0,0.0,0.0,0.0,0.0,0.0,0.0,0.0,0.0,0.0,0.0,0.0,0.0,0.0,0.0,0.0,0.0,0.0,0.0,0.0,0.0,0.0,0.0,0.0,0.0,0.0,0.0,0.0,0.0,0.0,0.0,0.0,0.0,0.0,0.0,0.0,0.0,0.0,0.0,0.0,0.0,0.0,0.0,0.0,0.0,0.0,0.0,0.0,0.0,0.0,0.0,0.0,0.0,0.0,0.0,0.0,0.0,0.0,0.0,0.0,0.0,0.0,0.0,0.0,0.0,0.0,0.0,0.0,0.0,0.0,0.0,0.0,0.0,0.0,0.0,0.0,0.0,0.0,0.0,0.0,0.0,0.0,0.0,0.0,0.0,0.0,0.0,0.0,0.0,0.0,0.0,0.0,0.0,0.0,0.0,0.0,0.0,0.0,0.0,0.0,0.0,0.0,0.0,0.0,0.0,0.0,0.0,0.0,0.0,0.0,0.0,0.0,0.0,0.0,0.0,0.0,0.0,0.0,0.0,0.0,0.0,0.0,0.0,0.0,0.0,0.0,0.0,0.0,0.0,0.0,0.0,0.0,0.0,0.0,0.0,0.0,0.0,0.0,0.0,0.0,0.0,0.0,0.0,0.0,0.0,0.0,0.0,0.0,0.0,0.0,0.0,0.0,0.0,0.0,0.0,0.0,0.0,0.0,0.0,0.0,0.0,0.0,0.0,0.0,0.0,0.0,0.0,0.0,0.0,0.0,0.0,0.0,0.0,0.0,0.0,0.0,0.0,0.0,0.0,0.0,0.0,0.0,0.0,0.0,0.0,0.0,0.0,0.0,0.0,0.0,0.0,0.0,0.0,0.0,0.0,0.0,0.0,0.0,0.0,0.0,0.0,0.0,0.0,0.0,0.0,0.0,0.0,0.0,0.0,0.0,0.0,0.0,0.0,0.0,0.0,0.0,0.0,0.0,0.0,0.0,0.0,0.0,0.0,0.0,0.0,0.0,0.0,0.0,0.0,0.0,0.0,0.0,0.0,0.0,0.0,0.0,0.0,0.0,0.0,0.0,0.0,0.0,0.0,0.0,0.0,0.0,0.0,0.0,0.0,0.0,0.0,0.0,0.0,0.0,0.0,0.0,0.0,0.0,0.0,0.0,0.0,0.0,0.0,0.0,0.0,0.0,0.0,0.0,0.0,0.0,0.0,0.0,0.0,0.0,0.0,0.0,0.0,0.0,0.0,0.0,0.0,0.0,0.0,0.0,0.0,0.0,0.0,0.0,0.0,0.0,0.0,0.0,0.0,0.0,0.0,0.0,0.0,0.0,0.0,0.0,0.0,0.0,0.0,0.0,0.0,0.0,0.0,0.0,0.0,0.0,0.0,0.0,0.0,0.0,0.0,0.0,0.0,0.0,0.0,0.0,0.0,0.0,0.0,0.0,0.0,0.0,0.0,0.0,0.0,0.0,0.0,0.0,0.0,0.0,0.0,0.0,0.0,0.0,0.0,0.0,0.0,0.0,0.0,0.0,0.0,0.0,0.0,0.0,0.0,0.0,0.0,0.0,0.0,0.0,0.0,0.0,0.0,0.0,0.0,0.0,0.0,0.0,0.0,0.0,0.0,0.0,0.0,0.0,0.0,0.0,0.0,0.0,0.0,0.0,0.0,0.0,0.0,0.0,0.0,0.0,0.0,0.0,0.0,0.0,0.0,0.0,0.0,0.0,0.0,0.0,0.0,0.0,0.0,0.0,0.0,0.0,0.0,0.0,0.0,0.0,0.0,0.0,0.0,0.0,0.0,0.0,0.0,0.0,0.0,0.0,0.0,0.0,0.0,0.0,0.0,0.0,0.0,0.0,0.0,0.0,0.0,0.0,0.0,0.0,0.0,0.0,0.0,0.0,0.0,0.0,0.0,0.0,0.0,0.0,0.0,0.0,0.0,0.0,0.0,0.0,0.0,0.0,0.0,0.0,0.0,0.0,0.0,0.0,0.0,0.0,0.0,0.0,0.0,0.0,0.0,0.0,0.0,0.0,0.0,0.0,0.0,0.0,0.0,0.0,0.0,0.0,0.0,0.0,0.0,0.0,0.0,0.0,0.0,0.0,0.0,0.0,0.0,0.0,0.0,0.0,0.0,0.0,0.0,0.0,0.0,0.0,0.0,0.0,0.0,0.0,0.0,0.0,0.0,0.0,0.0,0.0,0.0,0.0,0.0,0.0,0.0,0.0,0.0,0.0,0.0,0.0,0.0,0.0,0.0,0.0,0.0,0.0,0.0,0.0,0.0,0.0,0.0,0.0,0.0,0.0,0.0,0.0,0.0,0.0,0.0,0.0,0.0,0.0,0.0,0.0,0.0,0.0,0.0,0.0,0.0,0.0,0.0,0.0,0.0,0.0,0.0,0.0,0.0,0.0,0.0,0.0,0.0,0.0,0.0,0.0,0.0,0.0,0.0,0.0,0.0,0.0,0.0,0.0,0.0,0.0,0.0,0.0,0.0,0.0,0.0,0.0,0.0,0.0,0.0,0.0,0.0,0.0,0.0,0.0,0.0,0.0,0.0,0.0,0.0,0.0,0.0,0.0,0.0,0.0,0.0,0.0,0.0,0.0,0.0,0.0,0.0,0.0,0.0,0.0,0.0,0.0,0.0,0.0,0.0,0.0,0.0,0.0,0.0,0.0,0.0,0.0,0.0,0.0,0.0,0.0,0.0,0.0,0.0,0.0,0.0,0.0,0.0,0.0,0.0,0.0,0.0,0.0,0.0,0.0,0.0,0.0,0.0,0.0,0.0,0.0,0.0,0.0,0.0,0.0,0.0,0.0,0.0,0.0,0.0,0.0,0.0,0.0,0.0,0.0,0.0,0.0,0.0,0.0,0.0,0.0,0.0,0.0,0.0,0.0,0.0,0.0,0.0,0.0,0.0,0.0,0.0,0.0,0.0,0.0,0.0,0.0,0.0,0.0,0.0,0.0,0.0,0.0,0.0,0.0,0.0,0.0,0.0,0.0,0.0,0.0,0.0,0.0,0.0,0.0,0.0,0.0,0.0,0.0,0.0,0.0,0.0,0.0,0.0,0.0,0.0,0.0,0.0,0.0,0.0,0.0,0.0,0.0,0.0,0.0,0.0,0.0,0.0,0.0,0.0,0.0,0.0,0.0,0.0,0.0,0.0,0.0,0.0,0.0,0.0,0.0,0.0,0.0,0.0,0.0,0.0,0.0,0.0,0.0,0.0,0.0,0.0,0.0,0.0,0.0,0.0,0.0,0.0,0.0,0.0,0.0,0.0,0.0,0.0,0.0,0.0,0.0,0.0,0.0,0.0,0.0,0.0,0.0,0.0,0.0,0.0,0.0,0.0,0.0,0.0,0.0,0.0,0.0,0.0,0.0,0.0,0.0,0.0,0.0,0.0,0.0,0.0,0.0,0.0,0.0,0.0,0.0,0.0,0.0,0.0,0.0,0.0,0.0,0.0,0.0,0.0,0.0,0.0,0.0,0.0,0.0,0.0,0.0,0.0,0.0,0.0,0.0,0.0,0.0,0.0,0.0,0.0,0.0,0.0,0.0,0.0,0.0,0.0,0.0,0.0,0.0,0.0,0.0,0.0,0.0,0.0,0.0,0.0,0.0,0.0,0.0,0.0,0.0,0.0,0.0,0.0,0.0,0.0,0.0,0.0,0.0,0.0,0.0,0.0,0.0,0.0,0.0,0.0,0.0,0.0,0.0,0.0,0.0,0.0,0.0,0.0,0.0,0.0,0.0,0.0,0.0,0.0,0.0,0.0,0.0,0.0,0.0,0.0,0.0,0.0,0.0,0.0,0.0,0.0,0.0,0.0,0.0,0.0,0.0,0.0,0.0,0.0,0.0,0.0,0.0,0.0,0.0,0.0,0.0,0.0,0.0,0.0,0.0,0.0,0.0,0.0,0.0,0.0,0.0,0.0,0.0,0.0,0.0,0.0,0.0,0.0,0.0,0.0,0.0,0.0,0.0,0.0,0.0,0.0,0.0,0.0,0.0,0.0,0.0,0.0,0.0,0.0,0.0,0.0,0.0,0.0,0.0,0.0,0.0,0.0,0.0,0.0,0.0,0.0,0.0,0.0,0.0,0.0,0.0,0.0,0.0,0.0,0.0,0.0,0.0,0.0,0.0,0.0,0.0,0.0,0.0,0.0,0.0,0.0,0.0,0.0,0.0,0.0,0.0,0.0,0.0,0.0,0.0,0.0,0.0,0.0,0.0,0.0,0.0,0.0,0.0,0.0,0.0,0.0,0.0,0.0,0.0,0.0,0.0,0.0,0.0,0.0,0.0,0.0,0.0,0.0,0.0,0.0,0.0,0.0,0.0,0.0,0.0,0.0,0.0,0.0,0.0,0.0,0.0,0.0,0.0,0.0,0.0,0.0,0.0,0.0,0.0,0.0,0.0,0.0,0.0,0.0,0.0,0.0,0.0,0.0,0.0,0.0,0.0,0.0,0.0,0.0,0.0,0.0,0.0,0.0,0.0,0.0,0.0,0.0,0.0,0.0,0.0,0.0,0.0,0.0,0.0,0.0,0.0,0.0,0.0,0.0,0.0,0.0,0.0,0.0,0.0,0.0,0.0,0.0,0.0,0.0,0.0,0.0,0.0,0.0,0.0,0.0,0.0,0.0,0.0,0.0,0.0,0.0,0.0,0.0,0.0,0.0,0.0,0.0,0.0,0.0,0.0,0.0,0.0,0.0,0.0,0.0,0.0,0.0,0.0,0.0,0.0,0.0,0.0,0.0,0.0,0.0,0.0,0.0,0.0,0.0,0.0,0.0,0.0,0.0,0.0,0.0,0.0,0.0,0.0,0.0,0.0,0.0,0.0,0.0,0.0,0.0,0.0,0.0,0.0,0.0,0.0,0.0,0.0,0.0,0.0,0.0,0.0,0.0,0.0,0.0,0.0,0.0,0.0,0.0,0.0,0.0,0.0,0.0,0.0,0.0,0.0,0.0,0.0,0.0,0.0,0.0,0.0,0.0,0.0,0.0,0.0,0.0,0.0,0.0,0.0,0.0,0.0,0.0,0.0,0.0,0.0,0.0,0.0,0.0,0.0,0.0,0.0,0.0,0.0,0.0,0.0,0.0,0.0,0.0,0.0,0.0,0.0,0.0,0.0,0.0,0.0,0.0,0.0,0.0,0.0,0.0,0.0,0.0,0.0,0.0,0.0,0.0,0.0,0.0,0.0,0.0,0.0,0.0,0.0,0.0,0.0,0.0,0.0,0.0,0.0,0.0,0.0,0.0,0.0,0.0,0.0,0.0,0.0,0.0,0.0,0.0,0.0,0.0,0.0,0.0,0.0,0.0,0.0,0.0,0.0,0.0,0.0,0.0,0.0,0.0,0.0,0.0,0.0,0.0,0.0,0.0,0.0,0.0,0.0,0.0,0.0,0.0,0.0,0.0,0.0,0.0,0.0,0.0,0.0,0.0,0.0,0.0,0.0,0.0,0.0,0.0,0.0,0.0,0.0,0.0,0.0,-2.3828,0.0,0.0,0.0,0.0,0.0,0.0,0.0,0.0,0.0,0.0,0.0,0.0,0.0,0.0,0.0,0.0,0.0,0.0,0.0,0.0,0.0,0.0,0.0,0.0,-0.9149,-0.9284,-0.9491,-0.95,-0.955,-0.9691,0.0,0.0,0.0,0.0,0.0,-0.9698,-1.0135,-1.0588,-1.106,-1.1984,-1.2902,-1.3816,-1.4225,-1.3749,-1.2574,0.0,0.0,0.0,0.0,0.0,0.0,0.0,0.0,0.0,0.0,0.0,0.0,0.0,0.0,0.0,0.0,0.0,0.0,0.0,0.0,0.0,0.0,0.0,0.0,0.0,0.0,0.0,0.0,0.0,0.0,0.0,0.0,0.0,0.0,0.0,0.0,0.0,0.0,0.0,0.0,0.0,0.0,0.0,0.0,0.0,0.0,0.0,0.0,0.0,0.0,0.0,0.0,0.0,0.0,0.0,0.0,0.0,0.0,0.0,0.0,0.0,0.0,0.0,0.0,0.0,0.0,0.0,0.0,0.0,0.0,0.0,-2.6289,0.0,0.0,0.0,0.0,0.0,0.0,0.0,0.0,0.0,0.0,0.0,0.0,0.0,0.0,0.0,0.0,0.0,0.0,0.0,0.0,0.0,-0.912,-0.929,-0.9409,-0.9589,-0.9897,-0.9924,-0.9913,-0.9911,-0.9919,0.0,0.0,0.0,-0.9919,-0.9919,-1.0964,-1.1873,-1.2593,-1.3856,-1.5465,-1.7407,-1.8872,-1.8461,-1.6522,-1.6086,0.0,0.0,0.0,0.0,0.0,0.0,0.0,0.0,0.0,0.0,0.0,0.0,0.0,0.0,0.0,0.0,0.0,0.0,0.0,0.0,0.0,0.0,0.0,0.0,0.0,0.0,0.0,0.0,0.0,0.0,0.0,0.0,0.0,0.0,0.0,0.0,0.0,0.0,0.0,0.0,0.0,0.0,0.0,0.0,0.0,0.0,0.0,0.0,0.0,0.0,0.0,0.0,0.0,0.0,0.0,0.0,0.0,0.0,0.0,0.0,0.0,0.0,0.0,-3.3945,-3.4766,-3.4766,-3.4766,-3.4766,-3.4648,-3.2539,-3.1094,-3.0156,-2.8711,0.0,0.0,0.0,0.0,0.0,0.0,0.0,0.0,0.0,0.0,0.0,0.0,0.0,0.0,0.0,0.0,0.0,0.0,0.0,-0.923,-1.0059,-1.0162,-1.0546,-1.1497,-1.159,-1.1339,-1.0775,-1.0746,0.0,-0.9735,-1.037,-1.0746,-1.0746,-1.2341,-1.3248,-1.3351,-1.5879,-1.8386,-2.085,-2.1143,-2.1498,-2.179,-1.9636,-1.8185,-1.7277,0.0,0.0,0.0,0.0,0.0,0.0,0.0,0.0,0.0,0.0,0.0,0.0,0.0,0.0,0.0,0.0,0.0,0.0,0.0,0.0,0.0,0.0,0.0,0.0,0.0,0.0,0.0,0.0,0.0,0.0,0.0,0.0,0.0,0.0,0.0,0.0,0.0,0.0,0.0,0.0,0.0,-2.1172,-2.1523,0.0,0.0,0.0,0.0,0.0,0.0,0.0,0.0,0.0,0.0,0.0,0.0,0.0,-3.2148,-3.3848,-3.6348,-3.7578,-3.7617,-3.9336,-4.0176,-4.0176,-4.0176,-4.0176,-4.0156,-3.9824,0.0,-3.2871,-3.2656,0.0,0.0,0.0,0.0,0.0,0.0,0.0,0.0,0.0,0.0,0.0,0.0,0.0,0.0,0.0,0.0,0.0,0.0,0.0,0.0,0.0,-1.0697,-1.1417,-1.2477,-1.2989,-1.295,-1.2297,-1.2242,-1.1893,-1.1076,-1.1397,-1.1783,-1.2242,-1.4064,-1.6003,-1.7999,-2.0188,-2.1853,-2.2966,-2.3494,-2.3956,-2.4316,-2.3259,-2.1775,-1.9959,-1.8736,0.0,0.0,0.0,0.0,0.0,0.0,0.0,0.0,0.0,0.0,0.0,0.0,0.0,0.0,0.0,0.0,0.0,0.0,0.0,0.0,0.0,0.0,0.0,0.0,0.0,0.0,0.0,0.0,0.0,0.0,0.0,0.0,0.0,0.0,0.0,0.0,0.0,0.0,0.0,-2.1074,-2.3848,-2.3359,-2.4824,-2.5195,0.0,0.0,0.0,0.0,0.0,0.0,0.0,0.0,0.0,-3.4434,-3.5332,-3.6621,-3.834,-3.9941,-4.0742,-4.0742,-4.2012,-4.2617,-4.2617,-4.2617,-4.2617,-4.2617,-4.2617,-4.1308,-3.9004,-3.6582,-3.4648,-3.3066,0.0,0.0,0.0,0.0,-3.1328,-3.1523,0.0,0.0,0.0,0.0,0.0,0.0,0.0,0.0,0.0,0.0,0.0,0.0,-1.0837,-1.1724,-1.2723,-1.3968,-1.4617,-1.4672,-1.3949,-1.3721,-1.3262,-1.2444,-1.2407,-1.2804,-1.3647,-1.5979,-1.8837,-2.2177,-2.3456,-2.4322,-2.4745,-2.5428,-2.5887,-2.6139,-2.6229,-2.4943,-2.2656,-2.1561,-2.0004,-1.8135,0.0,0.0,0.0,0.0,0.0,0.0,0.0,0.0,0.0,0.0,0.0,0.0,0.0,0.0,0.0,0.0,0.0,0.0,0.0,0.0,0.0,0.0,0.0,0.0,0.0,0.0,0.0,0.0,0.0,0.0,0.0,0.0,0.0,0.0,0.0,0.0,0.0,-2.3809,-2.6035,-2.5176,-2.6992,-2.7559,0.0,0.0,0.0,0.0,0.0,0.0,-3.2812,-3.4883,-3.6816,-3.8555,-3.9453,-4.0625,-4.2168,-4.2988,-4.3398,-4.3418,-4.4062,-4.4375,-4.4375,-4.4375,-4.4375,-4.4375,-4.4375,-4.4375,-4.4062,-4.0195,-3.8105,-3.7187,-3.5664,-3.4922,-3.4844,-3.5703,-3.6035,-3.625,0.0,0.0,0.0,0.0,0.0,0.0,0.0,0.0,0.0,0.0,0.0,-1.0884,-1.2585,-1.3599,-1.4859,-1.6565,-1.6748,-1.6431,-1.5619,-1.4866,-1.4077,-1.3262,-1.3243,-1.3676,-1.4616,-1.8099,-2.1234,-2.3975,-2.4052,-2.4918,-2.6486,-2.6572,-2.7093,-2.7875,-2.8008,-2.7109,-2.539,-2.3691,-2.289,-2.248,-1.9199,0.0,0.0,0.0,0.0,0.0,0.0,0.0,0.0,0.0,0.0,0.0,0.0,0.0,0.0,0.0,0.0,0.0,0.0,0.0,0.0,0.0,0.0,0.0,0.0,0.0,0.0,0.0,0.0,0.0,0.0,0.0,0.0,0.0,0.0,0.0,0.0,0.0,0.0,-2.6973,-2.9863,0.0,0.0,0.0,0.0,-3.2949,-3.4668,-3.6426,-3.8125,-3.9121,-4.041,-4.209,-4.2988,-4.3887,-4.4805,-4.5664,-4.6094,-4.6094,-4.6152,-4.6172,-4.6172,-4.6172,-4.6172,-4.6172,-4.6172,-4.6172,-4.5957,-4.3262,-4.168,-4.0859,-3.9922,-3.9062,-3.8437,-3.9316,-3.9648,-3.9766,0.0,0.0,0.0,-0.8891,-0.8891,-0.8891,-0.8891,-0.8891,-0.8891,-0.8891,-1.0158,-1.1547,-1.2775,-1.4665,-1.6342,-1.7568,-1.8151,-1.8096,-1.7307,-1.6487,-1.6138,-1.6371,-1.5894,-1.6861,-1.9522,-2.1486,-2.3274,-2.487,-2.5428,-2.6005,-2.6621,-2.7198,-2.7648,-2.8005,-2.8042,-2.7794,-2.7207,-2.5488,-2.4141,-2.3008,-2.123,-1.9645,0.0,0.0,0.0,0.0,0.0,0.0,0.0,0.0,0.0,0.0,0.0,0.0,0.0,0.0,0.0,0.0,0.0,0.0,0.0,0.0,0.0,0.0,0.0,0.0,0.0,0.0,0.0,0.0,0.0,0.0,0.0,0.0,0.0,0.0,0.0,0.0,0.0,-3.0371,-3.3398,0.0,-3.2617,-3.4277,-3.582,-3.668,-3.8359,-3.9844,-4.0976,-4.2402,-4.3457,-4.4043,-4.4922,-4.5527,-4.582,-4.6133,-4.6308,-4.6308,-4.6308,-4.6308,-4.6308,-4.6308,-4.6308,-4.6308,-4.6308,-4.6308,-4.623,-4.5293,-4.4414,-4.3555,-4.2695,-4.2168,-4.1914,-4.2226,-4.2695,-4.3144,-0.8717,-0.8806,0.0,-0.8891,-0.8891,-0.8891,-0.8891,-0.8891,-0.8993,-0.9247,-1.0854,-1.2416,-1.3556,-1.5773,-1.7534,-1.8445,-1.8977,-1.9069,-1.8537,-1.7752,-1.7532,-1.8078,-1.7977,-1.9307,-2.2341,-2.364,-2.4771,-2.5736,-2.6621,-2.7178,-2.7467,-2.8025,-2.8486,-2.881,-2.8829,-2.873,-2.8462,-2.7417,-2.6016,-2.4414,-2.3535,-2.2148,-2.0488,0.0,0.0,0.0,0.0,0.0,0.0,0.0,0.0,0.0,0.0,0.0,0.0,0.0,0.0,0.0,0.0,0.0,0.0,0.0,0.0,0.0,0.0,0.0,0.0,0.0,0.0,0.0,0.0,0.0,0.0,0.0,0.0,0.0,0.0,0.0,-3.3476,-3.3476,-3.6523,-3.793,-3.6172,-3.7832,-3.9375,-4.0254,-4.166,-4.2832,-4.3672,-4.4805,-4.5449,-4.5449,-4.6289,-4.6738,-4.6738,-4.7031,-4.7187,-4.7187,-4.7187,-4.7187,-4.7187,-4.7187,-4.7187,-4.7187,-4.7187,-4.7187,-4.7187,-4.7187,-4.6836,-4.6191,-4.5039,-4.457,-4.457,-4.457,-4.4941,-4.5351,-0.8693,-0.8806,-0.8891,-0.8891,-0.8891,-0.8891,-0.8891,-0.8891,-0.9162,-0.9899,-1.1714,-1.3533,-1.5035,-1.6969,-1.8445,-1.9216,-1.9305,-1.9305,-1.9305,-1.8555,-1.8133,-1.8184,-1.9388,-2.0891,-2.2679,-2.4437,-2.5774,-2.664,-2.7505,-2.8332,-2.9102,-2.9121,-2.9583,-3.0398,-3.0506,-3.0059,-2.9294,-2.9484,-2.8613,-2.7031,-2.6133,-2.4746,-2.3105,0.0,0.0,0.0,0.0,0.0,0.0,0.0,0.0,0.0,0.0,0.0,0.0,0.0,0.0,0.0,0.0,0.0,0.0,0.0,0.0,0.0,0.0,0.0,0.0,0.0,0.0,0.0,0.0,0.0,0.0,0.0,0.0,0.0,-3.1094,-3.4004,-3.6133,-3.6191,-3.9238,-4.0664,-3.8965,-4.1055,-4.2871,-4.3711,-4.4551,-4.543,-4.6289,-4.6348,-4.6348,-4.6387,-4.7207,-4.7637,-4.7637,-4.8476,-4.8906,-4.8906,-4.8906,-4.8906,-4.8906,-4.8906,-4.8906,-4.8906,-4.8906,-4.8906,-4.8906,-4.8906,-4.8906,-4.873,-4.7031,-4.6367,-4.6348,-4.6348,-4.6328,-4.6308,-0.8517,-0.8708,-0.8891,-0.8891,-0.8891,-0.8891,-0.8891,-0.8891,-0.9162,-0.9899,-1.2196,-1.4136,-1.5106,-1.746,-1.9051,-1.9271,-1.9305,-1.9305,-1.9305,-1.8555,-1.8683,-2.0001,-2.2238,-2.403,-2.5271,-2.5904,-2.6678,-2.7544,-2.8371,-2.8871,-2.9102,-2.9756,-3.0179,-3.0417,-3.1083,-3.1263,-3.109,-3.1139,-3.0561,-2.9492,-2.8139,-2.6543,-2.4961,0.0,0.0,0.0,0.0,0.0,0.0,0.0,0.0,0.0,0.0,0.0,0.0,0.0,0.0,0.0,0.0,0.0,0.0,0.0,0.0,0.0,0.0,0.0,0.0,0.0,0.0,0.0,0.0,0.0,0.0,0.0,0.0,-3.5547,-3.5547,-3.7441,-3.9277,-4.0508,-4.2598,-4.3769,-4.3281,-4.4453,-4.5332,-4.5566,-4.5801,-4.6328,-4.7207,-4.7246,-4.7539,-4.8164,-4.8418,-4.8535,-4.8535,-4.8789,-4.8906,-4.8906,-4.8906,-4.8906,-4.8906,-4.8906,-4.8906,-4.8906,-4.8906,-4.8906,-4.8906,-4.8906,-4.8906,-4.8848,-4.8379,-4.7793,-4.7246,-4.7246,-4.6836,-4.6308,-0.8428,-0.8672,-0.8891,-0.8891,-0.8891,-0.8891,-0.8891,-0.8891,-0.9281,-1.0318,-1.2596,-1.4494,-1.5577,-1.786,-1.9305,-1.9305,-1.9601,-1.9656,-1.9308,-1.9179,-1.9956,-2.1859,-2.3776,-2.5321,-2.6393,-2.7231,-2.789,-2.839,-2.9236,-2.964,-2.966,-3.016,-3.059,-3.0968,-3.1468,-3.191,-3.2263,-3.2295,-3.2034,-3.1521,-3.0691,-2.8909,-2.6758,-2.6777,-2.5644,-2.3984,-2.3613,-2.293,-2.207,-2.1387,0.0,0.0,0.0,0.0,0.0,0.0,0.0,0.0,0.0,0.0,0.0,0.0,0.0,0.0,0.0,0.0,0.0,0.0,0.0,0.0,0.0,0.0,0.0,0.0,-3.6191,-3.8887,-4.0312,-4.1074,-4.1992,-4.332,-4.4707,-4.5547,-4.5547,-4.5996,-4.6445,-4.6816,-4.6836,-4.7226,-4.8105,-4.8144,-4.8379,-4.8887,-4.9258,-4.9433,-4.9433,-4.9785,-4.9941,-4.9941,-4.9941,-4.9941,-4.9941,-4.9941,-4.9941,-4.9941,-4.9941,-4.9941,-4.9941,-4.9941,-4.9941,0.0,0.0,0.0,0.0,0.0,-4.7598,-4.6836,-0.8403,-0.866,-0.888,-0.8891,-0.888,-0.888,-0.8891,-0.8891,-0.9433,-1.091,-1.2776,-1.4552,-1.6098,-1.8009,-1.9161,-1.9161,-1.9987,-2.0244,-1.962,-2.0335,-2.1594,-2.3426,-2.4417,-2.5501,-2.6706,-2.8294,-2.914,-2.9236,-3.0025,-3.0398,-3.0398,-3.0494,-3.0968,-3.1718,-3.191,-3.2372,-3.3045,-3.3096,-3.3128,-3.3134,-3.3173,-3.1293,-2.8475,-2.8555,-2.7969,-2.7031,-2.6269,-2.5508,-2.4609,-2.3008,0.0,0.0,0.0,0.0,0.0,0.0,0.0,0.0,0.0,0.0,0.0,0.0,0.0,0.0,0.0,0.0,0.0,0.0,0.0,0.0,0.0,0.0,0.0,0.0,-3.9648,-4.1523,-4.457,-4.4414,-4.4277,-4.5058,-4.582,-4.6308,-4.6308,-4.6387,-4.6777,-4.7539,-4.7695,-4.8125,-4.9004,0.0,0.0,0.0,0.0,-5.0332,-5.0332,-5.1035,-5.1406,-5.1406,-5.1406,-5.1406,-5.1406,-5.1406,-5.1406,-5.1406,-5.1406,-5.1406,-5.1406,-5.1406,-5.1406,-5.123,-4.9668,-4.9043,-4.9023,-4.8945,-4.8418,-4.7754,-0.8361,-0.8579,-0.8771,-0.888,-0.8818,-0.8771,-0.888,-0.8891,-0.9433,-1.091,-1.2293,-1.3703,-1.5178,-1.714,-1.8335,-1.8335,-1.9659,-2.0739,-2.1288,-2.2079,-2.28,-2.3483,-2.4969,-2.635,-2.7621,-2.8602,-2.9429,-3.016,-3.0321,-3.0398,-3.0417,-3.1121,-3.1545,-3.1756,-3.3103,-3.3795,-3.3949,-3.3968,-3.3968,-3.391,-3.3301,-3.1884,-3.0146,-3.021,-2.9297,-2.7949,-2.7832,-2.7695,-2.7383,-2.6367,-2.5547,-2.4805,-2.3945,0.0,0.0,0.0,0.0,0.0,0.0,0.0,0.0,0.0,0.0,0.0,0.0,0.0,0.0,0.0,0.0,0.0,0.0,0.0,0.0,-3.8437,-4.1641,-4.4238,-4.4902,-4.5469,-4.5859,-4.6035,-4.6191,-4.6308,-4.6308,-4.6933,-4.7422,-4.7598,-4.8242,-4.9023,-4.9902,-4.9941,-5.0254,-5.0898,-5.1074,-5.1172,-5.1172,-5.1328,-5.1406,-5.1406,0.0,0.0,-5.1406,-5.1406,-5.1406,-5.1406,-5.1406,-5.1406,-5.1406,-5.1406,-5.1406,-5.1308,-5.0332,-4.9941,-4.9863,-4.916,-4.8789,-4.8652,-0.8361,-0.8554,-0.8753,-0.8869,-0.8852,-0.8829,-0.888,-0.8891,-0.9433,-1.091,-1.2064,-1.3323,-1.4845,-1.6351,-1.7273,-1.7344,-1.8913,-2.0611,-2.2281,-2.2776,-2.3304,-2.3964,-2.5702,-2.6992,-2.7731,-2.9068,-2.9967,-3.0398,-3.0398,-3.0609,-3.1064,-3.1506,-3.216,-3.2987,-3.3833,-3.443,-3.4853,-3.4853,-3.4853,-3.4814,-3.4416,-3.3504,-3.2319,-3.1585,-3.0784,-2.9929,-2.911,-2.8798,-2.8686,-2.7869,-2.7305,-2.6797,-2.5977,-2.5098,-2.4212,0.0,0.0,0.0,0.0,0.0,0.0,0.0,0.0,0.0,0.0,0.0,0.0,0.0,0.0,-3.3984,-3.5723,0.0,-4.0312,-4.1601,-4.3594,-4.5156,-4.5586,-4.6035,-4.6308,-4.6308,-4.6308,-4.6465,-4.6914,-4.7344,-4.7969,-4.8848,-4.9297,-4.9922,-5.0762,-5.0801,-5.0976,-5.1387,-5.1816,-5.2051,-5.2051,-5.248,-5.2695,-5.2695,-5.2695,-5.2695,-5.2695,-5.2695,-5.2695,-5.2695,-5.2695,-5.2441,-5.2012,-5.1582,-5.1406,-5.1367,-5.0957,-5.0801,-5.0742,-5.0312,-4.9902,-4.9551,-0.8348,-0.853,-0.8689,-0.8869,-0.8869,-0.8858,-0.8891,-0.8891,-0.9382,-1.0707,-1.1744,-1.2889,-1.4268,-1.5457,-1.6393,-1.7028,-1.8593,-2.0519,0.0,-2.3162,-2.3676,-2.4683,-2.6371,-2.7475,-2.7834,-2.9531,-3.0398,-3.0398,-3.0571,-3.1006,-3.1718,-3.2025,-3.291,-3.4199,-3.4372,-3.4834,-3.5493,-3.5493,-3.5493,-3.5493,-3.5493,-3.5084,-3.4276,-3.2704,-3.2,-3.1669,-3.0101,-2.946,-2.9227,-2.8613,-2.8309,-2.8062,-2.7422,-2.6757,-2.6,-2.505,-2.4216,0.0,0.0,0.0,0.0,0.0,0.0,0.0,0.0,0.0,-3.1816,-3.4394,-3.6152,-3.7891,-4.0,-4.123,-4.2617,-4.4668,-4.5137,-4.5508,-4.6191,-4.6308,-4.6287,-4.6267,-4.6285,-4.6641,-4.7519,-4.7754,-4.8516,-5.0078,-5.0332,-5.0723,-5.1367,-5.1562,-5.1641,-5.1641,-5.25,-5.2949,-5.2949,-5.3652,-5.4004,-5.4004,-5.4004,-5.4004,-5.4004,-5.4004,-5.4004,-5.4004,-5.4004,-5.3594,-5.2871,-5.1977,-5.1613,-5.1597,-5.1424,-5.1346,-5.1342,-5.1386,-5.0996,-5.043,-0.8335,-0.8428,-0.8526,-0.8846,-0.8806,-0.876,-0.888,-0.8891,-0.9196,-1.0018,-1.0955,-1.1851,-1.2678,-1.4247,-1.6212,-1.8614,-1.9762,-2.1108,-2.2868,-2.3676,-2.4506,-2.5521,-2.6691,-2.774,-2.866,-2.9806,-3.0398,-3.0398,-3.1179,-3.1602,-3.1737,-3.3218,-3.4007,-3.4218,-3.5007,-3.5411,-3.5493,-3.5493,-3.5493,-3.5493,-3.5493,-3.5449,-3.518,-3.343,-3.237,-3.1684,-3.0775,-2.9995,-2.938,-2.9224,-2.8706,-2.8106,-2.8082,-2.7993,-2.774,-2.6792,0.0,-2.536,-2.6024,-2.7554,-2.9195,-3.0072,-3.0966,-3.2832,0.0,0.0,-3.7187,-3.9785,-4.1055,-4.1777,-4.207,-4.3476,-4.4668,-4.4941,-4.5644,-4.6191,-4.6289,-4.6308,-4.6257,-4.6134,-4.6235,-4.6641,-4.7519,-4.8301,-4.916,-5.0137,-5.0859,-5.1308,-5.1406,-5.2129,-5.2558,-5.2558,-5.3398,-5.3848,-5.3848,-5.3945,-5.4004,-5.4004,-5.4004,-5.4004,-5.4004,-5.4004,-5.4004,-5.4004,-5.4004,-5.3945,-5.3787,-5.2802,-5.237,-5.2298,-5.1523,-5.1183,-5.1156,-5.1338,-5.1348,-5.1269,-0.8187,-0.8322,-0.8476,-0.8736,-0.8806,-0.884,-0.8891,-0.8891,-0.9162,-0.9899,-1.0344,-1.1045,-1.2263,-1.3491,-1.5121,-1.7335,-1.8848,-2.042,-2.2189,-2.3492,-2.4394,-2.482,-2.6281,-2.7344,-2.7907,-2.9393,-3.0254,-3.0398,-3.1275,-3.1948,-3.2429,-3.3622,-3.4468,-3.4968,-3.5353,-3.5493,-3.5493,-3.5493,-3.5493,-3.5493,-3.5493,-3.5493,-3.5315,-3.3564,-3.241,-3.1557,-3.0198,-2.9517,0.0,-2.8698,-2.8318,-2.7967,-2.7517,-2.7379,-2.7201,-2.626,-2.6477,0.0,-2.9862,-3.1043,0.0,0.0,-3.5232,-3.6621,-3.9297,-3.9726,-4.0156,-4.2226,-4.332,-4.4062,-4.457,-4.5273,-4.5762,0.0,-4.6055,-4.6308,-4.6308,-4.6228,-4.6162,-4.6116,-4.6067,-4.6629,-4.8104,-4.8574,-4.9375,-5.0781,-5.1211,-5.1621,-5.2129,-5.25,-5.293,-5.3437,-5.4297,-5.4765,-5.4765,-5.5254,-5.5508,-5.5508,-5.5509,-5.5469,-5.5391,-5.5391,-5.5356,-5.5256,-5.4729,-5.4515,-5.4443,-5.3526,-5.3152,-5.3051,-5.2194,-5.1822,-5.1755,-5.1411,-5.1258,-5.1235,-0.8077,-0.8267,-0.8467,-0.8669,-0.8818,-0.8891,-0.8891,-0.8891,-0.9095,-0.9624,-0.9866,-1.0592,-1.2128,-1.3079,-1.4249,-1.586,-1.7689,-1.9479,-2.1258,-2.2942,-2.4061,-2.4502,-2.6042,-2.7081,-2.7514,-2.9152,-3.0089,-3.0299,-3.1232,-3.2102,-3.291,-3.3795,-3.4661,-3.5493,-3.5493,-3.5493,-3.5493,-3.5493,-3.5493,-3.5493,-3.5493,-3.5372,-3.4949,-3.3237,-3.2064,-3.1141,-2.964,-2.8794,-2.8371,-2.8074,-2.7813,-2.7561,-2.7234,-2.7129,-2.7045,-2.6583,-2.7715,-2.9613,-3.1924,0.0,0.0,-3.707,-3.8648,-3.9941,-4.1055,-4.1797,-4.2656,-4.4121,-4.4922,-4.5547,-4.6172,-4.6308,0.0,-4.6308,-4.6308,-4.6286,-4.6245,-4.615,-4.6084,-4.6026,-4.595,-4.653,-4.8131,-4.8547,-4.9453,-5.1269,-5.1621,-5.2031,-5.2676,-5.3116,-5.3643,-5.4287,-5.5107,-5.555,-5.555,-5.6175,-5.6488,-5.6488,-5.6498,-5.6443,-5.6347,-5.6326,-5.629,-5.6154,-5.5533,-5.5248,-5.519,-5.4278,-5.3901,-5.3819,-5.2934,-5.2423,-5.213,-5.1641,-5.1302,-5.1105,-0.8077,-0.8267,-0.8467,-0.8669,-0.8818,-0.8891,-0.8891,-0.8891,-0.8908,-0.8925,-0.9557,-1.0592,-1.2128,-1.3079,-1.396,-1.4876,-1.6731,-1.856,-2.0227,-2.2027,-2.3731,-2.5311,-2.6339,-2.727,-2.8072,-2.9339,-2.9999,-3.0013,-3.1162,-3.2102,-3.291,-3.3795,-3.4661,-3.5493,-3.5493,-3.5493,-3.5493,-3.5493,-3.5493,-3.5493,-3.5493,-3.4988,-3.4064,-3.2372,-3.1198,-3.0333,-2.941,-2.8063,-2.6794,-2.7621,-2.7332,-2.6794,-2.768,-2.796,0.0,-2.8863,-3.0275,0.0,0.0,0.0,-3.7136,-3.819,-4.0389,-4.2734,-4.4453,-4.4863,-4.5137,-4.6035,-4.623,-4.6269,-4.6308,-4.6308,-4.6308,-4.6308,-4.6308,-4.6253,-4.6132,-4.6102,-4.6026,-4.5834,-4.5853,-4.6256,0.0,-4.8126,-4.9453,-5.1269,-5.2187,-5.2676,-5.2695,-5.4175,-5.5052,-5.5072,-5.5791,-5.6163,-5.6163,-5.6202,-5.6202,-5.6202,-5.6211,-5.622,-5.6208,-5.6212,-5.6186,-5.6207,-5.6169,-5.6169,-5.6073,-5.5072,-5.4667,-5.457,-5.3722,-5.2779,-5.1934,-5.2029,-5.1664,-5.1087,-0.797,-0.8092,-0.8267,-0.8479,-0.8652,-0.8794,-0.888,-0.8891,-0.8891,-0.8891,-0.9963,0.0,0.0,0.0,0.0,0.0,-1.643,-1.8003,-1.9412,-2.1534,-2.3066,-2.3786,-2.515,-2.6079,-2.6487,-2.7958,-2.8896,-2.9202,-3.0696,-3.1659,-3.2122,-3.2949,-3.3487,-3.3776,-3.3776,-3.4103,-3.4641,-3.4641,-3.4968,-3.5449,-3.4872,-3.4449,-3.4007,-3.2333,-3.0794,-2.9429,0.0,-2.7563,-2.6563,-2.6274,-2.5986,-2.5793,-2.6101,0.0,0.0,-2.9256,-3.0837,-3.2347,0.0,0.0,-3.9353,-4.1437,-4.304,-4.4433,-4.5605,-4.5859,-4.5781,-4.5508,-4.5449,-4.5254,-4.4687,-4.5058,-4.5449,-4.5449,-4.5839,-4.6138,-4.6116,-4.645,-4.6471,-4.5873,-4.624,0.0,0.0,0.0,0.0,-5.0326,-5.1191,-5.2122,-5.324,-5.4366,-5.5233,-5.5821,-5.6059,-5.6209,-5.6209,-5.6209,-5.6209,-5.6209,-5.6054,-5.5996,-5.5998,-5.5902,-5.5857,-5.5857,-5.5857,-5.5857,-5.5838,-5.5491,-5.5378,-5.5261,-5.4453,-5.3914,-5.3568,-5.3029,-5.2318,-5.1568,-0.7914,-0.8009,-0.8144,-0.8267,-0.853,0.0,0.0,0.0,0.0,0.0,0.0,0.0,0.0,0.0,0.0,0.0,0.0,-1.6853,-1.7964,-2.012,-2.1679,-2.2429,-2.3804,-2.4745,-2.5152,-2.6264,-2.7093,-2.7698,-2.8878,-2.9851,-3.0682,-3.1181,-3.1802,-3.2468,-3.2468,-3.2929,-3.3737,-3.3737,-3.4064,-3.4507,-3.3641,-3.3122,-3.266,-3.0987,-2.9448,0.0,-2.7274,-2.6621,-2.6063,-2.5495,-2.5303,-2.5341,0.0,0.0,-2.8025,-3.026,-3.2189,-3.4395,0.0,-3.9758,-4.1257,-4.3583,-4.4824,-4.5605,-4.6172,-4.6055,-4.5586,-4.4726,-4.4297,-4.3806,-4.2904,-4.323,-4.3828,-4.4414,-4.489,-4.5509,-4.6374,-4.6528,-4.6567,-4.6605,-4.6817,-4.7309,0.0,0.0,0.0,-5.024,-5.1393,-5.2463,-5.3529,-5.4648,-5.5507,-5.6071,-5.6051,-5.6032,-5.6032,-5.6032,-5.6032,-5.6032,-5.5876,-5.5818,-5.5818,-5.5742,-5.5703,-5.5703,-5.5703,-5.5703,-5.5703,-5.5703,-5.5703,-5.5645,-5.5126,-5.4741,-5.4434,-5.3876,-5.2933,-5.1856,-0.7941,-0.8023,-0.8115,0.0,0.0,0.0,0.0,0.0,0.0,0.0,0.0,0.0,0.0,0.0,0.0,0.0,0.0,0.0,-1.5993,-1.791,0.0,-2.1316,-2.2356,-2.3254,-2.4061,-2.4335,-2.4862,-2.5627,-2.5985,-2.703,-2.8725,-2.8725,-2.9704,-3.1482,-3.1494,-3.1936,-3.2686,-3.2699,-3.2737,-3.2699,-3.1891,-3.1064,-3.016,-2.8525,-2.7351,-2.6486,-2.5649,-2.5341,0.0,0.0,0.0,0.0,0.0,0.0,0.0,0.0,0.0,-3.7475,-3.946,-4.1191,-4.285,-4.462,-4.5683,-4.6289,-4.623,-4.5566,-4.4668,-4.3691,-4.2811,-4.1908,0.0,0.0,-4.1678,-4.3203,-4.3607,-4.4514,-4.6857,-4.6471,-4.6451,0.0,0.0,0.0,0.0,0.0,0.0,-5.1067,0.0,-5.3547,-5.364,-5.5066,-5.5876,-5.5876,-5.5761,-5.5703,-5.5703,-5.5703,-5.5703,-5.5703,-5.5703,-5.5703,-5.5703,-5.5703,-5.5703,-5.5703,-5.5703,-5.5703,-5.5703,-5.5703,-5.5703,-5.5703,-5.5703,-5.5222,-5.4549,-5.4549,-5.3491,-5.2029,0.0,0.0,0.0,0.0,0.0,0.0,0.0,0.0,0.0,0.0,0.0,0.0,0.0,0.0,0.0,0.0,0.0,0.0,-1.5316,-1.6953,0.0,0.0,-2.0669,-2.1547,-2.2373,-2.364,-2.4449,-2.4823,-2.6071,-2.7029,-2.7669,-2.7669,-2.7945,-2.8422,-2.8586,-2.9078,-2.9857,-3.0009,-3.0448,-3.0968,-3.0102,-2.9621,-2.9313,-2.8294,-2.7351,-2.6563,-2.6351,0.0,0.0,0.0,0.0,0.0,0.0,0.0,-3.3094,0.0,0.0,-3.9549,-4.1857,-4.3382,-4.4574,-4.5683,-4.6133,-4.6133,-4.5488,-4.4668,-4.3411,-4.1244,-4.009,-3.9002,-3.7417,0.0,0.0,-4.1512,-4.3634,0.0,-4.6894,-4.7317,0.0,0.0,0.0,-4.9125,-5.001,-5.0087,0.0,0.0,-5.2452,-5.2914,-5.4201,-5.5203,-5.5742,-5.5742,-5.5722,-5.5703,-5.5703,-5.5703,-5.5703,-5.5703,-5.5703,-5.5703,-5.5703,-5.5703,-5.5703,-5.5703,-5.5703,-5.5703,-5.5703,-5.5703,-5.5703,-5.5703,-5.5703,-5.5568,-5.5395,-5.5395,-5.4722,-5.3741,0.0,0.0,0.0,0.0,0.0,0.0,0.0,0.0,0.0,0.0,0.0,0.0,0.0,0.0,0.0,0.0,0.0,0.0,0.0,-1.578,-1.717,-1.8501,-1.912,-2.0023,-2.1198,-2.2116,-2.2627,-2.2741,0.0,0.0,-2.496,-2.496,-2.5401,-2.6208,-2.6308,-2.7029,-2.8151,-2.8352,-2.872,0.0,0.0,-2.8005,-2.7909,-2.7082,-2.6467,0.0,0.0,0.0,0.0,0.0,0.0,-3.0448,-3.1679,-3.3519,-3.5682,-3.7904,0.0,-4.1788,-4.3616,-4.4815,-4.5683,-4.6172,-4.6016,-4.5389,-4.4114,-4.2866,-4.1123,-3.8097,-3.7084,0.0,-3.3874,0.0,0.0,0.0,0.0,0.0,-4.724,-4.7567,-4.799,0.0,-4.9663,0.0,-5.1144,-5.1568,-5.2356,0.0,-5.3318,-5.3472,-5.4453,-5.5261,-5.5703,-5.5703,-5.5703,-5.5703,-5.5703,-5.5703,-5.5703,-5.5703,-5.5703,-5.5703,-5.5703,-5.5703,-5.5703,-5.5703,0.0,-5.5703,-5.5703,-5.5703,-5.5703,-5.5703,-5.5703,-5.5703,-5.5703,-5.5703,-5.5184,-5.4376,0.0,0.0,0.0,0.0,0.0,0.0,0.0,0.0,0.0,0.0,0.0,0.0,0.0,0.0,0.0,0.0,0.0,0.0,0.0,0.0,-1.5883,-1.7301,-1.773,-1.8632,-2.0136,-2.0393,-2.0503,0.0,0.0,0.0,0.0,0.0,0.0,0.0,-2.4426,-2.5238,-2.6613,-2.6833,-2.7007,-2.7058,-2.6491,-2.6332,-2.6351,0.0,0.0,0.0,0.0,0.0,0.0,0.0,-3.1198,-3.2506,-3.418,-3.6392,-3.8728,-4.0643,-4.2344,-4.3812,-4.486,-4.572,-4.6308,-4.6308,-4.5566,-4.4345,-4.2549,-4.0645,-3.8296,-3.4854,0.0,-3.3103,-3.0744,0.0,-3.6075,-3.7878,0.0,-4.3513,-4.7683,-4.7586,-4.7971,-5.0414,-5.0779,-5.1183,-5.1991,-5.2856,-5.3722,-5.4587,-5.4664,-5.4664,-5.4664,-5.5318,-5.5703,-5.5703,-5.5703,-5.5703,-5.5703,-5.5703,-5.5703,-5.5703,-5.5703,-5.5703,-5.5703,-5.5703,-5.5703,-5.5703,-5.5703,0.0,-5.5703,-5.5703,-5.5703,-5.5703,-5.5703,-5.5703,-5.5703,-5.5703,-5.5184,-5.4376,0.0,0.0,0.0,0.0,0.0,0.0,0.0,0.0,0.0,0.0,0.0,0.0,0.0,0.0,0.0,0.0,0.0,0.0,0.0,0.0,0.0,-1.5981,-1.6716,-1.755,-1.85,0.0,0.0,0.0,0.0,0.0,0.0,0.0,0.0,0.0,0.0,-2.2645,-2.294,-2.3303,-2.3839,-2.4454,-2.4504,-2.4928,-2.5514,0.0,0.0,0.0,0.0,0.0,0.0,0.0,-3.2378,-3.5141,-3.6815,-3.8666,-4.0585,-4.2305,-4.3625,-4.4758,-4.5673,-4.6103,-4.6308,-4.6308,-4.5098,-4.3447,-4.1645,-3.8817,0.0,0.0,0.0,-3.0023,-2.9451,-3.2153,0.0,-3.7647,0.0,0.0,0.0,0.0,-4.8586,0.0,0.0,0.0,0.0,0.0,0.0,0.0,0.0,-5.5491,-5.5491,-5.5607,-5.5703,-5.5703,-5.5703,-5.5703,-5.5703,-5.5703,-5.5703,-5.5703,-5.5703,-5.5703,-5.5703,-5.5703,-5.5703,-5.5703,-5.5703,0.0,-5.5703,-5.5703,-5.5703,-5.5703,-5.5703,-5.5703,-5.5703,-5.5703,-5.5184,-5.4376,0.0,0.0,0.0,0.0,0.0,0.0,0.0,-0.9777,-1.031,-1.1216,-1.1978,-1.2483,-1.254,-1.3216,-1.3696,0.0,0.0,0.0,0.0,0.0,0.0,0.0,0.0,0.0,0.0,0.0,0.0,0.0,0.0,0.0,0.0,0.0,0.0,0.0,0.0,0.0,0.0,0.0,0.0,0.0,0.0,0.0,0.0,0.0,0.0,0.0,0.0,0.0,0.0,0.0,-3.1698,-3.468,-3.7719,-3.9565,-4.103,-4.322,-4.4284,-4.4958,-4.5842,-4.621,-4.6191,-4.5742,-4.4316,-4.2204,-3.9058,0.0,0.0,0.0,0.0,-2.8258,-2.7294,0.0,0.0,0.0,0.0,0.0,0.0,0.0,0.0,0.0,0.0,0.0,0.0,0.0,0.0,0.0,0.0,-5.5703,-5.5703,-5.5703,-5.5703,-5.5703,-5.5703,-5.5703,-5.5703,-5.5703,-5.5703,-5.5703,-5.5703,-5.5703,-5.5703,-5.5703,-5.5703,-5.5703,-5.5703,0.0,-5.5703,-5.5703,-5.5703,-5.5703,-5.5703,-5.5703,-5.5703,-5.5703,-5.5184,-5.4376,0.0,0.0,0.0,0.0,0.0,0.0,-0.9883,-1.0157,-1.0791,-1.2154,-1.3196,-1.3627,-1.3147,-1.3742,-1.4147,0.0,0.0,0.0,0.0,0.0,0.0,0.0,0.0,0.0,0.0,0.0,0.0,0.0,0.0,0.0,0.0,0.0,0.0,0.0,0.0,0.0,0.0,0.0,0.0,0.0,0.0,0.0,0.0,0.0,0.0,0.0,0.0,0.0,0.0,0.0,-3.016,-3.2506,-3.643,-3.8719,-4.0412,-4.2742,-4.3877,-4.4597,-4.5577,-4.6055,-4.6055,-4.5215,-4.3555,-4.1055,-3.6855,-3.4237,0.0,0.0,-2.7072,-2.7024,-2.5832,0.0,0.0,0.0,0.0,0.0,0.0,0.0,0.0,0.0,0.0,0.0,0.0,0.0,0.0,0.0,0.0,0.0,-5.5703,-5.5703,-5.5703,-5.5703,-5.5703,-5.5703,-5.5703,-5.5703,-5.5703,-5.5703,-5.5703,-5.5703,-5.5703,-5.5703,-5.5703,-5.5703,-5.5703,0.0,0.0,-5.5703,-5.5703,-5.5703,-5.5703,-5.5703,-5.5684,-5.5511,-5.4914,-5.4107,0.0,0.0,0.0,0.0,0.0,0.0,-0.9883,-1.0723,-1.1551,-1.239,-1.3449,-1.4126,-1.4085,-1.4627,-1.4701,0.0,0.0,0.0,0.0,0.0,0.0,0.0,0.0,0.0,0.0,0.0,0.0,0.0,0.0,0.0,0.0,0.0,0.0,0.0,0.0,0.0,0.0,0.0,0.0,0.0,0.0,0.0,0.0,0.0,0.0,0.0,0.0,0.0,0.0,0.0,0.0,-2.8832,-3.1545,-3.5084,-3.845,-3.955,0.0,0.0,-4.4706,-4.5547,-4.5937,-4.5195,-4.3144,-4.0351,-3.6738,0.0,0.0,0.0,-2.6226,-2.5919,-2.6554,-2.7576,-2.9629,0.0,0.0,0.0,0.0,0.0,0.0,0.0,0.0,0.0,0.0,0.0,0.0,0.0,0.0,0.0,-5.5703,-5.5703,-5.5703,-5.5703,-5.5703,-5.5703,-5.5703,-5.5703,-5.5703,-5.5703,-5.5703,-5.5703,-5.5703,-5.5703,-5.5703,-5.5703,-5.5703,0.0,0.0,-5.5703,-5.5703,-5.5703,-5.5703,-5.5703,-5.5607,-5.4876,-5.4068,-5.3203,0.0,0.0,0.0,0.0,0.0,0.0,-1.0,-1.0505,-1.1246,-1.2459,-1.3529,-1.4188,-1.4188,-1.4516,-1.4614,-1.4288,0.0,0.0,0.0,0.0,0.0,0.0,0.0,0.0,0.0,0.0,0.0,0.0,0.0,0.0,0.0,0.0,0.0,0.0,0.0,0.0,0.0,0.0,0.0,0.0,0.0,0.0,0.0,0.0,0.0,0.0,0.0,0.0,0.0,0.0,0.0,0.0,-2.8313,-3.0487,0.0,0.0,-3.9265,-4.1347,-4.3443,-4.4679,-4.5195,-4.4414,-4.2305,-3.9355,-3.5312,0.0,0.0,-2.6626,-2.5768,-2.5615,-2.5945,-2.6679,-2.8103,-3.0786,-3.2165,-3.4507,0.0,0.0,0.0,0.0,0.0,0.0,0.0,0.0,0.0,0.0,0.0,0.0,-5.5703,-5.5703,-5.5703,-5.5703,-5.5703,-5.5703,-5.5703,-5.5703,-5.5703,-5.5703,-5.5703,-5.5703,-5.5703,-5.5703,-5.5703,-5.5703,-5.5703,0.0,0.0,-5.5703,-5.5703,-5.5645,-5.5164,-5.4972,-5.4876,-5.403,-5.3164,-5.2375,0.0,0.0,0.0,0.0,0.0,-0.9359,-1.014,-1.0397,-1.0939,-1.2186,-1.307,-1.3654,-1.3822,-1.381,-1.3893,-1.4114,-1.4184,0.0,0.0,0.0,0.0,0.0,0.0,0.0,0.0,0.0,0.0,0.0,-1.9364,0.0,0.0,0.0,0.0,0.0,0.0,0.0,0.0,0.0,0.0,0.0,0.0,0.0,0.0,0.0,0.0,0.0,0.0,0.0,0.0,0.0,0.0,0.0,0.0,0.0,0.0,0.0,-3.6666,-3.8862,-4.1536,-4.3175,-4.3938,-4.3162,-4.1203,-3.8346,0.0,0.0,-2.8769,-2.6133,-2.5572,-2.5558,-2.5558,-2.6007,-2.6992,-2.8927,-3.0125,-3.2275,-3.6488,0.0,0.0,0.0,0.0,0.0,0.0,0.0,0.0,0.0,0.0,0.0,-5.5703,-5.5703,-5.5703,-5.5703,-5.5703,-5.5703,-5.5703,-5.5703,-5.5703,-5.5703,-5.5703,-5.5703,-5.5703,-5.5703,-5.5703,-5.5703,-5.5703,0.0,0.0,-5.5703,-5.5549,-5.528,-5.4722,-5.4337,-5.401,-5.3145,-5.2433,-5.1875,0.0,0.0,0.0,0.0,0.0,0.0,-1.0263,-1.0583,-1.0882,-1.1447,-1.1873,-1.2347,-1.295,-1.248,-1.2453,-1.3243,-1.3429,0.0,0.0,0.0,0.0,0.0,0.0,0.0,0.0,0.0,-1.7686,-1.8512,-1.9364,0.0,0.0,0.0,0.0,0.0,0.0,0.0,0.0,0.0,0.0,0.0,0.0,0.0,-2.4206,0.0,0.0,0.0,0.0,0.0,0.0,0.0,0.0,0.0,0.0,-2.5928,0.0,0.0,-3.3603,-3.6219,-3.8916,-4.096,-4.215,-4.1404,-3.985,-3.7398,0.0,-3.0765,-2.8769,-2.6133,-2.5644,-2.5703,-2.5703,-2.5644,-2.6423,-2.8888,-3.0694,-3.3243,-3.7392,0.0,0.0,0.0,0.0,0.0,0.0,0.0,0.0,0.0,0.0,0.0,-5.5703,-5.5703,-5.5703,-5.5703,-5.5703,-5.5703,-5.5703,-5.5703,-5.5703,-5.5703,-5.5703,-5.5703,-5.5703,-5.5703,-5.5703,0.0,0.0,0.0,0.0,-5.5703,-5.5222,-5.4511,-5.4491,-5.3972,-5.3106,-5.2241,-5.1914,-5.1798,0.0,0.0,0.0,0.0,0.0,0.0,-0.9734,-0.9914,-1.0275,-1.0992,-1.1205,-1.1562,-1.231,-1.1765,-1.1643,-1.2417,-1.3114,0.0,0.0,0.0,0.0,0.0,0.0,0.0,0.0,0.0,-1.7649,-1.7955,-1.9418,-2.0144,0.0,0.0,0.0,0.0,0.0,0.0,0.0,0.0,0.0,0.0,0.0,-2.2427,-2.3244,0.0,0.0,0.0,0.0,0.0,0.0,0.0,0.0,0.0,0.0,0.0,0.0,-2.7717,-3.0467,0.0,-3.4756,-3.6403,-3.7531,-3.6816,-3.5329,-3.339,-3.0839,-2.8941,-2.7326,-2.5894,-2.5644,-2.5703,-2.5703,-2.5644,-2.6814,-3.0534,-3.1513,0.0,0.0,0.0,0.0,0.0,0.0,0.0,0.0,0.0,0.0,0.0,0.0,0.0,-5.5665,-5.5184,-5.5126,-5.5684,-5.5703,-5.5703,-5.5703,-5.5703,-5.5703,-5.5703,-5.5703,-5.5703,-5.5703,-5.5703,-5.5703,0.0,0.0,0.0,0.0,-5.4876,-5.4376,-5.3549,-5.2972,-5.2549,-5.2222,-5.1375,-5.1087,-5.1029,0.0,0.0,0.0,0.0,0.0,0.0,-0.955,-0.9672,-0.9917,-1.0418,-1.0505,-1.0835,-1.1632,-1.1046,-1.0893,-1.1659,-1.2584,0.0,0.0,0.0,0.0,0.0,0.0,0.0,-1.5082,-1.6467,-1.7512,-1.8184,-1.9619,-2.0465,-2.0754,-2.11,-2.0908,0.0,0.0,0.0,0.0,0.0,0.0,0.0,-2.1254,-2.1639,-2.1927,0.0,0.0,0.0,0.0,0.0,0.0,0.0,0.0,0.0,0.0,0.0,0.0,0.0,-2.739,-2.9712,0.0,-3.3179,-3.4126,-3.3672,-3.2506,-3.1018,-2.9303,-2.7845,-2.662,-2.5775,-2.5652,-2.5703,-2.5703,-2.5664,-2.6719,-3.0039,-3.103,0.0,0.0,0.0,0.0,0.0,0.0,0.0,0.0,0.0,0.0,0.0,0.0,0.0,-5.4722,-5.428,-5.4241,-5.4741,-5.4761,-5.4761,-5.4761,-5.5068,-5.5241,-5.5241,-5.5549,-5.5703,-5.5703,-5.5703,-5.5703,0.0,0.0,0.0,0.0,-5.4145,-5.351,-5.2664,-5.2125,-5.1722,-5.1395,-5.0875,-5.0702,-5.0702,0.0,0.0,0.0,0.0,0.0,0.0,0.0,-0.9761,-0.9798,-0.9798,-0.9863,-1.0188,-1.0935,-1.0345,-1.0213,-1.0954,-1.1876,0.0,0.0,0.0,0.0,0.0,0.0,0.0,-1.5189,-1.6118,-1.7356,-1.8915,-1.9908,-2.0773,-2.1523,-2.2389,-2.1947,-2.0427,-2.1177,0.0,0.0,0.0,0.0,0.0,-2.0792,-2.0966,0.0,0.0,0.0,0.0,0.0,0.0,0.0,0.0,0.0,0.0,0.0,0.0,0.0,0.0,0.0,0.0,0.0,-3.0867,-3.1594,-3.1536,-3.0868,-2.9823,-2.8251,-2.7295,0.0,-2.5755,-2.5658,-2.5742,-2.5859,-2.582,-2.6426,-2.8359,-3.0013,0.0,0.0,0.0,0.0,0.0,0.0,0.0,0.0,0.0,0.0,0.0,0.0,0.0,-5.3203,-5.3145,-5.3106,-5.3106,-5.3049,-5.3087,-5.3203,-5.3991,-5.4414,-5.4414,-5.5164,-5.5511,-5.5511,-5.5511,-5.5511,0.0,0.0,0.0,0.0,-5.3433,-5.2606,-5.1818,-5.1818,-5.1356,-5.0702,-5.0702,-5.0702,-5.0702,0.0,0.0,0.0,0.0,0.0,0.0,0.0,0.0,0.0,0.0,-0.9863,-0.9968,-1.0151,-1.0063,-1.0036,0.0,0.0,0.0,0.0,0.0,0.0,0.0,0.0,0.0,-1.5189,-1.6657,-1.7606,-1.801,-2.0158,-2.1312,-2.1523,-2.2389,-2.2235,-2.1235,-2.1427,-2.1062,0.0,0.0,0.0,0.0,-2.0492,-2.0542,0.0,0.0,0.0,0.0,-2.0966,-2.1386,0.0,0.0,0.0,0.0,0.0,0.0,0.0,0.0,-2.3744,-2.4572,-2.5409,0.0,-2.7701,-2.7046,-2.6747,-2.6525,0.0,-2.5947,-2.5832,0.0,0.0,-2.6113,-2.7441,-2.7148,-2.8125,-3.2461,0.0,0.0,0.0,0.0,0.0,0.0,0.0,0.0,0.0,0.0,0.0,0.0,0.0,-5.251,-5.3164,-5.2568,-5.2222,-5.2222,-5.1606,-5.1895,-5.3203,-5.3395,-5.351,-5.351,-5.3703,-5.3799,-5.3799,-5.3799,-5.3799,0.0,0.0,0.0,-5.251,-5.2299,-5.1722,-5.0971,-5.0971,-5.0856,-5.0702,-5.0702,-5.0702,-5.0702,0.0,0.0,0.0,0.0,0.0,0.0,0.0,0.0,0.0,0.0,-0.9933,-0.9996,-0.9996,-1.0011,-1.0039,0.0,0.0,0.0,0.0,0.0,0.0,0.0,0.0,-1.5189,-1.5189,-1.6484,-1.7529,-1.8299,-2.0081,-2.135,-2.21,-2.2581,-2.2331,-2.1485,-2.1119,-2.0716,0.0,0.0,0.0,-1.9846,-2.0243,0.0,0.0,0.0,0.0,0.0,-2.0398,-2.0694,0.0,-2.152,-2.2245,-2.2917,0.0,0.0,0.0,0.0,-2.2607,-2.3118,-2.3879,-2.5313,-2.6486,-2.6005,-2.5928,-2.5977,-2.6041,0.0,0.0,0.0,0.0,0.0,-2.7461,0.0,0.0,0.0,0.0,0.0,0.0,0.0,0.0,0.0,0.0,0.0,0.0,0.0,0.0,0.0,0.0,-5.1568,-5.2029,-5.1606,-5.1356,-5.1356,-5.0933,-5.1125,-5.2029,-5.2414,-5.2606,-5.2606,-5.301,-5.3203,-5.3203,-5.3203,-5.3203,0.0,0.0,0.0,-5.1875,-5.151,-5.1087,-5.0702,-5.0702,-5.0702,-5.0702,-5.0702,-5.0702,-5.0702,0.0,0.0,0.0,0.0,0.0,0.0,0.0,0.0,0.0,0.0,0.0,0.0,0.0,0.0,0.0,0.0,0.0,0.0,0.0,0.0,0.0,0.0,-1.5132,-1.5266,-1.5407,-1.6118,-1.7318,-1.8992,-2.0004,-2.1273,-2.2812,-2.3062,-2.2677,-2.1696,-2.0735,-2.0331,0.0,0.0,0.0,-1.9399,-2.013,0.0,0.0,0.0,0.0,0.0,0.0,0.0,0.0,-2.1273,-2.2018,-2.2501,-2.1748,0.0,0.0,0.0,0.0,0.0,-2.3666,-2.5351,-2.6601,-2.6447,-2.6524,-2.6651,-2.6624,0.0,0.0,0.0,0.0,0.0,0.0,0.0,0.0,0.0,0.0,0.0,0.0,0.0,0.0,0.0,0.0,0.0,0.0,0.0,0.0,0.0,0.0,-5.0702,-5.0702,-5.0702,-5.0702,-5.0702,-5.0702,-5.0702,-5.0702,-5.1375,-5.1722,-5.1741,-5.2472,-5.2818,-5.2818,-5.2818,-5.2818,-5.2779,0.0,0.0,-5.1664,-5.0971,-5.0702,-5.0702,-5.0702,-5.0702,-5.0702,-5.0702,-5.0702,-5.0702,0.0,0.0,0.0,0.0,0.0,0.0,0.0,0.0,0.0,0.0,0.0,0.0,0.0,0.0,0.0,0.0,0.0,0.0,0.0,0.0,0.0,-1.4055,-1.4805,-1.5561,-1.6272,-1.6426,-1.7318,-1.8992,-2.0562,-2.1831,-2.2831,-2.4312,-2.4197,-2.2705,-2.11,-2.0427,-2.0465,-2.0465,-2.0424,-2.0385,0.0,0.0,0.0,0.0,0.0,0.0,0.0,0.0,0.0,-2.0662,-2.0816,-2.0939,-2.0733,0.0,0.0,0.0,0.0,0.0,-2.3802,-2.5493,-2.6593,-2.5774,-2.6217,-2.666,-2.5947,0.0,0.0,0.0,0.0,0.0,0.0,0.0,0.0,0.0,0.0,0.0,0.0,0.0,0.0,0.0,0.0,0.0,0.0,0.0,0.0,0.0,0.0,-5.0702,-5.0702,-5.0702,-5.0702,-5.0702,-5.0702,-5.0702,-5.0702,-5.0818,-5.0875,-5.0894,-5.101,-5.1068,-5.1068,-5.1068,-5.1068,-5.1068,0.0,-5.0875,-5.0856,-5.0741,-5.0702,-5.0702,-5.0702,-5.0702,-5.0702,-5.0702,-5.0702,-5.0702,0.0,0.0,0.0,0.0,0.0,0.0,0.0,0.0,0.0,0.0,0.0,0.0,0.0,0.0,0.0,0.0,0.0,0.0,0.0,0.0,-1.306,-1.3857,-1.5182,-1.6092,-1.6484,-1.6926,-1.8017,-1.9764,-2.097,-2.226,-2.3608,-2.3949,-2.2952,-2.0868,-2.0055,-1.9707,-1.974,-1.9783,-2.0096,-2.0542,0.0,0.0,0.0,0.0,0.0,0.0,0.0,0.0,0.0,0.0,-2.0898,-2.121,-2.0701,0.0,0.0,0.0,0.0,0.0,-2.3133,-2.4527,-2.5609,-2.6092,-2.7583,-2.8853,-2.8452,0.0,0.0,0.0,0.0,0.0,0.0,0.0,0.0,0.0,0.0,0.0,0.0,0.0,0.0,0.0,0.0,0.0,0.0,0.0,0.0,0.0,0.0,0.0,-5.0702,-5.0702,-5.0702,-5.0702,-5.0702,-5.0702,-5.0702,-5.0702,-5.0702,-5.0702,-5.0702,-5.0702,-5.0702,-5.0702,-5.0702,-5.0702,0.0,-5.0702,-5.0702,-5.0702,-5.0702,-5.0702,-5.0702,-5.0702,-5.0702,-5.0702,-5.0702,-5.0702,0.0,0.0,0.0,0.0,0.0,0.0,0.0,0.0,0.0,0.0,0.0,0.0,0.0,0.0,0.0,0.0,0.0,0.0,0.0,-1.1738,-1.2988,-1.3613,-1.5496,-1.6708,-1.7106,-1.7728,-1.891,-2.0704,-2.1326,-2.2458,-2.4013,-2.2926,-2.1347,-1.9425,-1.9013,-1.8838,-1.8851,-1.9114,-1.9612,-2.0247,0.0,0.0,0.0,0.0,0.0,0.0,0.0,0.0,0.0,0.0,0.0,0.0,0.0,0.0,0.0,-2.0723,-2.0525,-2.0931,-2.2823,-2.3855,-2.4852,-2.6757,-2.8546,-3.0,-3.0602,0.0,0.0,0.0,0.0,0.0,0.0,0.0,0.0,0.0,0.0,0.0,0.0,0.0,0.0,0.0,0.0,0.0,0.0,0.0,0.0,0.0,0.0,0.0,-5.0683,-5.0702,-5.0702,-5.0702,-5.0702,-5.0702,-5.0702,-5.0702,-5.0702,-5.0702,-5.0702,-5.0702,-5.0702,-5.0702,-5.0702,-5.0702,-5.0702,-5.0702,-5.0702,-5.0702,-5.0702,-5.0702,-5.0702,-5.0702,-5.0702,-5.0702,-5.0702,-5.0702,0.0,0.0,0.0,0.0,0.0,0.0,0.0,0.0,0.0,0.0,0.0,0.0,0.0,0.0,0.0,0.0,0.0,0.0,0.0,-1.1766,-1.2752,-1.2878,-1.526,-1.7317,-1.8876,-1.9039,-1.9913,-2.1602,-2.1648,-2.2206,-2.3151,-2.1474,-2.0605,-2.0429,-1.8808,-1.8086,-1.8125,-1.8944,-1.9334,-1.9451,-2.0273,0.0,0.0,0.0,0.0,0.0,0.0,0.0,0.0,0.0,0.0,0.0,0.0,0.0,-2.0684,-2.0605,-2.0585,-2.1146,-2.3624,-2.4347,-2.5015,-2.7566,-2.7736,0.0,-3.033,-3.0252,0.0,0.0,0.0,0.0,0.0,0.0,0.0,0.0,0.0,0.0,0.0,0.0,0.0,0.0,0.0,0.0,0.0,0.0,0.0,0.0,0.0,0.0,-5.0644,-5.0702,-5.0702,-5.0702,-5.0702,-5.0702,-5.0702,-5.0702,-5.0702,-5.0702,-5.0702,-5.0702,-5.0702,-5.0702,-5.0702,-5.0702,-5.0702,-5.0702,-5.0702,-5.0702,-5.0702,-5.0702,-5.0702,-5.0702,-5.0702,-5.0702,-5.0702,-5.0702,0.0,0.0,0.0,0.0,0.0,0.0,0.0,0.0,0.0,0.0,0.0,0.0,0.0,0.0,0.0,0.0,0.0,0.0,0.0,-1.1305,-1.2426,-1.3503,-1.5038,-1.6637,-1.8325,-1.8919,-2.0039,-2.1756,-2.2312,-2.2502,-2.2337,-2.1671,-2.0519,-1.8945,-1.8281,-1.8008,-1.7988,-1.7773,-1.8613,-2.0098,-1.9883,-1.959,0.0,0.0,0.0,0.0,0.0,0.0,0.0,0.0,-1.9297,-1.9453,-2.0332,-2.0605,-2.0605,-2.0605,-2.0605,-2.1054,-2.3099,-2.4413,-2.5704,-2.7784,0.0,0.0,0.0,0.0,0.0,0.0,0.0,0.0,0.0,0.0,0.0,0.0,0.0,0.0,0.0,0.0,0.0,0.0,0.0,0.0,0.0,0.0,0.0,0.0,0.0,0.0,-4.9067,-4.9086,-4.9086,-4.9086,-4.9086,-4.9336,-4.9894,-4.9894,-5.0164,-5.0702,-5.0702,-5.0702,-5.0702,-5.0702,-5.0702,-5.0702,-5.0702,-5.0702,-5.0702,-5.0702,-5.0702,-5.0702,-5.0702,-5.0702,-5.0702,-5.0702,-5.0702,-5.0702,0.0,0.0,0.0,0.0,0.0,0.0,0.0,0.0,0.0,0.0,0.0,0.0,0.0,0.0,0.0,0.0,0.0,0.0,-1.0222,-1.1028,-1.202,-1.319,-1.4622,-1.5937,-1.7087,-1.8501,-1.9951,-2.1424,-2.2289,-2.2305,-2.1484,-2.1211,-2.0117,-1.8398,-1.8125,-1.8008,-1.7969,-1.7363,-1.8144,-1.9746,-1.9434,-1.8965,0.0,0.0,0.0,0.0,0.0,0.0,0.0,0.0,-1.8652,-1.9043,-1.9902,-2.0371,-2.0605,-2.0605,-2.0781,-2.1328,-2.2793,-2.4219,-2.5762,0.0,0.0,0.0,0.0,0.0,0.0,0.0,0.0,0.0,0.0,0.0,0.0,0.0,0.0,0.0,0.0,0.0,0.0,0.0,0.0,0.0,0.0,0.0,0.0,0.0,0.0,0.0,0.0,-4.8105,-4.8105,-4.8105,-4.8105,-4.8394,-4.8971,-4.899,-4.9298,-4.9875,-4.9875,-5.0164,-5.0702,-5.0702,-5.0702,-5.0702,-5.0702,-5.0702,-5.0702,-5.0702,-5.0702,-5.0702,-5.0702,-5.0702,-5.0702,-5.0702,-5.0702,-5.0702,0.0,0.0,0.0,0.0,0.0,0.0,0.0,0.0,0.0,0.0,0.0,0.0,0.0,0.0,0.0,0.0,0.0,0.0,-1.0293,-1.1057,-1.1522,-1.1605,-1.4033,-1.5381,-1.5391,-1.7949,-1.9707,-2.0586,-2.1445,-2.1426,-2.0566,-1.9707,-1.9297,-1.9258,-1.8398,-1.8008,-1.8008,-1.7988,-1.8008,-1.8086,-1.8945,-1.8242,-1.6816,0.0,0.0,0.0,0.0,0.0,0.0,0.0,-1.7266,-1.8144,-1.9023,-1.9902,-2.0605,-2.0605,-2.1211,-2.2109,-2.2969,-2.3809,0.0,0.0,0.0,0.0,0.0,0.0,0.0,0.0,0.0,0.0,0.0,0.0,0.0,0.0,0.0,0.0,0.0,0.0,0.0,0.0,0.0,0.0,0.0,0.0,0.0,0.0,0.0,0.0,0.0,-4.8086,-4.8086,-4.8086,-4.8086,-4.8086,-4.8086,-4.8086,-4.8086,-4.8105,-4.8105,-4.899,-5.0664,-5.0683,-5.0683,-5.0683,-5.0702,-5.0702,-5.0702,-5.0702,-5.0702,-5.0702,-5.0702,-5.0702,-5.0702,-5.0702,-5.0702,-5.0702,0.0,0.0,0.0,0.0,0.0,0.0,0.0,0.0,0.0,0.0,0.0,0.0,0.0,0.0,0.0,0.0,0.0,0.0,-1.0293,-1.0522,-1.0948,-1.1579,-1.2915,-1.3915,-1.4473,-1.6445,-1.8203,-1.9687,-1.9941,-1.9629,-1.8789,-1.9121,-1.8965,-1.8398,-1.8769,-1.8574,-1.7969,-1.7344,-1.7793,-1.8887,-1.8535,-1.8086,-1.7637,0.0,0.0,0.0,0.0,0.0,0.0,0.0,0.0,0.0,-1.8828,-1.9902,-2.0605,-2.0605,-2.1621,-2.2793,-2.3066,-2.5098,0.0,0.0,0.0,0.0,0.0,0.0,0.0,0.0,0.0,0.0,0.0,0.0,0.0,0.0,0.0,0.0,0.0,0.0,0.0,0.0,0.0,0.0,0.0,0.0,0.0,0.0,0.0,0.0,0.0,-4.6336,-4.6336,-4.6336,-4.6336,-4.6644,-4.7259,-4.7259,-4.7548,-4.8105,-4.8105,-4.8375,-4.8894,-4.951,-4.9779,-4.9817,-5.0433,-5.0702,-5.0702,-5.0702,-5.0702,-5.0702,-5.0702,-5.0702,-5.0702,-5.0702,-5.0702,-5.0702,0.0,0.0,0.0,0.0,0.0,0.0,0.0,0.0,0.0,0.0,0.0,-1.021,0.0,0.0,0.0,0.0,0.0,0.0,0.0,-1.0293,-1.0684,-1.1562,-1.2422,-1.3594,-1.5098,-1.6152,-1.7207,-1.8262,-1.8613,-1.8516,-1.8027,-1.8887,-1.9023,-1.8555,-1.9434,-1.9336,-1.8457,-1.7598,-1.7812,-1.873,-1.8203,-1.7793,-1.7519,0.0,0.0,0.0,0.0,0.0,0.0,0.0,0.0,0.0,-1.7949,-1.8867,-1.9707,-2.0391,-2.1562,-2.2832,-2.3867,0.0,0.0,0.0,0.0,0.0,0.0,0.0,0.0,0.0,0.0,0.0,0.0,0.0,0.0,0.0,0.0,0.0,0.0,0.0,0.0,0.0,0.0,0.0,0.0,0.0,0.0,0.0,0.0,0.0,0.0,-4.5586,-4.5586,-4.5586,-4.5586,-4.5836,-4.6374,-4.6374,-4.6624,-4.7105,-4.7105,-4.7105,-4.7144,-4.8336,-4.8875,-4.8913,-4.9433,-4.9663,-4.9683,-5.0029,-5.0183,-5.0221,-5.0548,-5.0702,-5.0702,-5.0702,-5.0702,-5.0702,0.0,0.0,-0.996,-1.0078,0.0,0.0,0.0,0.0,0.0,0.0,-1.0156,-1.0198,0.0,0.0,0.0,-1.0289,-1.0293,-1.0293,0.0,-1.0293,-1.0684,-1.1562,-1.252,-1.4121,-1.6523,-1.6582,-1.6582,-1.6582,-1.7441,-1.7871,-1.7891,-1.8769,-1.9219,-1.9336,-2.0137,-2.0,-1.9121,-1.8242,-1.7871,-1.7871,-1.7871,-1.7402,-1.6797,-1.7578,0.0,0.0,0.0,0.0,0.0,0.0,0.0,0.0,-1.6797,-1.7422,-1.8437,-2.0019,-2.1211,-2.2539,-2.4922,0.0,0.0,0.0,0.0,0.0,0.0,0.0,0.0,0.0,0.0,0.0,0.0,0.0,0.0,0.0,0.0,0.0,0.0,0.0,0.0,0.0,0.0,0.0,0.0,0.0,0.0,0.0,0.0,0.0,0.0,-4.5586,-4.5586,-4.5586,-4.5586,-4.5586,-4.5586,-4.5586,-4.5586,-4.5586,-4.5586,-4.5586,-4.5643,-4.7259,-4.8029,-4.8105,-4.8105,-4.8105,-4.8163,-4.8952,-4.9279,-4.9356,-5.0144,-5.0452,-5.0452,-5.0452,-5.051,-5.0567,0.0,0.0,-1.0065,-1.009,0.0,0.0,0.0,0.0,-1.0113,-1.0175,-1.0194,-1.0205,-1.021,-1.0199,0.0,-1.0212,-1.0279,-1.0293,-1.0293,-1.0293,-1.0684,-1.1562,-1.3047,-1.4414,-1.5644,-1.5684,-1.5684,-1.5684,-1.6543,-1.6973,-1.6992,-1.7871,-1.8633,-1.9316,-1.9492,-1.9102,-1.8223,-1.7344,-1.6973,-1.6973,-1.6973,-1.6875,-1.6719,-1.6914,-1.6328,0.0,0.0,0.0,0.0,0.0,0.0,0.0,-1.75,-1.832,-1.9082,-1.9473,-2.1133,-2.3105,0.0,0.0,0.0,0.0,0.0,0.0,0.0,0.0,0.0,0.0,0.0,0.0,0.0,0.0,0.0,0.0,0.0,0.0,0.0,0.0,0.0,0.0,0.0,0.0,0.0,0.0,0.0,0.0,0.0,0.0,-4.5586,-4.5586,-4.5586,-4.5586,-4.5586,-4.5586,-4.5586,-4.5586,-4.5586,0.0,-4.5586,-4.5586,-4.5624,-4.6682,-4.7509,-4.8105,-4.8105,-4.8105,-4.8105,-4.8298,-4.8375,-4.8394,-4.8586,-4.8663,-4.8663,-4.8663,-4.9086,-4.9683,0.0,0.0,0.0,0.0,0.0,0.0,0.0,0.0,-1.0113,-1.0156,-1.0177,-1.0197,-1.0191,-1.0232,0.0,0.0,-1.0287,-1.0293,-1.0293,-1.0293,-1.0879,-1.2168,-1.3437,-1.4316,-1.4766,-1.4785,-1.4785,-1.4785,-1.5234,-1.5879,-1.6738,-1.8027,-1.9082,-1.9922,-1.9922,-1.9434,-1.8535,-1.7246,-1.6699,-1.6699,-1.6699,-1.6699,-1.6699,-1.6699,-1.6152,-1.5391,-1.5391,0.0,0.0,0.0,0.0,0.0,0.0,0.0,-1.8301,-1.9551,-2.0859,-2.2363,0.0,0.0,0.0,0.0,0.0,0.0,0.0,0.0,0.0,0.0,0.0,0.0,0.0,0.0,0.0,0.0,0.0,0.0,0.0,0.0,0.0,0.0,0.0,0.0,0.0,0.0,0.0,0.0,0.0,-4.5586,-4.5586,-4.5586,-4.5586,-4.5586,-4.5586,-4.5586,-4.5586,-4.5586,-4.5586,-4.5586,-4.5586,-4.5586,-4.5605,-4.6067,-4.6509,-4.6894,-4.6894,-4.6894,-4.6932,-4.7355,-4.7528,-4.7567,-4.7952,-4.8105,-4.8105,-4.8105,-4.8394,-4.8779,0.0,0.0,0.0,0.0,0.0,0.0,0.0,0.0,0.0,-1.0113,-1.0163,-1.0207,-1.0206,-1.0269,-1.0293,0.0,0.0,0.0,-1.0293,-1.0449,-1.1172,-1.2617,-1.3457,-1.3887,-1.3887,-1.3887,-1.3965,-1.4102,-1.4102,-1.5156,-1.7187,-1.8477,-1.9629,-2.0586,-2.0449,-1.9883,-1.8965,-1.7383,-1.6602,-1.6484,-1.6484,-1.6484,-1.6484,-1.6484,-1.6035,-1.5391,-1.5391,-1.5391,-1.5449,-1.5742,0.0,0.0,0.0,0.0,-1.7344,-1.9525,-2.0244,-2.1064,0.0,0.0,0.0,0.0,0.0,0.0,0.0,0.0,0.0,0.0,0.0,0.0,0.0,0.0,0.0,0.0,0.0,0.0,0.0,0.0,0.0,0.0,0.0,0.0,0.0,0.0,0.0,0.0,0.0,-4.5586,-4.5586,-4.5586,-4.5586,-4.5586,-4.5586,-4.5586,-4.5586,-4.5586,-4.5586,-4.5586,-4.5586,-4.5586,-4.5586,-4.5586,-4.5586,-4.5586,-4.5586,-4.5586,-4.5663,-4.6374,-4.6682,-4.674,-4.7413,-4.7663,-4.7663,-4.7663,-4.7759,-4.7894,0.0,0.0,0.0,0.0,0.0,0.0,0.0,0.0,0.0,0.0,-1.0187,-1.0194,-1.0192,-1.0254,-1.0293,-1.0293,-1.0293,-1.0293,-1.0293,0.0,0.0,-1.1758,-1.2598,-1.3066,-1.3066,-1.3066,-1.3398,-1.4102,-1.4102,-1.5762,0.0,0.0,-1.9043,-2.0566,-1.9805,-1.8984,-1.8105,-1.7129,-1.6269,-1.5566,-1.5566,-1.5566,-1.5566,-1.5566,-1.5508,-1.5391,-1.5391,-1.5391,-1.5625,-1.7148,-1.7734,0.0,0.0,0.0,0.0,-1.8244,-1.8846,0.0,0.0,0.0,0.0,0.0,0.0,0.0,0.0,0.0,0.0,0.0,0.0,0.0,0.0,0.0,0.0,0.0,0.0,0.0,0.0,0.0,0.0,0.0,0.0,0.0,0.0,0.0,0.0,0.0,-4.5586,-4.5586,-4.5586,-4.5586,-4.5586,-4.5586,-4.5586,-4.5586,-4.5586,-4.5586,-4.5586,-4.5586,-4.5586,-4.5586,-4.5586,-4.5586,-4.5586,-4.5586,-4.5586,-4.5586,-4.5605,-4.572,-4.5759,-4.5778,-4.5893,-4.5932,-4.5932,-4.5932,-4.6413,-4.7067,0.0,0.0,0.0,0.0,0.0,0.0,0.0,0.0,0.0,0.0,0.0,-1.0206,-1.0197,-1.0252,-1.0293,-1.0293,-1.0293,-1.0293,-1.0293,-1.0664,0.0,-1.1582,-1.1973,-1.2168,-1.2168,-1.2168,-1.2578,-1.3437,-1.2949,0.0,0.0,-1.8418,-1.9687,0.0,-2.1348,-2.0273,-1.9336,-1.748,-1.6191,-1.5391,-1.5391,-1.5996,-1.6758,-1.5762,-1.6016,-1.6738,-1.5742,-1.5391,-1.5527,-1.6289,-1.7187,-1.791,-1.7422,0.0,0.0,0.0,0.0,0.0,0.0,0.0,0.0,0.0,0.0,0.0,0.0,0.0,0.0,0.0,0.0,0.0,0.0,0.0,0.0,0.0,0.0,0.0,0.0,0.0,0.0,0.0,0.0,0.0,0.0,0.0,0.0,0.0,-4.5586,-4.5586,-4.5586,-4.5586,-4.5586,-4.5586,-4.5586,-4.5586,-4.5586,-4.5586,-4.5586,-4.5586,-4.5586,-4.5586,-4.5586,-4.5586,-4.5586,-4.5586,-4.5586,-4.5586,-4.5586,-4.5586,-4.5586,-4.5586,-4.5586,-4.5586,-4.5586,-4.5586,-4.5836,-4.6163,0.0,0.0,0.0,0.0,0.0,0.0,0.0,0.0,0.0,0.0,0.0,-1.0192,-1.0209,0.0,0.0,0.0,-1.0293,-1.0293,-1.0293,0.0,0.0,0.0,-1.127,-1.127,-1.127,-1.127,-1.1699,-1.2578,0.0,0.0,-1.9297,-1.8867,-2.082,0.0,-2.2969,-2.1484,0.0,0.0,-1.6855,-1.6055,-1.6055,-1.6836,-1.791,-1.7051,-1.7539,-1.8457,-1.6934,-1.6387,0.0,0.0,0.0,0.0,0.0,0.0,0.0,0.0,0.0,0.0,0.0,0.0,0.0,0.0,0.0,0.0,0.0,0.0,0.0,0.0,0.0,0.0,0.0,0.0,0.0,0.0,0.0,0.0,0.0,0.0,0.0,0.0,0.0,0.0,0.0,0.0,0.0,0.0,-4.5586,-4.5586,-4.5586,-4.5586,-4.5586,-4.5586,-4.5586,-4.5586,-4.5586,-4.5586,-4.5586,-4.5586,-4.5586,-4.5586,-4.5586,-4.5586,-4.5586,-4.5586,-4.5586,-4.5586,-4.5586,-4.5586,-4.5586,-4.5586,-4.5586,-4.5586,-4.5586,-4.5586,-4.5586,-4.5586,0.0,0.0,0.0,0.0,0.0,0.0,0.0,0.0,0.0,0.0,0.0,-1.0192,-1.0209,-1.0209,-1.0234,-1.0293,-1.0293,-1.0293,-1.0293,0.0,0.0,0.0,0.0,0.0,-1.0371,-1.0371,-1.0781,-1.168,0.0,0.0,-1.9316,-2.0098,-2.2305,-2.5566,-2.3809,-2.168,-1.9355,0.0,0.0,-1.7852,-1.7852,-1.793,-1.8164,-1.9727,-2.0391,-2.0332,-1.9434,0.0,0.0,0.0,0.0,0.0,0.0,0.0,0.0,0.0,0.0,0.0,0.0,0.0,0.0,0.0,0.0,0.0,0.0,0.0,0.0,0.0,0.0,0.0,0.0,0.0,0.0,0.0,0.0,0.0,0.0,0.0,0.0,0.0,0.0,0.0,0.0,0.0,0.0,0.0,-4.5586,-4.5586,-4.5586,-4.5586,-4.5586,-4.5586,-4.5586,-4.5586,-4.5586,-4.5586,-4.5586,-4.5586,-4.5586,-4.5586,-4.5586,-4.5586,-4.5586,-4.5586,-4.5586,-4.5586,-4.5586,-4.5586,-4.5586,-4.5586,-4.5586,-4.5586,-4.5586,-4.5586,-4.5586,-4.5586,0.0,0.0,0.0,0.0,0.0,0.0,0.0,0.0,0.0,0.0,0.0,0.0,0.0,-1.0197,-1.0215,-1.0234,-1.0273,0.0,0.0,0.0,0.0,0.0,0.0,0.0,0.0,-1.0293,-1.0723,0.0,0.0,-1.3437,-1.7637,-1.7949,-1.9355,-2.1641,-2.2695,-2.2656,-2.1699,-2.0019,0.0,-1.8828,-1.8828,-1.9492,-2.0508,-2.0586,-2.1289,-2.2088,0.0,0.0,0.0,0.0,0.0,0.0,-1.7697,-1.731,-1.7348,-1.6753,0.0,0.0,0.0,0.0,0.0,0.0,0.0,0.0,0.0,0.0,0.0,0.0,0.0,0.0,0.0,0.0,0.0,0.0,0.0,0.0,0.0,0.0,0.0,0.0,0.0,0.0,0.0,0.0,0.0,0.0,0.0,-4.5586,-4.5586,-4.5586,-4.5586,-4.5586,-4.5586,-4.5586,-4.5586,-4.5586,-4.5586,-4.5586,-4.5586,-4.5586,-4.5586,-4.5586,-4.5586,-4.5586,-4.5586,-4.5586,-4.5586,-4.5586,-4.5586,-4.5586,-4.5586,-4.5586,-4.5586,-4.5586,-4.5586,-4.5586,0.0,0.0,0.0,-1.0094,0.0,-1.0094,-1.0094,-1.0094,-1.0094,-1.0094,0.0,0.0,0.0,0.0,-1.0205,-1.0195,-1.0234,-1.0273,-1.0293,-1.0286,0.0,0.0,0.0,0.0,0.0,-1.0293,-1.0586,-1.1152,-1.0879,0.0,0.0,-1.6426,-1.7637,-1.9375,-2.1113,-2.2051,0.0,0.0,0.0,-2.0195,0.0,-2.1269,-2.2344,0.0,-2.3281,0.0,0.0,0.0,0.0,0.0,0.0,0.0,0.0,-1.7705,-1.7253,-1.633,-1.6843,0.0,0.0,0.0,0.0,0.0,0.0,0.0,0.0,0.0,0.0,0.0,0.0,0.0,0.0,0.0,0.0,0.0,0.0,0.0,0.0,0.0,0.0,0.0,0.0,0.0,0.0,0.0,0.0,0.0,0.0,0.0,-4.5163,-4.5432,-4.5586,-4.5586,-4.5586,-4.5586,-4.5586,-4.5586,-4.5586,-4.5586,-4.5586,-4.5586,-4.5586,-4.5586,-4.5586,-4.5586,-4.5586,-4.5586,-4.5586,-4.5586,-4.5586,-4.5586,-4.5586,-4.5586,-4.5586,-4.5586,-4.5586,-4.5586,-1.0082,-1.0094,-1.0094,-1.0094,-1.0094,-1.0094,-1.0094,-1.0094,-1.0113,-1.0133,0.0,0.0,0.0,0.0,0.0,-1.0233,-1.0234,-1.0254,-1.0293,-1.0232,0.0,0.0,0.0,0.0,-1.0195,-1.0273,-1.0293,-1.0293,-1.1152,-1.2402,-1.4062,-1.5781,-1.75,-1.9141,-1.9238,-1.9726,-2.0586,0.0,-2.2559,-2.1992,0.0,-2.3105,-2.3456,0.0,0.0,0.0,-2.5689,-2.513,0.0,-2.3411,0.0,0.0,0.0,-1.8639,-1.6394,-1.5535,-1.6465,0.0,0.0,0.0,0.0,0.0,0.0,0.0,0.0,0.0,0.0,0.0,0.0,0.0,0.0,0.0,0.0,0.0,0.0,0.0,0.0,0.0,0.0,0.0,0.0,0.0,0.0,0.0,0.0,0.0,-4.3816,-4.4259,-4.4259,-4.5086,-4.5547,-4.5547,-4.5586,-4.5586,-4.5586,-4.5586,-4.5586,-4.5586,-4.5586,-4.5586,-4.5586,-4.5586,-4.5586,-4.5586,-4.5586,-4.5586,-4.5586,-4.5586,-4.5586,-4.5586,-4.5586,-4.5586,-4.5586,-4.5586,-4.5586,-4.5586,-1.0015,-1.007,-1.0094,-1.0094,-1.0094,-1.0094,-1.0094,-1.0094,-1.0325,0.0,0.0,0.0,-1.106,-1.1075,-1.108,-1.115,-1.1135,-1.088,-1.0272,-1.0209,-1.0205,-1.0198,-1.0206,-1.0195,-1.0195,-1.0273,-1.0293,-1.0293,-1.0547,-1.1211,-1.2324,-1.3437,-1.4512,-1.5625,-1.7465,-1.8099,-1.7851,-1.8957,0.0,0.0,-2.2383,-2.3306,0.0,0.0,0.0,0.0,0.0,-2.7206,-2.6909,0.0,-2.5136,-2.3959,0.0,0.0,-1.8138,-1.7253,-1.8234,-1.9446,-1.8819,0.0,0.0,0.0,0.0,0.0,0.0,0.0,0.0,0.0,0.0,0.0,0.0,0.0,0.0,0.0,0.0,0.0,0.0,0.0,0.0,0.0,0.0,0.0,0.0,0.0,0.0,0.0,-4.308,-4.3177,-4.3431,-4.4201,-4.4662,-4.4662,-4.5259,-4.5586,-4.5586,-4.5586,-4.5586,-4.5586,-4.5586,-4.5586,-4.5586,-4.5586,-4.5586,-4.5586,-4.5586,-4.5586,-4.5586,-4.5586,-4.5586,-4.5586,-4.5586,-4.5586,-4.5586,-4.5586,-4.5586,-4.5586,-1.0096,-1.0654,-1.1079,-1.0714,-1.0944,-1.1175,-1.1175,-1.1175,-1.1368,0.0,0.0,0.0,-1.1949,-1.2248,-1.2325,-1.2031,-1.1673,-1.1255,-1.0765,-1.0391,-1.0193,-1.0198,-1.0552,-1.0731,-1.074,-1.0771,-1.0802,-1.0794,-1.0443,-1.0521,-1.1028,-1.1908,-1.2572,-1.3098,-1.4947,-1.5898,-1.6135,-1.6292,0.0,0.0,-2.3569,0.0,0.0,-2.7443,-2.7979,0.0,0.0,0.0,-2.7956,-2.7379,-2.6399,0.0,0.0,-2.1043,-1.9877,-1.9023,-1.9735,0.0,0.0,0.0,0.0,0.0,0.0,0.0,0.0,0.0,0.0,0.0,0.0,0.0,0.0,0.0,0.0,0.0,0.0,0.0,0.0,0.0,0.0,0.0,0.0,0.0,0.0,-4.1667,-4.1648,-4.1816,-4.1973,-4.2374,-4.3049,-4.3547,-4.3797,-4.3797,-4.4624,-4.5047,-4.5047,-4.5413,-4.5586,-4.5586,-4.5586,-4.5586,-4.5586,-4.5586,-4.5586,-4.5586,-4.5586,-4.5586,-4.5586,-4.5586,-4.5586,-4.5586,-4.5586,-4.5586,-4.5586,-4.5586,-4.5586,-4.5586,0.0,-1.1637,-1.2449,-1.168,-1.2257,-1.2834,-1.2834,-1.2834,-1.2892,0.0,-1.32,-1.3335,-1.3527,-1.3926,-1.3934,-1.3303,-1.2281,-1.1667,-1.1632,-1.0822,-1.029,-1.0194,-1.103,-1.1451,-1.1354,-1.1535,-1.155,-1.1363,-1.0675,-1.0284,-1.0224,-1.0989,-1.1363,-1.1402,-1.2357,-1.3628,-1.4997,-1.4845,0.0,-2.1823,-2.4962,-2.6515,0.0,0.0,-2.889,-2.8437,-2.9091,-2.886,-2.8233,-2.8102,-2.7005,0.0,0.0,-2.3235,-2.187,-2.0869,-2.1216,0.0,-2.1696,-2.235,0.0,0.0,0.0,0.0,-2.6813,-2.6351,0.0,0.0,0.0,0.0,0.0,0.0,0.0,0.0,0.0,0.0,0.0,0.0,0.0,0.0,0.0,0.0,-3.9986,-4.0024,-4.0042,-4.0042,-4.0729,-4.1648,-4.2742,-4.2893,-4.297,-4.297,-4.3739,-4.4162,-4.4162,-4.5009,-4.5451,-4.5451,-4.5547,-4.5586,-4.5586,-4.5586,-4.5586,-4.5586,-4.5586,-4.5586,-4.5586,-4.5586,-4.5586,-4.5586,-4.5586,-4.5586,-4.5586,-4.5586,-4.5586,-4.5586,-1.2055,-1.2396,-1.2642,-1.2488,-1.3118,-1.367,-1.367,-1.367,-1.417,-1.5561,-1.6317,-1.7253,-1.8657,-1.7138,-1.6195,-1.6676,-1.4695,-1.3142,-1.2517,-1.1641,-1.0848,-1.0152,-1.0953,-1.1128,-1.0473,-1.1782,-1.1801,-1.044,-1.0995,-1.0895,-1.0205,-1.0363,-1.044,-1.0517,-1.2048,-1.2892,-1.3462,-1.7413,0.0,-2.0704,-2.2114,0.0,-2.7874,-2.8848,-2.9529,-2.9963,-3.011,-3.0052,-2.9821,-2.9102,-2.864,-2.7967,0.0,0.0,-2.5178,-2.2966,-2.3389,-2.4265,-2.2908,-2.3658,-2.4582,-2.3543,0.0,0.0,-2.4841,-2.5082,0.0,0.0,0.0,0.0,0.0,0.0,0.0,0.0,0.0,0.0,0.0,0.0,0.0,0.0,0.0,0.0,-3.9071,-3.9442,-3.9709,-3.9709,-4.0095,-4.0539,-4.0989,-4.1662,-4.2047,-4.2047,-4.2893,-4.3335,-4.3335,-4.4143,-4.4547,-4.4566,-4.5259,-4.5586,-4.5586,-4.5586,-4.5586,-4.5586,-4.5586,-4.5586,-4.5586,-4.5586,-4.5586,-4.5586,-4.5586,-4.5586,-4.5586,-4.5586,-4.5586,-4.5586,-1.2567,-1.3226,-1.3862,-1.394,-1.4637,-1.5324,-1.5734,-1.5811,-1.6253,-1.7587,-1.8831,-1.9773,-2.0254,-1.9158,-1.8388,-1.8357,-1.6022,-1.4382,-1.3964,-1.2343,-1.1211,-1.0768,-1.12,-1.1458,-1.1443,-1.2267,-1.2291,-1.1449,-1.1457,-1.0995,-1.0156,-1.0156,-1.0825,-1.2055,-1.2051,-1.3223,-1.5318,-1.7035,-1.8965,-2.1131,-2.3745,0.0,-2.8091,-2.9329,-3.0052,-3.0398,-3.0398,-3.0398,-3.0275,-2.939,-2.9102,0.0,0.0,-2.6909,-2.6909,0.0,-2.5293,-2.5678,-2.4389,-2.4659,-2.5187,-2.4793,0.0,0.0,0.0,0.0,0.0,0.0,0.0,0.0,0.0,0.0,0.0,0.0,0.0,0.0,0.0,0.0,0.0,0.0,0.0,0.0,-3.8002,-3.8302,-3.8719,-3.9155,-3.9509,-3.9934,-4.0469,-4.0912,-4.1143,-4.1143,-4.2008,-4.245,-4.245,-4.3278,-4.3701,-4.3701,-4.4547,-4.4951,-4.497,-4.5393,-4.5586,-4.5586,-4.5586,-4.5586,-4.5586,-4.5586,-4.5586,-4.5586,-4.5586,-4.5586,-4.5586,-4.5586,-4.5586,-4.5586,-1.3057,-1.4057,-1.5014,-1.514,-1.6016,-1.6952,-1.76,-1.783,-1.8311,-1.9357,-2.0946,-2.1812,-2.1331,-2.0966,-2.0639,-2.0262,-1.7734,-1.617,-1.617,-1.3807,-1.2318,-1.2145,-1.201,-1.2266,-1.2919,-1.2931,-1.2767,-1.2449,-1.1738,-1.0944,-1.0094,-1.0267,-1.1536,-1.3632,-1.2772,-1.4349,0.0,0.0,0.0,-2.2331,0.0,-2.764,-2.7832,-2.9506,-3.016,-3.0179,-3.034,-3.0398,-3.0294,-2.9583,-2.9352,-2.9198,-2.839,-2.8255,0.0,0.0,0.0,0.0,0.0,0.0,0.0,0.0,0.0,-2.5505,0.0,0.0,0.0,0.0,0.0,0.0,0.0,0.0,0.0,0.0,0.0,0.0,0.0,0.0,0.0,0.0,0.0,0.0,0.0,-3.6764,-3.7319,-3.8384,-3.8452,-3.893,-4.0134,-4.0242,-4.0335,-4.0489,-4.1181,-4.1546,-4.1546,-4.2412,-4.2854,-4.2854,-4.3682,-4.4066,-4.4105,-4.4951,-4.5336,-4.5355,-4.5528,-4.5586,-4.5586,-4.5586,-4.5586,-4.5586,-4.5586,-4.5586,-4.5586,-4.5586,-4.5586,-4.5586,-1.4631,-1.4789,-1.4917,-1.5007,-1.6372,-1.7531,-1.7689,-1.8369,-1.9419,-2.1004,-2.2735,-2.4043,-2.4649,0.0,0.0,0.0,0.0,-1.9715,-1.9715,-1.733,-1.5586,-1.4791,-1.4041,-1.367,-1.3761,-1.3767,-1.3041,-1.1545,-1.1445,-1.0944,-1.0113,-1.0887,-1.1814,-1.2931,-1.5003,0.0,0.0,0.0,-2.1947,0.0,-2.5947,-2.6755,0.0,-2.8602,-2.9236,-2.9352,-3.0121,-3.0398,-3.0379,0.0,-3.0256,-3.0102,0.0,-2.9486,-2.9813,-2.8217,0.0,0.0,0.0,0.0,0.0,0.0,-2.8159,0.0,0.0,0.0,0.0,0.0,0.0,0.0,0.0,0.0,0.0,0.0,0.0,0.0,0.0,0.0,0.0,0.0,0.0,0.0,0.0,-3.473,-3.5327,-3.7171,-3.6004,-3.635,-3.8935,-3.9314,-3.9758,-4.0469,-4.0585,-4.0642,-4.0642,-4.1508,-4.195,-4.197,-4.2816,-4.3239,-4.3258,-4.4085,-4.4451,-4.4489,-4.5259,-4.5586,-4.5586,-4.5586,-4.5586,-4.5586,-4.5586,-4.5586,-4.5586,-4.5586,-4.5586,-4.5586,-1.4868,-1.4936,-1.5148,-1.5765,-1.6476,-1.7308,-1.8304,-2.0023,-2.1639,-2.2851,-2.4043,-2.512,0.0,0.0,0.0,0.0,0.0,-2.1543,0.0,0.0,-1.7023,-1.6676,-1.5362,-1.4651,-1.4651,-1.4651,-1.4055,-1.2844,-1.2387,-1.1718,-1.0867,-1.1233,-1.2656,-1.4951,-1.6022,0.0,-2.0696,0.0,-2.2216,0.0,0.0,0.0,0.0,-2.8832,-2.9852,-2.991,-3.0275,-3.0398,-3.0321,0.0,-2.9987,0.0,0.0,0.0,0.0,0.0,0.0,0.0,0.0,0.0,0.0,0.0,0.0,0.0,-2.6505,0.0,-2.589,0.0,0.0,0.0,0.0,0.0,0.0,0.0,0.0,0.0,0.0,0.0,0.0,0.0,0.0,0.0,0.0,0.0,0.0,0.0,-3.4601,-3.5236,-3.7501,-3.8693,-3.945,-3.9777,-4.0258,-4.0489,-4.0489,-4.0854,-4.1046,-4.1066,-4.1931,-4.2354,-4.2374,-4.322,-4.3855,-4.4316,-4.4682,-4.5124,-4.5586,-4.5586,-4.5586,-4.5586,-4.5586,-4.5586,-4.5586,-4.5586,-4.5586,-4.5586,-1.5094,0.0,-1.5112,-1.5868,-1.6421,-1.7416,-1.9373,-2.1466,-2.3109,-2.3995,-2.4793,0.0,-2.6505,-2.6043,0.0,0.0,-2.5024,-2.3803,0.0,0.0,-1.93,-1.895,-1.7423,-1.658,-1.652,-1.5888,-1.5132,-1.4266,-1.3214,-1.2373,-1.1757,-1.1983,-1.3541,-1.6176,-1.7119,-1.9504,-2.2793,0.0,0.0,-2.4601,-2.562,-2.6294,-2.6937,-2.9198,-3.0198,-3.0398,-3.0398,-3.0398,-3.0352,-2.9948,-3.0237,0.0,-3.0275,0.0,0.0,0.0,0.0,0.0,-2.8871,0.0,0.0,0.0,0.0,0.0,0.0,0.0,0.0,0.0,0.0,0.0,0.0,0.0,0.0,0.0,0.0,0.0,0.0,0.0,0.0,0.0,0.0,0.0,0.0,0.0,0.0,0.0,0.0,-3.3563,-3.6113,-3.7536,-3.8584,-3.9277,-3.9873,-4.0242,-4.0389,-4.0473,-4.0473,-4.0408,-4.1111,-4.145,-4.147,-4.2354,-4.3013,-4.3499,-4.4068,-4.4608,-4.5168,-4.5472,-4.5586,-4.5586,-4.5586,-4.5531,-4.5457,-4.5568,-4.5586,-4.5586,-1.5711,-1.5147,0.0,0.0,-1.6205,-1.8288,-2.1018,-2.2216,-2.3109,-2.3995,0.0,0.0,0.0,0.0,0.0,0.0,0.0,-2.7278,-2.6225,0.0,-2.3331,-2.2122,-2.0814,-2.0054,0.0,-1.7623,-1.6022,-1.5151,-1.3508,-1.268,-1.268,-1.3459,-1.4324,-1.5382,-1.8696,-2.1158,-2.2889,-2.4505,-2.6621,-2.8832,-2.8102,-2.8794,-3.0148,0.0,-2.9679,-3.0398,-3.0398,0.0,0.0,-3.1352,-3.1641,0.0,0.0,0.0,0.0,0.0,0.0,0.0,0.0,0.0,0.0,-2.8717,0.0,0.0,0.0,0.0,-2.7582,0.0,0.0,0.0,0.0,0.0,-2.6525,-2.5553,0.0,0.0,0.0,0.0,0.0,0.0,0.0,0.0,0.0,0.0,0.0,0.0,0.0,0.0,-3.4914,-3.5465,-3.6757,-3.9219,-3.9315,-3.9586,-4.012,-4.0372,-4.0372,-4.012,-4.0392,-4.0527,-4.0566,-4.145,-4.1679,-4.1494,-4.3461,-4.4172,-4.4036,-4.5149,-4.5586,-4.5586,-4.5586,-4.54,-4.5159,-4.5495,-4.5586,-4.5586,0.0,0.0,0.0,0.0,0.0,-1.7624,-2.0872,-2.2555,-2.396,0.0,0.0,0.0,0.0,-2.8052,-2.8281,0.0,0.0,-2.785,-2.6961,-2.5501,0.0,0.0,0.0,-2.1597,0.0,0.0,-1.86,-1.7708,-1.5465,-1.4657,-1.5201,-1.4305,-1.4959,-1.6965,0.0,-2.1235,0.0,0.0,0.0,0.0,0.0,-2.8909,-3.0359,0.0,-3.014,-3.0398,-3.0398,-3.0775,0.0,-3.1602,-3.2045,-3.2545,-3.2814,-3.2891,-3.2852,-3.2564,-3.2699,-3.2776,0.0,0.0,-3.3083,-3.0256,0.0,0.0,0.0,0.0,0.0,0.0,0.0,0.0,0.0,-2.6935,-2.6422,-2.5531,-2.5403,-2.5127,0.0,0.0,0.0,0.0,0.0,0.0,0.0,0.0,0.0,0.0,-2.8836,0.0,0.0,-3.4524,-3.6051,-3.7269,-3.8397,-3.9242,-3.9757,-3.9842,-3.9964,-4.0101,-4.0195,-4.0251,-4.0251,-4.0538,-4.0806,-4.1086,-4.2313,-4.324,-4.3977,-4.4898,-4.5263,-4.5263,-4.5263,-4.5074,-4.4825,-4.5159,-4.5118,-4.4966,-1.733,0.0,0.0,0.0,0.0,0.0,-2.159,0.0,0.0,0.0,-2.7208,0.0,-2.9402,0.0,-2.9554,0.0,-2.9404,-2.868,-2.7285,-2.6582,0.0,-2.5105,-2.4619,0.0,0.0,0.0,-2.0728,-1.9367,-1.7405,-1.661,-1.6907,-1.5792,-1.6138,-1.7792,0.0,-2.1504,-2.2985,0.0,-2.6817,0.0,0.0,-2.9448,0.0,0.0,-3.0871,-3.0871,0.0,-3.141,-3.2179,-3.2487,-3.2929,-3.341,-3.3737,-3.3814,-3.3757,-3.3449,-3.3583,-3.3667,-3.2947,-3.3393,0.0,-3.1155,-3.0572,0.0,-2.7489,0.0,-2.8401,0.0,0.0,0.0,0.0,0.0,-2.6851,-2.6337,-2.577,-2.5127,0.0,-2.419,0.0,0.0,0.0,0.0,0.0,0.0,-2.5375,-2.7351,0.0,0.0,0.0,0.0,-3.4936,-3.5704,-3.7433,-3.8552,-3.8982,-3.9402,-3.9709,-3.9922,-3.9922,-3.9982,-4.0101,-3.9982,-4.0056,-4.0303,-4.1273,-4.22,-4.3152,-4.4079,-4.4634,-4.4919,-4.4919,-4.4707,-4.4428,-4.4781,-4.48,-4.4631,0.0,0.0,0.0,0.0,-1.8587,0.0,0.0,0.0,-2.6261,0.0,-2.8648,-3.0001,-3.0866,-3.0942,-3.0942,-3.0941,-3.0941,-2.9924,-2.7511,-2.8039,0.0,0.0,-2.6701,-2.6362,-2.4555,0.0,0.0,0.0,-1.9268,-1.8474,-1.7895,-1.776,-1.776,-1.7946,-2.0408,0.0,-2.2987,-2.6173,-2.8141,-2.9206,-3.0052,-3.0398,-3.0494,-3.1359,-3.1705,-3.1744,-3.1756,-3.2275,-3.3083,-3.391,-3.4218,-3.4378,-3.5224,-3.546,-3.5306,-3.4461,-3.4807,-3.5033,-3.3134,-3.3203,-3.3382,-3.1506,-3.0998,0.0,0.0,0.0,-2.9863,0.0,0.0,0.0,0.0,0.0,-2.7824,-2.7695,-2.6355,-2.5072,0.0,0.0,0.0,0.0,0.0,0.0,0.0,0.0,-2.3786,-2.5498,-2.5913,0.0,0.0,0.0,-3.3349,-3.4583,-3.6426,-3.7575,-3.7888,-3.8939,-3.9515,-3.9576,-3.9576,-3.9754,-4.0042,-3.9731,-3.9389,-3.9154,-4.034,-4.1098,-4.1633,-4.281,-4.3768,-4.4497,-4.4535,-4.4337,-4.4016,-4.4401,-4.4553,-4.4553,-1.9879,-2.0244,-2.0721,0.0,-2.1305,-2.1713,0.0,0.0,0.0,0.0,-2.9439,-3.0828,-3.1491,-3.1563,-3.1563,-3.1565,-3.1388,0.0,0.0,0.0,0.0,-2.7306,-2.7213,-2.6906,-2.6265,-2.5156,0.0,-2.3719,0.0,-2.0107,-2.0485,-1.8581,-1.8388,-1.9696,0.0,0.0,-2.2781,-2.6104,-2.8387,-2.9798,-3.0215,-3.0267,-3.0232,0.0,-3.1987,-3.2388,-3.2545,-3.3141,-3.3891,-3.4122,-3.4486,-3.492,-3.513,-3.507,-3.4851,-3.4642,-3.4737,-3.4775,-3.4283,-3.4301,-3.4188,-3.3052,-3.226,-3.1469,0.0,0.0,0.0,0.0,0.0,0.0,0.0,0.0,0.0,-2.63,-2.5162,-2.4428,0.0,0.0,0.0,0.0,0.0,0.0,0.0,-2.3657,-2.4155,-2.4769,-2.5433,-2.6677,-2.8728,0.0,0.0,-3.3399,-3.5113,-3.6522,-3.7598,-3.7886,-3.8451,-3.9212,-3.9212,-3.9264,-3.9339,-3.9264,-3.9063,-3.884,-3.9753,-4.0372,-4.0831,-4.2315,-4.3053,-4.3315,-4.3903,-4.3943,-4.3646,-4.3726,-4.3943,-4.4146,-2.1143,0.0,0.0,-2.3456,0.0,0.0,-2.4709,-2.5893,0.0,-2.8352,-3.0036,0.0,-3.1575,-3.226,-3.2514,-3.2181,-3.2017,0.0,-3.0411,0.0,0.0,-2.8492,-2.8493,-2.8143,-2.7298,-2.6262,0.0,-2.4869,0.0,-2.1264,-2.1466,-1.9677,-1.9369,-2.035,0.0,-2.2268,0.0,-2.6117,-2.8189,-2.9345,-2.9884,-3.0217,0.0,-3.1524,-3.2365,-3.3007,-3.3506,-3.4075,-3.4576,-3.4445,-3.4634,-3.4926,-3.4926,-3.4813,-3.4694,-3.4694,-3.4694,-3.4674,-3.4529,-3.4467,-3.4352,-3.3728,-3.3216,-3.2545,-3.1493,-3.1609,-3.1796,0.0,-3.1598,-3.1786,0.0,0.0,0.0,0.0,0.0,0.0,0.0,0.0,0.0,0.0,0.0,0.0,-2.3088,-2.3419,-2.3584,-2.3353,-2.4476,-2.5607,0.0,0.0,0.0,-3.176,-3.3831,-3.5588,-3.6945,-3.7312,-3.8032,-3.9099,-3.8971,-3.8971,-3.9099,-3.8971,-3.8844,-3.8726,-3.9184,-3.9688,-4.0285,-4.1545,-4.2267,-4.2674,-4.3458,-4.3679,-4.3497,-4.3497,-4.3631,-4.3772,0.0,0.0,0.0,0.0,0.0,0.0,0.0,-2.7163,0.0,-2.9122,0.0,-3.1696,-3.1696,-3.2963,-3.3532,-3.2834,0.0,-3.2176,-3.0861,-3.1267,-3.0949,-2.9641,-3.0088,-2.9641,-2.8154,-2.7261,-2.6153,0.0,-2.306,-2.1957,-2.1423,-2.0617,-2.0233,0.0,0.0,0.0,0.0,-2.6282,-2.7862,-2.8608,-2.949,-3.0263,-3.096,-3.1977,-3.2769,-3.3463,-3.4312,-3.4813,-3.4999,-3.4774,-3.4674,-3.4632,-3.4632,-3.4612,-3.4591,-3.4591,-3.4591,-3.4508,-3.4218,-3.4147,-3.4074,-3.3868,-3.3807,-3.3474,-3.226,-3.1992,-3.1992,-3.1992,-3.1417,-3.1464,-3.318,0.0,0.0,0.0,0.0,0.0,0.0,0.0,0.0,0.0,0.0,0.0,0.0,-2.3107,-2.2832,-2.2006,-2.3503,-2.4483,0.0,0.0,0.0,-3.0344,-3.2728,-3.4722,-3.6266,-3.6982,-3.7911,-3.9036,-3.8833,-3.8815,-3.9036,-3.8803,-3.8707,-3.8707,-3.8707,-3.9093,-3.9808,-4.0726,-4.1644,-4.2525,-4.3222,-4.3497,-4.3497,-4.3497,-4.3497,-4.3497,0.0,0.0,0.0,0.0,0.0,-2.8191,-2.9384,-3.0136,-3.065,-3.0944,-3.2375,-3.3385,-3.3385,-3.3623,-3.3733,-3.3605,-3.3587,0.0,0.0,0.0,0.0,-3.1072,-3.1134,-3.0742,-2.9806,-2.8498,-2.7083,-2.5518,-2.3351,-2.1891,-2.1153,-2.0297,-1.9952,-2.0136,0.0,0.0,-2.6443,-2.6848,0.0,-2.9324,-3.0283,-3.0678,-3.0837,-3.254,-3.3137,-3.3168,-3.3989,-3.4508,-3.4754,-3.4733,-3.4529,-3.4288,-3.4288,-3.4141,-3.3954,-3.3954,-3.3954,-3.3954,-3.3895,-3.385,-3.3868,-3.3815,-3.3807,-3.3733,-3.3493,-3.3419,-3.3419,-3.3419,-3.3335,-3.2923,-3.1997,0.0,0.0,0.0,0.0,0.0,0.0,0.0,0.0,0.0,0.0,0.0,0.0,-2.3602,-2.3657,-2.285,0.0,0.0,0.0,0.0,0.0,0.0,-3.2279,0.0,0.0,0.0,-3.7268,-3.8762,-3.8719,-3.8719,-3.8762,-3.8719,-3.8707,-3.8707,-3.8707,-3.8781,-3.9019,-4.0506,-4.1974,-4.3296,-4.3424,-4.3497,-4.3497,-4.3497,-4.3497,-4.3497,0.0,0.0,0.0,0.0,0.0,0.0,0.0,-3.2137,-3.2339,-3.1494,-3.2063,-3.2559,-3.2559,-3.3293,-3.3807,-3.3807,-3.3807,-3.3642,-3.3256,-3.322,-3.2871,-3.2063,-3.2027,-3.1641,-3.0834,-2.9333,-2.8022,-2.6935,-2.4132,-2.2417,-2.1689,-2.0394,-2.0051,-2.0592,0.0,-2.4355,0.0,0.0,0.0,-2.9446,-3.0674,-3.1347,-3.1732,-3.2655,-3.3147,-3.3475,-3.3864,-3.4111,-3.4232,-3.4232,-3.4136,-3.3986,-3.3986,-3.3902,-3.3807,-3.3807,-3.3807,-3.3807,-3.3807,-3.3807,-3.3807,-3.3807,-3.3807,-3.3807,-3.3807,-3.3807,-3.3807,-3.3807,-3.3807,-3.3311,-3.1696,-3.0081,0.0,0.0,0.0,0.0,0.0,0.0,0.0,0.0,0.0,0.0,0.0,0.0,0.0,0.0,0.0,0.0,0.0,0.0,-2.8282,0.0,0.0,0.0,-3.6266,0.0,-3.711,-3.8707,-3.8707,-3.8707,-3.8707,-3.8707,-3.8707,-3.8707,-3.8707,-3.8707,-3.8836,-4.0451,-4.2047,-4.3497,-4.3497,-4.3497,-4.3497,-4.3497,-4.3497,-4.3497,0.0,-2.943,0.0,0.0,-3.0999,0.0,-3.2926,-3.3807,-3.3807,-3.2357,-3.2008,-3.1898,-3.1898,-3.3036,-3.3807,-3.3807,-3.3807,-3.3807,-3.3807,-3.3807,-3.3532,-3.2889,-3.2871,-3.2485,-3.1659,-3.0081,-2.885,0.0,-2.493,-2.3082,-2.2422,-2.0921,-2.0765,-2.1806,-2.3121,0.0,0.0,0.0,-2.8841,-2.9857,-3.1127,-3.2027,-3.2632,-3.2797,-3.3256,-3.3807,-3.3807,-3.3807,-3.3807,-3.3807,-3.3807,-3.3807,-3.3807,-3.3807,-3.3807,-3.3807,-3.3807,-3.3807,-3.3807,-3.3807,-3.3807,-3.3807,-3.3807,-3.3807,-3.3807,-3.3807,-3.3807,-3.3807,-3.3807,-3.3311,-3.1696,-3.065,0.0,0.0,0.0,0.0,0.0,0.0,0.0,0.0,0.0,0.0,0.0,0.0,0.0,0.0,0.0,0.0,-2.4685,-2.575,-2.7457,0.0,0.0,-3.254,-3.5495,0.0,-3.7019,-3.845,-3.8615,-3.8707,-3.8707,-3.8707,-3.8707,-3.8707,-3.8707,-3.8799,-3.9074,-4.0524,-4.1956,-4.3259,-4.3424,-4.3497,-4.3497,-4.3497,-4.3497,-4.3497,0.0,0.0,0.0,0.0,0.0,0.0,-3.4734,-3.5514,-3.5734,-3.477,-3.4027,-3.3587,-3.3587,-3.3715,-3.3807,-3.3807,-3.3807,-3.3807,-3.3807,-3.3807,-3.377,-3.3697,-3.3697,-3.3311,-3.2522,-3.0925,-2.9347,0.0,0.0,-2.3695,-2.2922,-2.2038,-2.2525,-2.4193,-2.4255,-2.6061,0.0,-2.895,-2.9793,-3.1287,-3.2137,-3.254,-3.2687,-3.3421,-3.3733,-3.3807,-3.3807,-3.3807,-3.3807,-3.3807,-3.3807,-3.3807,-3.3807,-3.3807,-3.3807,-3.3807,-3.3807,-3.3807,-3.3807,-3.3807,-3.3807,-3.3807,-3.3807,-3.3807,-3.3807,-3.3807,-3.3807,-3.3807,-3.3807,-3.3311,-3.1696,-3.2467,-3.2137,0.0,0.0,0.0,0.0,0.0,0.0,0.0,0.0,0.0,0.0,0.0,0.0,0.0,0.0,0.0,-2.63,-2.5823,-2.6612,-2.903,-2.9898,-3.1164,-3.2944,-3.5183,-3.6725,-3.7606,-3.834,-3.8707,-3.8707,-3.8707,-3.8707,-3.8707,-3.8707,-3.9111,-3.9845,-4.0744,-4.1625,-4.2488,-4.3222,-4.3497,-4.3497,-4.3497,-4.3497,-4.3497,0.0,0.0,0.0,0.0,0.0,0.0,0.0,-3.6163,-3.634,-3.6486,-3.5789,-3.511,-3.4596,-3.4523,-3.4339,-3.3844,-3.3807,-3.3807,-3.3807,-3.3807,-3.3807,-3.3807,-3.3807,-3.3642,-3.333,-3.2228,-3.0852,0.0,0.0,0.0,-2.3694,-2.2905,-2.3676,-2.5779,-2.624,-2.7696,-2.9871,-3.0276,-3.1091,-3.2192,-3.2999,-3.333,-3.3366,-3.3678,-3.3807,-3.3807,-3.3807,-3.3807,-3.3807,-3.3807,-3.3807,-3.3807,-3.3807,-3.3807,-3.3807,-3.3807,-3.3807,-3.3807,-3.3807,-3.3807,-3.3807,-3.3807,-3.3807,-3.3807,-3.3807,-3.3807,-3.3807,-3.3807,-3.3807,-3.3605,-3.2963,-3.2173,-3.1274,-3.0136,0.0,0.0,0.0,0.0,0.0,0.0,0.0,0.0,0.0,0.0,0.0,0.0,0.0,-2.3969,-2.5107,-2.5768,-2.6778,-2.8227,0.0,-3.1458,-3.2596,-3.5055,-3.6688,-3.7526,-3.8322,-3.8707,-3.8707,-3.8707,-3.8707,-3.8707,-3.8707,-3.9166,-3.9955,-4.0781,-4.1589,-4.2378,-4.3185,-4.3497,-4.3497,-4.3497,-4.3497,-4.3497,-3.4811,0.0,-3.4088,0.0,-3.5083,-3.5258,-3.6642,-3.6696,-3.6825,-3.7533,-3.7113,-3.6413,-3.5485,-3.5385,-3.5165,-3.4578,-3.4541,-3.4541,-3.4541,-3.4541,-3.4412,-3.4174,-3.4156,0.0,-3.3807,-3.3018,-3.2045,-3.0907,-2.8741,0.0,-2.5952,-2.5144,-2.5805,-2.7677,-2.8246,-2.9402,-3.0944,-3.1513,-3.2228,-3.2999,-3.3568,-3.3807,-3.3807,-3.3807,-3.3807,-3.3807,-3.3807,-3.3807,-3.3807,-3.3807,-3.3807,-3.3807,-3.3807,-3.3807,-3.3807,-3.3807,-3.3807,-3.3807,-3.3807,-3.3807,-3.3807,-3.3807,-3.3807,-3.3807,-3.3807,-3.3807,-3.3807,-3.3807,-3.3807,-3.3733,-3.3495,-3.2063,-3.087,-3.0723,0.0,0.0,0.0,-2.7475,0.0,0.0,-2.4979,-2.3933,-2.4171,0.0,0.0,0.0,0.0,-2.3823,-2.485,-2.5768,0.0,0.0,0.0,0.0,-3.2596,-3.5055,-3.6688,-3.7526,-3.8322,-3.8707,-3.8707,-3.8707,-3.8707,-3.8707,-3.8707,-3.9019,-3.9606,-4.0414,-4.1222,-4.2029,-4.2818,-4.3277,-4.3497,-4.3497,-4.3497,-4.3497,-3.5036,-3.5278,-3.5662,-3.6938,-3.7175,-3.7175,-3.7193,-3.7193,-3.7379,-3.7841,-3.7875,-3.7464,-3.6421,-3.6285,-3.6266,-3.6266,-3.6266,-3.6266,-3.6266,-3.6266,-3.5899,0.0,0.0,-3.4605,-3.3825,-3.3018,-3.2596,-3.2577,0.0,0.0,-3.0118,-2.931,-2.9384,-3.0155,-3.0173,-3.1072,-3.2577,-3.2596,-3.3054,-3.3788,-3.3807,-3.3807,-3.3807,-3.3807,-3.3807,-3.3807,-3.3807,-3.3807,-3.3807,-3.3807,-3.3807,-3.3807,-3.3807,-3.3807,-3.3807,-3.3807,-3.3807,-3.3807,-3.3807,-3.3807,-3.3807,-3.3807,-3.3807,-3.3807,-3.3807,-3.3807,-3.3807,-3.3807,-3.3807,-3.3568,-3.2761,-3.2596,-3.1781,-2.9415,0.0,0.0,0.0,0.0,0.0,-2.6612,-2.4483,-2.3327,-2.4116,0.0,0.0,0.0,0.0,-2.4887,-2.6502,-2.5841,0.0,-2.8902,-2.9787,0.0,-3.2596,-3.5055,-3.6688,-3.7526,-3.8322,-3.8707,-3.8707,-3.8707,-3.8707,-3.8707,-3.8707,-3.8707,-3.8781,-3.957,-4.0396,-4.1203,-4.2011,-4.28,-4.3497,-4.3497,-4.3497,-4.3497,-3.5402,-3.5821,-3.6039,-3.6088,-3.6706,-3.7076,-3.6724,-3.696,-3.7248,-3.7396,-3.7433,-3.7435,-3.7392,-3.7235,-3.689,0.0,-3.6303,-3.6303,0.0,-3.6303,-3.6174,-3.5899,-3.5899,-3.5771,-3.5514,-3.4688,-3.399,-3.3421,0.0,0.0,-3.0191,-2.9953,-3.054,-3.1843,-3.1843,-3.243,-3.3421,-3.3421,-3.3568,-3.3807,-3.3807,-3.3807,-3.3807,-3.3807,-3.3807,-3.3807,-3.3807,-3.3807,-3.3807,-3.3807,-3.3807,-3.3899,-3.4468,-3.4247,-3.3807,-3.3807,-3.3807,-3.3807,-3.3807,-3.3807,-3.3807,-3.3807,-3.3807,-3.3807,-3.3807,-3.3807,-3.3807,-3.3807,-3.3807,-3.355,-3.2761,-3.2155,-3.1347,-3.0044,-2.9586,0.0,-2.7952,0.0,-2.641,-2.5841,-2.4612,-2.3914,0.0,-2.4226,0.0,0.0,0.0,0.0,0.0,0.0,0.0,0.0,-3.0558,0.0,-3.2614,-3.5055,-3.6688,-3.7526,-3.8322,-3.8707,-3.8707,-3.8707,-3.8707,-3.8707,-3.8707,-3.8707,-3.8762,-3.957,-4.0377,-4.1185,-4.1992,-4.2782,-4.3497,-4.3497,-4.3497,-4.3497,-3.5622,-3.5854,-3.5968,-3.565,-3.6165,-3.6481,-3.6139,-3.6357,-3.6666,-3.6865,-3.6921,-3.7097,-3.7578,-3.7631,0.0,-3.7239,-3.7202,-3.7202,-3.7202,-3.7202,-3.7074,-3.6762,-3.6743,-3.6597,-3.6303,-3.5771,0.0,-3.4743,-3.3403,-3.2339,-3.1549,-3.1549,-3.21,-3.3054,-3.3054,-3.333,-3.3807,-3.3807,-3.3972,-3.4266,-3.4266,-3.4449,-3.4743,-3.4743,-3.4743,-3.4743,-3.4743,-3.4743,-3.4743,-3.4743,-3.4743,-3.4835,-3.533,-3.5147,-3.4743,-3.4743,-3.4743,-3.4669,-3.4339,-3.4266,-3.4192,-3.388,-3.3807,-3.3807,-3.3807,-3.3807,-3.3807,-3.3807,-3.3807,-3.3458,-3.2357,-3.1733,-3.1035,-2.9934,-2.9347,-2.8723,-2.7915,0.0,-2.641,0.0,0.0,0.0,0.0,-2.5548,-2.5768,0.0,0.0,0.0,0.0,0.0,-2.8741,-2.9127,-3.1403,-3.3054,-3.399,-3.5532,-3.6853,-3.7955,-3.8469,-3.8707,-3.8707,-3.8707,-3.8707,-3.8707,-3.8707,-3.8707,-3.8744,-3.9239,-3.9918,-4.0726,-4.1552,-4.2341,-4.3075,-4.3387,-4.3497,-4.3497,-3.5622,-3.5622,-3.5622,-3.5622,-3.5622,-3.5622,-3.5622,-3.5622,-3.5783,-3.6266,-3.6333,-3.6539,-3.7114,-3.7542,-3.8032,-3.8578,0.0,0.0,-3.8707,-3.8707,-3.8377,-3.7606,-3.7599,-3.7221,-3.6486,-3.6413,-3.6358,-3.6303,-3.5495,-3.4724,-3.3972,-3.3972,-3.3972,-3.3972,-3.3972,-3.3972,-3.3972,-3.3972,-3.4412,-3.5082,-3.5082,-3.5587,-3.6303,-3.6303,-3.6303,-3.6303,-3.6303,-3.6303,-3.6303,-3.6303,-3.6303,-3.6303,-3.6358,-3.6376,-3.6358,-3.6321,-3.6303,-3.6119,-3.5302,-3.5045,-3.4807,-3.4082,-3.3844,-3.3807,-3.3807,-3.3807,-3.3807,-3.3807,-3.3807,-3.333,-3.177,-3.1439,-3.0889,-2.9347,-2.903,-2.8705,-2.7842,-2.7126,-2.6649,0.0,0.0,0.0,-2.6539,-2.6649,-2.6998,0.0,0.0,0.0,0.0,0.0,-2.909,-3.1403,-3.232,-3.3899,-3.6266,-3.6358,-3.7165,-3.8707,-3.8707,-3.8707,-3.8707,-3.8707,-3.8707,-3.8707,-3.8707,-3.8707,-3.8707,-3.8707,-3.9203,-4.0065,-4.0818,-4.1644,-4.247,-4.3222,-4.3497,-4.3497,0.0,0.0,-3.5622,-3.5622,-3.5622,-3.5622,-3.5622,-3.5622,-3.5667,-3.5783,-3.5783,-3.5968,-3.6539,-3.6684,-3.7135,-3.8032,-3.8465,-3.8707,-3.8707,-3.8707,-3.8615,-3.8414,-3.8414,-3.8322,-3.8138,-3.7533,-3.6909,-3.6303,-3.6083,-3.5881,-3.5716,-3.5716,-3.5716,-3.5716,-3.5716,-3.5716,-3.5716,-3.5716,-3.5826,-3.5991,-3.5991,-3.6119,-3.6303,-3.6303,-3.6303,-3.6303,-3.6303,-3.6303,-3.6303,-3.6303,-3.6303,-3.6413,-3.7,-3.7202,-3.7092,-3.6468,-3.6303,-3.6248,-3.6046,-3.5514,-3.4935,-3.4752,-3.4266,-3.3807,-3.3807,-3.3807,-3.3807,-3.3807,-3.3807,-3.3495,-3.2504,-3.1806,-3.1072,-3.0081,-2.9402,-2.848,-2.709,-2.7255,-2.7053,0.0,-2.6062,-2.6392,-2.6594,-2.7163,-2.7585,0.0,0.0,-2.9342,-3.0173,-3.0411,-3.1091,-3.2284,-3.367,-3.5037,-3.6285,-3.689,-3.7716,-3.8707,-3.8707,-3.8707,-3.8707,-3.8707,-3.8707,-3.8707,-3.8707,-3.8707,-3.8707,-3.8707,-3.9551,-4.0836,-4.1038,-4.1974,-4.3222,-4.3424,-4.3497,-4.3497,-3.5622,-3.5622,-3.5622,-3.5622,-3.5622,-3.5622,-3.5622,-3.5622,-3.5622,-3.5622,-3.5622,-3.5694,-3.6011,-3.6249,-3.6603,-3.7155,-3.7877,-3.8433,-3.8658,-3.8707,-3.8707,-3.8707,-3.8707,-3.8707,-3.8707,-3.8267,-3.7643,-3.6835,-3.6835,-3.6652,-3.6303,-3.6303,-3.6303,-3.6303,-3.6303,-3.6303,-3.6303,-3.6303,-3.6505,-3.6835,-3.6835,-3.7055,-3.7404,-3.7404,-3.7404,-3.7404,-3.7404,-3.7404,-3.7404,-3.7404,-3.7404,-3.7477,-3.79,-3.8046,-3.7955,-3.7533,-3.7404,-3.7312,-3.6945,-3.6505,-3.5973,-3.5174,-3.4688,-3.4266,-3.388,-3.3807,-3.3807,-3.3807,-3.3807,-3.355,-3.2761,-3.1935,-3.1127,-3.0338,-2.9531,-2.8576,-2.7328,-2.7512,-2.7475,-2.6594,-2.7218,-2.7842,-2.8209,-2.8962,-2.9439,-2.9439,-3.0191,0.0,-3.1274,-3.2063,-3.2522,-3.2614,-3.4147,-3.544,-3.6285,-3.7459,-3.8267,-3.8707,-3.8707,-3.8707,-3.8707,-3.8707,-3.8707,-3.8707,-3.8707,-3.8707,-3.8707,-3.8707,-3.9441,-4.0598,-4.0965,-4.1864,-4.3002,-4.3351,-4.3497,-4.3497,-3.5622,-3.5622,-3.5622,-3.5622,-3.5622,-3.5622,-3.5622,-3.5622,-3.5622,-3.5622,-3.5622,-3.5622,-3.5622,-3.6028,-3.6291,-3.6374,-3.7193,-3.7911,-3.8546,-3.8676,-3.8707,-3.8707,-3.8707,-3.8707,-3.8707,-3.8707,-3.8377,-3.7661,-3.7661,-3.7312,-3.6652,-3.6652,-3.6652,-3.6652,-3.6652,-3.6652,-3.6652,-3.6652,-3.7055,-3.7661,-3.7661,-3.8083,-3.8707,-3.8707,-3.8707,-3.8707,-3.8707,-3.8707,-3.8707,-3.8707,-3.8707,-3.8707,-3.8707,-3.8707,-3.8707,-3.8707,-3.8707,-3.856,-3.7863,-3.7569,-3.7092,-3.544,-3.499,-3.477,-3.399,-3.3807,-3.3807,-3.3807,-3.3807,-3.3587,-3.2926,-3.2027,-3.1182,-3.0485,-2.9604,-2.8723,-2.7915,0.0,-2.797,-2.797,-2.8705,-2.9512,-3.0301,-3.0999,-3.1439,-3.1568,-3.221,-3.2669,-3.2779,-3.344,-3.3495,-3.2816,-3.433,-3.5679,-3.6652,-3.8028,-3.8707,-3.8707,-3.8707,-3.8707,-3.8707,-3.8707,-3.8707,-3.8707,-3.8707,-3.8707,-3.8707,-3.8707,-3.9258,-4.0139,-4.0836,-4.168,-4.2561,-4.324,-4.3497,-4.3497,-3.5622,-3.5622,-3.5622,-3.5622,-3.5622,-3.5622,-3.5622,-3.5622,-3.5622,-3.5622,-3.5622,-3.5622,-3.5622,-3.565,-3.5898,-3.6333,-3.6522,-3.702,-3.7946,-3.8465,-3.8707,-3.8707,-3.8707,-3.8707,-3.8707,-3.8707,-3.8634,-3.8505,-3.8505,-3.845,-3.834,-3.834,-3.834,-3.834,-3.834,-3.834,-3.834,-3.834,-3.8395,-3.8505,-3.8505,-3.8597,-3.8707,-3.8707,-3.8707,-3.8707,-3.8707,-3.8707,-3.8707,-3.8707,-3.8707,-3.8707,-3.8707,-3.8707,-3.8707,-3.8707,-3.8707,-3.867,-3.856,-3.801,-3.7092,-3.544,-3.499,-3.477,-3.399,-3.3807,-3.3807,-3.3807,-3.3807,-3.3752,-3.3642,-3.2394,-3.1347,-3.1219,-2.9971,-2.8723,-2.7915,0.0,-2.8815,-2.8815,-2.9531,-3.0338,-3.1127,-3.1329,-3.1678,-3.2375,-3.254,-3.2908,-3.3587,-3.3733,-3.3733,-3.3623,-3.522,-3.6817,-3.8303,-3.8579,-3.8707,-3.8707,-3.8707,-3.8707,-3.8707,-3.8707,-3.8707,-3.8707,-3.8707,-3.8707,-3.8707,-3.8707,-3.957,-4.0946,-4.1056,-4.2011,-4.3314,-4.3442,-4.3497,-4.3497,-3.5622,-3.5622,-3.5622,-3.5622,-3.5622,-3.5622,-3.5622,-3.5622,-3.5622,-3.5622,-3.5622,-3.5622,-3.5622,-3.5622,-3.5694,-3.5941,-3.6207,-3.6603,-3.7041,-3.7843,-3.8267,-3.8267,-3.8546,-3.8707,-3.8707,-3.8707,-3.8707,-3.8707,-3.8707,-3.8707,-3.8707,-3.8707,-3.8707,-3.8707,-3.8707,-3.8707,-3.8707,-3.8707,-3.8707,-3.8707,-3.8707,-3.8707,-3.8707,-3.8707,-3.8707,-3.8707,-3.8707,-3.8707,-3.8707,-3.8707,-3.8707,-3.8707,-3.8707,-3.8707,-3.8707,-3.8707,-3.8707,-3.8707,-3.8707,-3.8432,-3.7753,-3.6119,-3.5716,-3.5367,-3.4082,-3.3807,-3.3807,-3.3807,-3.3807,-3.3807,-3.3807,-3.2834,-3.2045,-3.2045,-3.0705,-2.9531,-2.9145,-2.942,-2.9659,-2.9659,-3.0742,-3.1641,-3.2008,-3.243,-3.2852,-3.322,-3.3256,-3.3421,-3.377,-3.3807,-3.3807,-3.3807,-3.5422,-3.7074,-3.8689,-3.8707,-3.8707,-3.8707,-3.8707,-3.8707,-3.8707,-3.8707,-3.8707,-3.8707,-3.8707,-3.8707,-3.8707,-3.8707,-3.9386,-4.0506,-4.0946,-4.1827,-4.291,-4.3332,-4.3497,-4.3497,-3.5622,-3.5622,-3.5622,-3.5622,-3.5622,-3.5622,-3.5622,-3.5622,-3.5622,-3.5622,-3.5622,-3.5622,-3.5622,-3.5622,-3.5622,-3.5622,-3.5985,-3.6224,-3.6224,-3.7041,-3.7614,-3.772,-3.8234,-3.8496,-3.8496,-3.8627,-3.8707,-3.8707,-3.8707,-3.8707,-3.8707,-3.8707,-3.8707,-3.8707,-3.8707,-3.8707,-3.8707,-3.8707,-3.8707,-3.8707,-3.8707,-3.8707,-3.8707,-3.8707,-3.8707,-3.8707,-3.8707,-3.8707,-3.8707,-3.8707,-3.8707,-3.8707,-3.8707,-3.8707,-3.8707,-3.8707,-3.8707,-3.8707,-3.8707,-3.8707,-3.8358,-3.6927,-3.6431,-3.5899,-3.4431,-3.3935,-3.3807,-3.3807,-3.3807,-3.3807,-3.3807,-3.3146,-3.2614,-3.2614,0.0,-3.0485,-3.0485,-3.0485,-3.0558,-3.0742,-3.1861,-3.2687,-3.2871,-3.344,-3.3807,-3.3807,-3.3807,-3.3807,-3.3807,-3.3807,-3.3972,-3.4376,-3.5624,-3.7074,-3.8689,-3.8707,-3.8707,-3.8707,-3.8707,-3.8707,-3.8707,-3.8707,-3.8707,-3.8707,-3.8707,-3.8707,-3.8707,-3.8707,-3.9166,-3.9974,-4.0799,-4.1589,-4.2396,-4.3185,-4.3497,-4.3497,-3.5622,-3.5622,-3.5622,-3.5622,-3.5622,-3.5622,-3.5622,-3.5622,-3.5622,-3.5622,-3.5622,-3.5622,-3.5622,-3.5622,-3.5622,-3.5622,-3.5622,-3.565,-3.565,-3.6165,-3.6724,-3.721,-3.772,-3.7946,-3.7946,-3.8465,-3.8707,-3.8707,-3.8707,-3.8707,-3.8707,-3.8707,-3.8707,-3.8707,-3.8707,-3.8707,-3.8707,-3.8707,-3.8707,-3.8707,-3.8707,-3.8707,-3.8707,-3.8707,-3.8707,-3.8707,-3.8707,-3.8707,-3.8707,-3.8707,-3.8707,-3.8707,-3.8707,-3.8707,-3.8707,-3.8707,-3.8707,-3.8707,-3.8707,-3.8707,-3.8487,-3.7624,-3.6835,-3.6064,-3.51,-3.4339,-3.3807,-3.3807,-3.3807,-3.3807,-3.3807,-3.3146,-3.2614,-3.2614,0.0,0.0,-3.1311,-3.1311,-3.1586,-3.2339,-3.254,-3.2908,-3.3642,-3.377,-3.3807,-3.3807,-3.3807,-3.3807,-3.3807,-3.3807,-3.4504,-3.6064,-3.6229,-3.7074,-3.8689,-3.8707,-3.8707,-3.8707,-3.8707,-3.8707,-3.8707,-3.8707,-3.8707,-3.8707,-3.8707,-3.8707,-3.8707,-3.8707,-3.9166,-3.9974,-4.0799,-4.1589,-4.2396,-4.3185,-4.3497,-4.3497,-3.5622,-3.5622,-3.5622,-3.5622,-3.5622,-3.5622,-3.5622,-3.5622,-3.5622,-3.5622,-3.5622,-3.5622,-3.5622,-3.5622,-3.5622,-3.5622,-3.5622,-3.5622,-3.5622,-3.5783,-3.644,-3.7578,-3.8117,-3.8382,-3.8382,-3.8596,-3.8707,-3.8707,-3.8707,-3.8707,-3.8707,-3.8707,-3.8707,-3.8707,-3.8707,-3.8707,-3.8707,-3.8707,-3.8707,-3.8707,-3.8707,-3.8707,-3.8707,-3.8707,-3.8707,-3.8707,-3.8707,-3.8707,-3.8707,-3.8707,-3.8707,-3.8707,-3.8707,-3.8707,-3.8707,-3.8707,-3.8707,-3.8707,-3.8707,-3.8707,-3.8505,-3.7679,-3.689,-3.6064,-3.5192,-3.4394,-3.3807,-3.3807,-3.3807,-3.3807,-3.3807,-3.355,-3.3348,-3.3348,0.0,-3.2137,-3.2137,-3.2137,-3.2265,-3.2577,-3.3054,-3.3458,-3.377,-3.3807,-3.3807,-3.3807,-3.3807,-3.3807,-3.3807,-3.3807,-3.4578,-3.6248,-3.6303,-3.7074,-3.8689,-3.8707,-3.8707,-3.8707,-3.8707,-3.8707,-3.8707,-3.8707,-3.8707,-3.8707,-3.8707,-3.8707,-3.8707,-3.8707,-3.8891,-3.9239,-4.0047,-4.0855,-4.1662,-4.2451,-4.3057,-4.3497,-3.5622,-3.5622,-3.5622,-3.5622,-3.5622,-3.5622,-3.5622,-3.5622,-3.5622,-3.5622,-3.5622,-3.5723,-3.596,-3.5994,-3.6079,-3.6315,-3.6332,-3.6332,-3.6332,-3.648,-3.6715,-3.7155,-3.7843,-3.8252,-3.8252,-3.8546,-3.8707,-3.8707,-3.8707,-3.8707,-3.8707,-3.8707,-3.8707,-3.8707,-3.8707,-3.8707,-3.8707,-3.8707,-3.8707,-3.8707,-3.8707,-3.8707,-3.8707,-3.8707,-3.8707,-3.8707,-3.8707,-3.8707,-3.8707,-3.8707,-3.8707,-3.8707,-3.8707,-3.8707,-3.8707,-3.8707,-3.8707,-3.8707,-3.8707,-3.8707,-3.8579,-3.801,-3.7257,-3.645,-3.5605,-3.478,-3.4119,-3.3844,-3.3807,-3.3807,-3.3807,-3.3807,-3.3807,-3.3807,-3.3348,-3.2981,-3.2981,-3.2981,-3.2981,-3.2981,-3.3458,-3.3807,-3.3807,-3.3807,-3.3807,-3.3807,-3.3807,-3.3807,-3.3807,-3.3807,-3.4578,-3.6248,-3.6303,-3.7074,-3.8689,-3.8707,-3.8707,-3.8707,-3.8707,-3.8707,-3.8707,-3.8707,-3.8707,-3.8707,-3.8707,-3.8707,-3.8707,-3.8707,-3.8707,-3.8781,-3.9588,-4.0396,-4.1203,-4.2011,-4.28,-4.3497,-3.5622,-3.5622,-3.5622,-3.5622,-3.5622,-3.5622,-3.5622,-3.5622,-3.5622,-3.5622,-3.5622,-3.5926,-3.6688,-3.6789,-3.7094,-3.7838,-3.7905,-3.7905,-3.7905,-3.8345,-3.7686,-3.5707,-3.6643,-3.719,-3.719,-3.8168,-3.8707,-3.8707,-3.8707,-3.8707,-3.8707,-3.8707,-3.8707,-3.8707,-3.8707,-3.8707,-3.8707,-3.8707,-3.8707,-3.8707,-3.8707,-3.8707,-3.8707,-3.8707,-3.8707,-3.8707,-3.8707,-3.8707,-3.8707,-3.8707,-3.8707,-3.8707,-3.8707,-3.8707,-3.8707,-3.8707,-3.8707,-3.8707,-3.8707,-3.8707,-3.8707,-3.8707,-3.8102,-3.7276,-3.6486,-3.5642,-3.4752,-3.3972,-3.3807,-3.3807,-3.3807,-3.3807,-3.3807,-3.3807,-3.3807,-3.3807,-3.3807,-3.3807,-3.3807,-3.3807,-3.3807,-3.3807,-3.3807,-3.3807,-3.3807,-3.3807,-3.3807,-3.3807,-3.3807,-3.3807,-3.4578,-3.6248,-3.6303,-3.7074,-3.8689,-3.8707,-3.8707,-3.8707,-3.8707,-3.8707,-3.8707,-3.8707,-3.8707,-3.8707,-3.8707,-3.8707,-3.8707,-3.8707,-3.8707,-3.8781,-3.957,-4.0377,-4.1203,-4.1992,-4.28,-4.3479,-3.5622,-3.5622,-3.5622,-3.5622,-3.5622,-3.5622,-3.5622,-3.5622,-3.5622,-3.5622,-3.6096,-3.6518,-3.6755,-3.7246,-3.7669,-3.7889,-3.7905,-3.7905,-3.7905,-3.8014,-3.7857,-3.7246,-3.7701,-3.7966,-3.7966,-3.8096,-3.815,-3.815,-3.8515,-3.8707,-3.8707,-3.8707,-3.8707,-3.8707,-3.8707,-3.8707,-3.8707,-3.8707,-3.8707,-3.8707,-3.8707,-3.8707,-3.8707,-3.8707,-3.8707,-3.8707,-3.8707,-3.8707,-3.8707,-3.8707,-3.8707,-3.8707,-3.8707,-3.8707,-3.8707,-3.8707,-3.8707,-3.8707,-3.8707,-3.8707,-3.8707,-3.8707,-3.8102,-3.7452,-3.7184,-3.6028,-3.4917,-3.4679,-3.4192,-3.3807,-3.3807,-3.3807,-3.3807,-3.3807,-3.3807,-3.3807,-3.3807,-3.3807,-3.3807,-3.3807,-3.3807,-3.3807,-3.3807,-3.3807,-3.3807,-3.3807,-3.3807,-3.3807,-3.3807,-3.4339,-3.5165,-3.6266,-3.6835,-3.7643,-3.8689,-3.8707,-3.8707,-3.8707,-3.8707,-3.8707,-3.8707,-3.8707,-3.8707,-3.8707,-3.8707,-3.8707,-3.8707,-3.8707,-3.8707,-3.8726,-3.8964,-3.9551,-4.0359,-4.1167,-4.1974,-4.2745,-3.5622,-3.5622,-3.5622,-3.5622,-3.5622,-3.5622,-3.5622,-3.5622,-3.5723,-3.6045,-3.6485,-3.7009,-3.7601,-3.8058,-3.8447,-3.8734,-3.8768,-3.8768,-3.8768,-3.8768,-3.8768,-3.8768,-3.867,-3.838,-3.8,-3.8016,-3.7936,-3.7614,-3.7929,-3.8101,-3.8101,-3.8318,-3.8382,-3.8382,-3.8627,-3.8707,-3.8707,-3.8707,-3.8707,-3.8707,-3.8707,-3.8707,-3.8707,-3.8707,-3.8707,-3.8707,-3.8707,-3.8707,-3.8707,-3.8707,-3.8707,-3.8707,-3.8707,-3.8707,-3.8707,-3.8707,-3.8707,-3.8707,-3.8707,-3.8707,-3.8707,-3.8707,-3.8322,-3.7881,-3.7551,-3.6707,-3.5807,-3.5137,-3.4605,-3.4192,-3.3862,-3.3807,-3.3807,-3.3807,-3.3807,-3.3807,-3.3807,-3.3807,-3.3807,-3.3807,-3.3807,-3.3807,-3.3807,-3.3807,-3.3807,-3.3807,-3.3807,-3.3935,-3.4266,-3.4734,-3.5569,-3.6725,-3.7239,-3.7881,-3.8689,-3.8707,-3.8707,-3.8707,-3.8707,-3.8707,-3.8707,-3.8707,-3.8707,-3.8707,-3.8707,-3.8707,-3.8707,-3.8707,-3.8707,-3.8707,-3.8707,-3.9184,-3.9955,-4.0451,-4.135,-4.2378,-3.5622,-3.5622,-3.5622,-3.5622,-3.5622,-3.5639,-3.5723,-3.5723,-3.5994,-3.6772,-3.6941,-3.7499,-3.8836,-3.9056,-3.936,-4.002,-4.007,-4.007,-4.007,-4.007,-4.007,-4.007,-3.9445,-3.8584,-3.7551,-3.7977,-3.7853,-3.7152,-3.719,-3.719,-3.7228,-3.7649,-3.7825,-3.7859,-3.8382,-3.8627,-3.8627,-3.8676,-3.8707,-3.8707,-3.8707,-3.8707,-3.8707,-3.8707,-3.8707,-3.8707,-3.8707,-3.8707,-3.8707,-3.8707,-3.8707,-3.8707,-3.8707,-3.8707,-3.8707,-3.8707,-3.8707,-3.8707,-3.8707,-3.8707,-3.8707,-3.8707,-3.8707,-3.8505,-3.7753,-3.7562,-3.7037,-3.5459,-3.5045,-3.4734,-3.3954,-3.3807,-3.3807,-3.3807,-3.3807,-3.3807,-3.3807,-3.3807,-3.3807,-3.3807,-3.3807,-3.3807,-3.3807,-3.3807,-3.3807,-3.3807,-3.3807,-3.4156,-3.4954,-3.5064,-3.5862,-3.747,-3.7551,-3.7955,-3.8689,-3.8707,-3.8707,-3.8707,-3.8707,-3.8707,-3.8707,-3.8707,-3.8707,-3.8707,-3.8707,-3.8707,-3.8707,-3.8707,-3.8707,-3.8707,-3.8707,-3.9148,-3.979,-3.9863,-4.0818,-4.2103,-3.5622,-3.5622,-3.5622,-3.5622,-3.5622,-3.5825,-3.6434,-3.6535,-3.6806,-3.7567,-3.8159,-3.8633,-3.8954,-3.9512,-3.9918,-4.007,-4.007,-4.007,-4.007,-4.007,-4.007,-4.007,-3.9935,-3.9206,-3.784,-3.7741,-3.7328,-3.6563,-3.6981,-3.719,-3.721,-3.7285,-3.736,-3.736,-3.7843,-3.8065,-3.8099,-3.8515,-3.8707,-3.8707,-3.8707,-3.8707,-3.8707,-3.8707,-3.8707,-3.8707,-3.8707,-3.8707,-3.8707,-3.8707,-3.8707,-3.8707,-3.8707,-3.8707,-3.8707,-3.8707,-3.8707,-3.8707,-3.8707,-3.8707,-3.8707,-3.8707,-3.8707,-3.8652,-3.8487,-3.7936,-3.7202,-3.6211,-3.5495,-3.4734,-3.3954,-3.3807,-3.3807,-3.3807,-3.3807,-3.3807,-3.3807,-3.3807,-3.3807,-3.3807,-3.3807,-3.3807,-3.3807,-3.3807,-3.3807,-3.3807,-3.3807,-3.4156,-3.4954,-3.5661,-3.6468,-3.7489,-3.8102,-3.8524,-3.8707,-3.8707,-3.8707,-3.8707,-3.8707,-3.8707,-3.8707,-3.8707,-3.8707,-3.8707,-3.8707,-3.8707,-3.8707,-3.8707,-3.8707,-3.8707,-3.8707,-3.8817,-3.9038,-3.9662,-4.012,-4.0506,-3.5622,-3.5622,-3.5622,-3.5622,-3.5926,-3.6315,-3.6721,-3.7094,-3.7584,-3.8328,-3.8751,-3.9123,-3.9478,-3.9851,-4.007,-4.007,-4.007,-4.007,-4.007,-4.007,-4.007,-4.007,-4.007,-3.9546,-3.8447,-3.7916,-3.7141,-3.6028,-3.6291,-3.644,-3.644,-3.6684,-3.6803,-3.6843,-3.736,-3.7578,-3.7578,-3.7861,-3.7982,-3.7982,-3.7982,-3.7982,-3.7982,-3.7982,-3.8117,-3.83,-3.83,-3.8496,-3.8707,-3.8707,-3.8707,-3.8707,-3.8707,-3.8707,-3.8707,-3.8707,-3.8707,-3.8707,-3.8707,-3.8707,-3.8707,-3.8707,-3.8707,-3.8707,-3.8707,-3.8377,-3.7826,-3.7037,-3.6505,-3.5826,-3.4614,-3.4376,-3.4266,-3.3862,-3.3807,-3.3807,-3.3807,-3.3807,-3.3807,-3.3807,-3.3807,-3.3807,-3.3807,-3.3807,-3.3807,-3.3807,-3.4174,-3.4743,-3.5587,-3.6413,-3.7239,-3.8046,-3.8487,-3.8707,-3.8707,-3.8707,-3.8707,-3.8707,-3.8707,-3.8707,-3.8707,-3.8707,-3.8707,-3.8707,-3.8707,-3.8707,-3.8707,-3.8707,-3.8707,-3.8707,-3.8707,-3.8707,-3.8762,-3.9166,-3.957,-4.001,-3.5622,-3.5622,-3.5622,-3.5622,-3.6265,-3.6823,-3.6958,-3.7601,-3.8345,-3.9089,-3.9174,-3.9411,-4.0003,-4.007,-4.007,-4.007,-4.007,-4.007,-4.007,-4.007,-4.007,-4.007,-4.007,-3.9732,-3.9005,-3.8278,-3.7229,-3.5825,-3.569,-3.5622,-3.5622,-3.6071,-3.6249,-3.6308,-3.6825,-3.7058,-3.7076,-3.7135,-3.719,-3.719,-3.7332,-3.7297,-3.719,-3.7332,-3.7577,-3.7893,-3.7893,-3.8249,-3.8707,-3.8707,-3.8707,-3.8707,-3.8707,-3.8707,-3.8707,-3.8707,-3.8707,-3.8707,-3.8707,-3.8707,-3.8707,-3.8707,-3.8707,-3.8707,-3.8707,-3.8707,-3.8469,-3.7661,-3.7507,-3.7019,-3.5514,-3.521,-3.4963,-3.4137,-3.4009,-3.3972,-3.3825,-3.3807,-3.3807,-3.3807,-3.3807,-3.3807,-3.3807,-3.3807,-3.3862,-3.399,-3.4633,-3.5459,-3.645,-3.7129,-3.7863,-3.867,-3.8707,-3.8707,-3.8707,-3.8707,-3.8707,-3.8707,-3.8707,-3.8707,-3.8707,-3.8707,-3.8707,-3.8707,-3.8707,-3.8707,-3.8707,-3.8707,-3.8707,-3.8707,-3.8707,-3.8707,-3.8707,-3.8707,-3.9129,-3.979,-3.5622,-3.5622,-3.5622,-3.5622,-3.6265,-3.7009,-3.7652,-3.8379,-3.9106,-3.9834,-3.9935,-3.9969,-4.007,-4.007,-4.007,-4.007,-4.007,-4.007,-4.007,-4.007,-4.007,-4.007,-4.007,-3.9732,-3.9005,-3.8278,-3.7483,-3.662,-3.5943,-3.5622,-3.5622,-3.565,-3.5694,-3.5739,-3.6249,-3.6498,-3.6539,-3.6981,-3.719,-3.7243,-3.7877,-3.7792,-3.7261,-3.7895,-3.8076,-3.7893,-3.7893,-3.8249,-3.8707,-3.8707,-3.8707,-3.8707,-3.8707,-3.8707,-3.8707,-3.8707,-3.8707,-3.8707,-3.8707,-3.8707,-3.8707,-3.8707,-3.8707,-3.8707,-3.8707,-3.8707,-3.8469,-3.7661,-3.7507,-3.7202,-3.6285,-3.6119,-3.5844,-3.4972,-3.4825,-3.4596,-3.3899,-3.3807,-3.3807,-3.3807,-3.3807,-3.3807,-3.3807,-3.3807,-3.41,-3.477,-3.4935,-3.5697,-3.7239,-3.7452,-3.7863,-3.867,-3.8707,-3.8707,-3.8707,-3.8707,-3.8707,-3.8707,-3.8707,-3.8707,-3.8707,-3.8707,-3.8707,-3.8707,-3.8707,-3.8707,-3.8707,-3.8707,-3.8707,-3.8707,-3.8707,-3.8707,-3.8707,-3.8707,-3.8781,-3.8891,-3.5622,-3.5622,-3.5622,-3.5622,-3.662,-3.7516,-3.7855,-3.887,-3.9715,-4.0037,-4.007,-4.007,-4.007,-4.007,-4.007,-4.007,-4.007,-4.007,-4.007,-4.007,-4.007,-4.007,-4.007,-3.9732,-3.9005,-3.8278,-3.7533,-3.6772,-3.5994,-3.5622,-3.5622,-3.6062,-3.6265,-3.6265,-3.6519,-3.6635,-3.6635,-3.6879,-3.673,-3.6437,-3.7603,-3.762,-3.7024,-3.7327,-3.7526,-3.7701,-3.7828,-3.8249,-3.8707,-3.8707,-3.8707,-3.8707,-3.8707,-3.8707,-3.8707,-3.8707,-3.8707,-3.8707,-3.8707,-3.8707,-3.8707,-3.8707,-3.8707,-3.8707,-3.8707,-3.8707,-3.8597,-3.823,-3.8175,-3.7918,-3.711,-3.6964,-3.6688,-3.5862,-3.5302,-3.4862,-3.4523,-3.4082,-3.3807,-3.3807,-3.3807,-3.3807,-3.3807,-3.4211,-3.4633,-3.4954,-3.5881,-3.6707,-3.7441,-3.7918,-3.8322,-3.8689,-3.8707,-3.8707,-3.8707,-3.8707,-3.8707,-3.8707,-3.8707,-3.8707,-3.8707,-3.8707,-3.8707,-3.8707,-3.8707,-3.8707,-3.8707,-3.8707,-3.8707,-3.8707,-3.8707,-3.8707,-3.8719,-3.8855,-3.8905,-3.8933]}]]